     2.10           OBSERVATION DATA    G (GPS)             RINEX VERSION / TYPE
teqc 2005May6 SOPAC 20050707 00:30:07UTC                    PGM / RUN BY / DATE
Linux 2.4.20-8|Pentium IV|gcc|Linux|486/DX+                 COMMENT
BIT 2 OF LLI FLAGS DATA COLLECTED UNDER A/S CONDITION       COMMENT
HPGN D CA 02 HN                                             MARKER NAME
02HN                                                        MARKER NUMBER
Gary Cupler                                                 OBSERVER / AGENCY
0220308780 TRIMBLE 5700 2.01                                REC # / TYPE / VERS
12471537 TRM41249.00 NONE                                   ANT # / TYPE
 -2542528.0000 -4136104.0000  4125054.0000                  APPROX POSITION XYZ
        2.0000        0.0000        0.0000                  ANTENNA: DELTA H/E/N
     1     1                                                WAVELENGTH FACT L1/2
     6    L1    L2    C1    P2    P1    D1                  # / TYPES OF OBSERV
    15.0000                                                 INTERVAL
Northern California Height Modernization 2004               COMMENT
                                                            COMMENT
SOPAC - Scripps Orbit and Permanent Array Center            COMMENT
IGPP - Institute of Geophysics and Planetary Physics        COMMENT
SIO - Scripps Institution of Oceanography                   COMMENT
UCSD - University of California, San Diego                  COMMENT
                                                            COMMENT
email: archive@gpsmail.ucsd.edu                             COMMENT
ftp://garner.ucsd.edu                                       COMMENT
http://sopac.ucsd.edu                                       COMMENT
                                                            COMMENT
                                                            COMMENT
Approximate Lat, Lon : 40.542, -121.580                     COMMENT
                                                            COMMENT
SNR is mapped to RINEX snr flag value [0-9]                 COMMENT
L1 & L2: 2-19 dBHz = 1, 20-27 dBHz = 2, 28-31 dBHz = 3      COMMENT
32-35 dBHz = 4, 36-38 dBHz = 5, 39-41 dBHz = 6              COMMENT
42-44 dBHz = 7, 45-48 dBHz = 8, >= 49 dBHz = 9              COMMENT
  2004     9     9    20    48   45.0000000     GPS         TIME OF FIRST OBS
                                                            END OF HEADER
 04  9  9 20 48 45.0000000  0  6G 3G 8G13G16G23G27
    -10403.47757    -11396.13352  23232876.9144   23232875.6604
    -57669.29758
    -38026.43053                  23288071.1414   23288071.3914
     30746.78559
     16152.73857                  20238936.5704   20238934.2854

    179194.79358    117568.31352  23598925.2584   23598924.0634

    133843.29359     87867.14156  21132399.1644   21132394.6844
    -10272.01659
    -11256.21155                  21691923.9844   21691922.6024

 04  9  9 20 49  0.0000000  0  6G 3G 8G13G16G23G27
    -14268.86747    -14408.10942  23232141.4844   23232140.2544
       257.6934
    -79685.84448    -55182.12943  23283881.1954   23283881.1054
      1467.7704
     41753.67249     24729.53147  20241031.3594   20241028.6174
      -733.7924
    244557.53147    168500.27742  23611363.1564   23611362.5084
     -4357.5164
    182215.56349    125559.80946  21141604.2344   21141599.6214
     -3224.8184
    -14175.04749    -14297.52345  21691181.1724   21691179.7154
       260.2024
 04  9  9 20 49 15.0000000  0  6G 3G 8G13G16G23G27
    -18021.02746    -17331.85242  23231426.5634   23231427.1134
       250.1444
   -101663.34848    -72307.44943  23279699.4224   23279698.9184
      1465.1674
     52864.69549     33387.46547  20243145.3054   20243142.8484
      -740.7354
    309983.99247    219481.88742  23623813.4304   23623812.5204
     -4361.7644
    230682.86349    163326.50445  21150827.3364   21150823.1334
     -3231.1534
    -18031.93749    -17302.89145  21690447.4224   21690445.6454
       257.1264
 04  9  9 20 49 30.0000000  0  6G 3G 8G13G16G23G27
    -21638.98047    -20151.03942  23230738.2034   23230738.4534
       241.1974
   -123581.37548    -89386.40243  23275528.1644   23275528.3754
      1461.2024
     64100.65649     42142.75047  20245283.4844   20245280.9924
      -749.0644
    375494.46547    270528.98442  23636280.0784   23636278.4184
     -4367.3654
    279265.78949    201183.30945  21160072.2424   21160068.5704
     -3238.8624
    -21821.99248    -20256.16845  21689725.7664   21689724.2464
       252.6704
 04  9  9 20 49 45.0000000  0  6G 3G 8G13G16G23G27
    -25113.84847    -22858.71942  23230077.2344   23230076.3054
       231.6584
   -145431.16048   -106412.18443  23271370.0314   23271370.5044
      1456.6524
     75470.25849     51002.18447  20247447.4614   20247444.3794
      -757.9734
    441097.41047    321648.13742  23648763.2344   23648762.0354
     -4373.5304
    327972.94549    239136.89846  21169341.2344   21169337.1254
     -3247.1444
    -25536.60549    -23150.65245  21689019.3284   21689017.9574
       247.6414
 04  9  9 20 50  0.0000000  0  6G 3G 8G13G16G23G27
    -28441.46547    -25451.65642  23229443.9614   23229442.9614
       221.8414
   -167208.83648   -123381.77743  23267226.3834   23267226.2734
      1451.8454
     86977.57049     59968.91846  20249636.7974   20249633.9384
      -767.1544
    506796.20747    372841.95742  23661265.6094   23661263.9614
     -4379.9204
    376808.00049    277190.18446  21178633.9304   21178629.3014
     -3255.6704
    -29172.05149    -25983.46545  21688327.0314   21688325.5204
       242.3634
 04  9  9 20 50 15.0000000  0  6G 3G 8G13G16G23G27
    -31619.85247    -27928.30942  23228839.1644   23228838.4494
       211.8924
   -188912.62548   -140293.79343  23263095.7114   23263095.8054
      1446.9194
     98624.37149     69044.35547  20251853.0394   20251850.2304
      -776.4534
    572592.17247    424111.50442  23673786.2814   23673785.1134
     -4386.3984
    425772.62549    315344.41045  21187951.2814   21187947.0664
     -3264.3084
    -32726.51649    -28753.17245  21687650.8364   21687649.6914
       236.9644
 04  9  9 20 50 30.0000000  0  6G 3G 8G13G16G23G27
    -34651.45746    -30290.56242  23228261.8834   23228261.9774
       202.1074
   -210545.30148   -157150.36343  23258979.2194   23258979.0394
      1442.1784
    110408.22349     78226.57047  20254095.5704   20254092.9184
      -785.5904
    638482.30947    475454.42242  23686324.7034   23686323.6374
     -4392.6764
    474864.11749    353597.48445  21197293.7974   21197288.9104
     -3272.7664
    -36202.78949    -31461.94946  21686989.6094   21686988.2344
       231.7524
 04  9  9 20 50 45.0000000  0  6G 3G 8G13G16G23G27
    -37535.51645    -32537.82442  23227712.8834   23227713.4414
       192.2714
   -232106.07848   -173950.94543  23254876.4064   23254875.9694
      1437.3854
    122329.58649     87515.94146  20256364.3834   20256361.5864
      -794.7584
    704466.77047    526870.83642  23698880.4844   23698880.3444
     -4398.9644
    524082.80549    391949.68046  21206659.6334   21206655.6684
     -3281.2464
    -39600.59848    -34109.57845  21686342.8284   21686341.2034
       226.5214
 04  9  9 20 51  0.0000000  0  6G 3G 8G13G16G23G27
    -40274.31246    -34671.93442  23227191.7114   23227192.2034
       182.5864
   -253597.64848   -190697.60243  23250786.6954   23250786.5044
      1432.7714
    134386.25049     96910.74247  20258658.3914   20258656.0314
      -803.7784
    770542.64846    578358.49242  23711454.5864   23711454.1764
     -4405.0594
    573426.13349    430399.01646  21216048.8754   21216045.4844
     -3289.5554
    -42922.20748    -36697.84445  21685710.5554   21685708.8634
       221.4414
 04  9  9 20 51 15.0000000  0  6G 3G 8G13G16G23G27
    -42871.21146    -36695.50442  23226698.0084   23226697.5514
       173.1274
   -275023.81648   -207393.26643  23246708.6484   23246709.5474
      1428.4114
    146574.46149    106408.05147  20260977.8914   20260975.2154
      -812.5474
    836705.81347    629914.14542  23724045.6484   23724044.3714
     -4410.8784
    622890.26649    468942.46545  21225461.7734   21225457.5984
     -3297.6094
    -46171.58249    -39229.81645  21685092.2424   21685090.5084
       216.6254
 04  9  9 20 51 30.0000000  0  6G 3G 8G13G16G23G27
    -45327.45344    -38609.45342  23226230.0704   23226230.5594
       163.7494
   -296385.82848   -224038.96143  23242644.5394   23242644.2384
      1424.1344
    158892.94149    116006.85947  20263321.8674   20263319.2774
      -821.2324
    902954.64547    681536.58242  23736651.6954   23736651.2734
     -4416.5894
    672473.62149    507578.83246  21234897.3834   21234892.8794
     -3305.5574
    -49350.18448    -41706.64545  21684487.2974   21684485.7854
       211.9074
 04  9  9 20 51 45.0000000  0  6G 3G 8G13G16G23G27
    -47643.70346    -40414.32042  23225789.4844   23225789.3444
       154.4174
   -317684.58648   -240635.34843  23238591.5004   23238591.4414
      1419.9174
    171341.02049    125706.66847  20265690.8284   20265687.9534
      -829.8724
    969287.82046    733224.72342  23749274.2274   23749273.6954
     -4422.2124
    722175.18849    546307.30545  21244354.9924   21244351.1994
     -3313.4384
    -52458.88348    -44129.00045  21683895.7114   21683894.3404
       207.2474
 04  9  9 20 52  0.0000000  0  6G 3G 8G13G16G23G27
    -49820.63746    -42110.57842  23225374.7584   23225375.5004
       145.1294
   -338920.96548   -257183.10943  23234550.0554   23234550.2544
      1415.7594
    183918.03949    135506.93047  20268084.2734   20268081.5514
      -838.4684
   1035704.10545    784977.63742  23761912.7344   23761912.7274
     -4427.7524
    771994.10949    585127.19546  21253835.5634   21253831.8204
     -3321.2614
    -55498.67249    -46497.65245  21683317.3444   21683316.0594
       202.6534
 04  9  9 20 52 15.0000000  0  6G 3G 8G13G16G23G27
    -51859.56245    -43699.32842  23224987.1644   23224987.2384
       135.9284
   -360096.53947   -273683.49643  23230520.5164   23230520.8674
      1411.7054
    196622.31649    145406.37147  20270501.7424   20270499.1414
      -846.9524
   1102201.65646    836793.86342  23774567.6254   23774566.4144
     -4433.1704
    821928.73849    624037.28146  21263338.3134   21263333.7504
     -3328.9754
    -58471.03948    -48813.78545  21682751.8594   21682750.3404
       198.1584
 04  9  9 20 52 30.0000000  0  6G 3G 8G13G16G23G27
    -53759.33246    -45179.65242  23224625.3984   23224625.9224
       126.6514
   -381210.46948   -290135.87143  23226502.4304   23226503.0554
      1407.5954
    209454.91448    155405.79747  20272943.4384   20272940.7464
      -855.5074
   1168780.90247    888673.74642  23787237.9774   23787236.0554
     -4438.6164
    871979.63349    663037.98446  21272862.3444   21272857.6644
     -3336.7264
    -61375.38748    -51076.89545  21682199.0554   21682198.3094
       193.6234
 04  9  9 20 52 45.0000000  0  6G 3G 8G13G16G23G27
    -55521.65246    -46552.85242  23224289.8444   23224290.5274
       117.4884
   -402264.71147   -306541.72343  23222495.9144   23222495.2774
      1403.6164
    222413.96949    165503.75847  20275409.7974   20275406.8284
      -863.9374
   1235439.44947    940615.44542  23799922.8984   23799921.1954
     -4443.9034
    922144.85949    702127.72745  21282408.1334   21282403.9344
     -3344.3484
    -64213.72748    -53288.57845  21681659.2194   21681658.1174
       189.2234
 04  9  9 20 53  0.0000000  0  6G 3G 8G13G16G23G27
    -57146.74646    -47819.12142  23223980.6724   23223980.9964
       108.3404
   -423259.79348   -322901.49243  23218501.0234   23218500.5824
      1399.6724
    235499.16849    175700.01247  20277899.5164   20277896.9144
      -872.3474
   1302176.53947    992618.31342  23812622.4614   23812620.2544
     -4449.1394
    972423.82849    741306.11745  21291975.9384   21291971.8134
     -3351.9314
    -66986.52349    -55449.19145  21681131.4304   21681130.3954
       184.8534
 04  9  9 20 53 15.0000000  0  6G 3G 8G13G16G23G27
    -58636.62146    -48980.06642  23223696.8054   23223697.5204
        99.3254
   -444197.91048   -339216.88343  23214516.8204   23214516.2034
      1395.8744
    248708.48049    185992.98047  20280413.3524   20280410.5864
      -880.6214
   1368989.59847   1044680.43842  23825335.8834   23825334.5434
     -4454.2044
   1022814.35249    780571.44545  21301565.4224   21301560.5594
     -3359.3684
    -69695.90248    -57560.39145  21680615.5944   21680614.3164
       180.6254
 04  9  9 20 53 30.0000000  0  6G 3G 8G13G16G23G27
    -59989.82846    -50034.46542  23223439.3984   23223440.3284
        90.2144
   -465077.74648   -355486.83643  23210542.8834   23210543.1054
      1391.9894
    262043.09049    196383.59447  20282950.9844   20282948.1844
      -888.9744
   1435879.58647   1096802.44942  23838065.2504   23838063.3714
     -4459.3334
   1073317.36349    819924.42645  21311175.5634   21311171.2704
     -3366.8674
    -72340.85248    -59621.37545  21680112.6174   21680110.7544
       176.3304
 04  9  9 20 53 45.0000000  0  6G 3G 8G13G16G23G27
    -61208.17246    -50983.79342  23223207.9534   23223208.1334
        81.2234
   -485901.24648   -371712.88343  23206580.1024   23206580.7774
      1388.2334
    275500.98449    206870.25847  20285511.6564   20285509.0164
      -897.1934
   1502843.88747   1148982.41442  23850808.3204   23850806.4224
     -4464.2874
   1123930.71549    859363.37545  21320807.2734   21320802.9494
     -3374.2234
    -74923.41448    -61633.75845  21679620.8444   21679619.2544
       172.1714
 04  9  9 20 54  0.0000000  0  6G 3G 8G13G16G23G27
    -62292.21946    -51828.50442  23223001.4774   23223001.5084
        72.2704
   -506669.35248   -387895.77343  23202628.1644   23202628.5704
      1384.5404
    289081.66049    217452.60247  20288096.2664   20288093.3164
      -905.3784
   1569881.55547   1201219.53142  23863564.8054   23863563.5474
     -4469.1784
   1174653.45349    898887.55546  21330459.3054   21330455.4304
     -3381.5164
    -77444.46149    -63598.20346  21679141.0704   21679139.6414
       168.0704
 04  9  9 20 54 15.0000000  0  6G 3G 8G13G16G23G27
    -63242.02745    -52568.58642  23222820.3134   23222820.7304
        63.3214
   -527382.26248   -404035.66443  23198687.2734   23198686.7894
      1380.8614
    302784.95349    228130.48846  20290703.6884   20290701.0204
      -913.5534
   1636991.88347   1253513.25842  23876335.2504   23876334.1724
     -4474.0224
   1225485.31649    938496.78945  21340132.0474   21340128.0394
     -3388.7914
    -79904.31249    -65514.95745  21678673.2584   21678671.6524
       163.9904
 04  9  9 20 54 30.0000000  0  6G 3G 8G13G16G23G27
    -64060.44145    -53206.28142  23222665.0474   23222665.2584
        54.5614
   -548043.21548   -420135.07043  23194755.3444   23194755.3364
      1377.3974
    316607.80549    238901.55947  20293334.1954   20293331.6524
      -921.5234
   1704171.33647   1305860.86342  23889119.3524   23889117.9104
     -4478.6304
   1276423.04749    978188.48445  21349825.0944   21349821.4064
     -3395.8494
    -82306.17249    -67386.52345  21678216.2114   21678214.5824
       160.1244
 04  9  9 20 54 45.0000000  0  6G 3G 8G13G16G23G27
    -64747.08247    -53741.27742  23222534.4924   23222534.7234
        45.7764
   -568652.01248   -436193.84843  23190833.4224   23190833.5084
      1373.9204
    330550.40249    249765.90647  20295987.2114   20295984.6374
      -929.5074
   1771419.73447   1358262.18842  23901916.1564   23901914.1254
     -4483.2274
   1327466.53549   1017962.60546  21359538.7344   21359534.4654
     -3402.8994
    -84649.86749    -69212.77345  21677770.1334   21677768.3404
       156.2464
 04  9  9 20 55  0.0000000  0  6G 3G 8G13G16G23G27
    -65300.94246    -54172.86742  23222428.4224   23222428.4534
        36.9244
   -589207.97348   -452211.42643  23186921.6174   23186922.2304
      1370.3974
    344613.80549    260724.41447  20298663.4304   20298660.6254
      -937.5604
   1838737.59846   1410717.62142  23914726.1724   23914724.8794
     -4487.8584
   1378616.67249   1057819.84045  21369271.9924   21369267.8874
     -3410.0094
    -86934.72349    -70993.17645  21677335.4614   21677333.9344
       152.3244
 04  9  9 20 55 15.0000000  0  6G 3G 8G13G16G23G27
    -65721.03147    -54500.16442  23222349.6724   23222348.4414
        28.0064
   -609710.04348   -468187.02743  23183019.7504   23183020.1054
      1366.8054
    358798.86749    271777.70747  20301362.3204   20301359.5944
      -945.6714
   1906125.30947   1463227.51242  23927549.8594   23927548.7624
     -4492.5144
   1429874.04749   1097760.62545  21379025.9774   21379022.0634
     -3417.1584
    -89159.96149    -72727.12146  21676912.3284   21676910.5274
       148.3494
 04  9  9 20 55 30.0000000  0  6G 3G 8G13G16G23G27
    -66007.91446    -54723.70342  23222294.9304   23222294.4384
        19.1264
   -630159.35948   -484121.54343  23179128.9694   23179128.8714
      1363.2884
    373104.80949    282925.19147  20304085.2424   20304082.5704
      -953.7294
   1973581.64846   1515790.86342  23940385.4614   23940384.3164
     -4497.0894
   1481237.71149   1137784.23445  21388800.3054   21388796.0864
     -3424.2444
    -91326.67649    -74415.46545  21676499.1484   21676498.0514
       144.4484
 04  9  9 20 55 45.0000000  0  6G 3G 8G13G16G23G27
    -66162.05547    -54843.77743  23222265.1174   23222265.9224
        10.2764
   -650556.15248   -500015.09843  23175247.5944   23175247.3284
      1359.7864
    387531.08249    294166.44147  20306830.1954   20306827.3484
      -961.7524
   2041105.61747   1568406.91042  23953236.1884   23953233.6524
     -4501.5984
   1532706.91849   1177890.09045  21398594.5864   21398590.5044
     -3431.2804
    -93435.29349    -76058.54345  21676098.0314   21676096.0234
       140.5744
 04  9  9 20 56  0.0000000  0  6G 3G 8G13G16G23G27
    -66185.50047    -54862.02042  23222260.8204   23222260.8794
         1.5634
   -670902.84448   -515869.62543  23171375.5004   23171375.9064
      1356.4464
    402075.41049    305499.68447  20309598.0394   20309595.1524
      -969.6224
   2108694.48847   1621073.52742  23966097.6954   23966095.6914
     -4505.9254
   1584279.19149   1218076.25045  21408408.5864   21408404.1804
     -3438.1524
    -95488.34449    -77658.30546  21675707.1804   21675705.9184
       136.8704
 04  9  9 20 56 15.0000000  0  6G 3G 8G13G16G23G27
    -66079.37947    -54779.30942  23222281.5474   23222281.4264
        -7.0754
   -691200.99648   -531686.32443  23167512.8134   23167512.1564
      1353.2104
    416736.68449    316924.05546  20312387.7584   20312384.9844
      -977.4184
   2176346.72347   1673789.49642  23978970.7974   23978969.2304
     -4510.1494
   1635953.14849   1258341.64145  21418241.9614   21418237.7624
     -3444.9304
    -97487.09449    -79215.76646  21675327.0944   21675326.0274
       133.2504
 04  9  9 20 56 30.0000000  0  6G 3G 8G13G16G23G27
    -65843.03146    -54595.13342  23222325.5784   23222325.7344
       -15.7574
   -711450.04748   -547464.76643  23163659.1414   23163659.6764
      1349.9374
    431515.43849    328439.96947  20315200.1644   20315197.1254
      -985.2504
   2244062.35947   1726554.93442  23991856.7974   23991855.0704
     -4514.3764
   1687729.21549   1298686.60945  21428094.4384   21428090.6334
     -3451.7384
    -99431.28949    -80730.70346  21674957.2814   21674956.2344
       129.6134
 04  9  9 20 56 45.0000000  0  6G 3G 8G13G16G23G27
    -65477.48446    -54310.26242  23222395.0084   23222395.3954
       -24.3704
   -731651.38748   -563206.03943  23159815.5474   23159815.0594
      1346.7564
    446410.50049    340046.51647  20318034.7194   20318031.9104
      -993.0044
   2311839.69946   1779368.42242  24004754.1804   24004752.9344
     -4518.4894
   1739605.82049   1339109.91845  21437966.3054   21437962.1454
     -3458.4404
   -101322.10549    -82204.05945  21674597.1644   21674596.2734
       126.0544
 04  9  9 20 57  0.0000000  0  6G 3G 8G13G16G23G27
    -64981.96147    -53924.15642  23222489.5314   23222489.2734
       -33.0354
   -751804.30948   -578909.56243  23155980.3134   23155980.7544
      1343.5284
    461422.50849    351744.18847  20320891.1804   20320888.9414
     -1000.8014
   2379678.99246   1832230.13342  24017664.1644   24017663.3794
     -4522.6204
   1791583.33649   1379611.85546  21447857.3204   21447852.9884
     -3465.1684
   -103159.18449    -83635.53945  21674247.7034   21674246.5784
       122.4724
 04  9  9 20 57 15.0000000  0  6G 3G 8G13G16G23G27
    -64357.69947    -53437.69142  23222608.5164   23222608.4144
       -41.6174
   -771910.27348   -594576.52043  23152153.9694   23152154.0554
      1340.3984
    476550.12949    363531.93847  20323770.1564   20323767.4104
     -1008.5084
   2447578.28546   1885138.62142  24030584.4454   24030584.4144
     -4526.6204
   1843660.26649   1420191.26646  21457767.1024   21457762.8094
     -3471.7954
   -104944.05149    -85026.34846  21673907.9924   21673906.6994
       118.9914
 04  9  9 20 57 30.0000000  0  6G 3G 8G13G16G23G27
    -63606.41446    -52852.23043  23222750.8054   23222752.4264
       -50.0864
   -791971.40648   -610208.53143  23148336.9774   23148336.2034
      1337.4094
    491791.53149    375408.36347  20326670.3054   20326667.2934
     -1016.0934
   2515535.42246   1938092.20742  24043516.6334   24043516.5084
     -4530.4764
   1895834.53149   1460846.51645  21467695.1644   21467692.2234
     -3478.2844
   -106678.55549    -86377.90646  21673578.0004   21673576.6134
       115.6344
 04  9  9 20 57 45.0000000  0  6G 3G 8G13G16G23G27
    -62727.93046    -52167.68043  23222918.8674   23222919.0274
       -58.5664
   -811987.61748   -625805.53943  23144527.2814   23144527.6024
      1334.4144
    507146.70749    387373.44547  20329592.4454   20329589.6954
     -1023.6784
   2583549.96547   1991090.51642  24056460.3364   24056459.1334
     -4534.3034
   1948105.93449   1501577.44145  21477642.8444   21477638.9104
     -3484.7604
   -108362.98849    -87690.44546  21673257.8594   21673256.0234
       112.2964
 04  9  9 20 58  0.0000000  0  7G19G 3G 8G13G16G23G27
    -68394.12114                  24287587.344

    -61722.44147    -51384.19143  23223110.2274   23223109.3954
       -67.0334
   -831959.21148   -641367.80943  23140727.4064   23140726.7934
      1331.4404
    522615.50449    399427.04347  20332535.8524   20332533.3954
     -1031.2534
   2651621.28547   2044133.05542  24069412.9454   24069411.7304
     -4538.0884
   2000474.07849   1542383.77345  21487607.7734   21487604.0124
     -3491.2104
   -109997.62549    -88964.16846  21672946.3914   21672945.1764
       108.9764
 04  9  9 20 58 15.0000000  0  7G19G 3G 8G13G16G23G27
    -89683.043 3                  24283533.984
      1419.261
    -60592.73047    -50503.89143  23223325.1484   23223324.7704
       -75.3144
   -851889.21548   -656897.64543  23136934.5314   23136934.1254
      1328.6674
    538194.80549    411566.76647  20335500.5314   20335497.9454
     -1038.6204
   2719745.80947   2097217.06642  24082377.5634   24082375.9694
     -4541.6354
   2052935.85249   1583263.04745  21497591.2894   21497586.9184
     -3497.4524
   -111585.56649    -90201.51245  21672644.3674   21672642.8134
       105.8634
 04  9  9 20 58 30.0000000  0  6G 3G 8G13G16G23G27
    -59338.72348    -49526.73443  23223563.8284   23223564.3094
       -83.6014
   -871777.82048   -672395.21143  23133150.0314   23133149.5824
      1325.9074
    553884.65649    423792.62547  20338486.1094   20338483.0784
     -1045.9904
   2787923.07447   2150342.16042  24095350.8834   24095349.6414
     -4545.1514
   2105490.89849   1624215.00046  21507592.1644   21507587.6914
     -3503.6704
   -113127.12949    -91402.70745  21672350.9144   21672348.9264
       102.7714
 04  9  9 20 58 45.0000000  0  6G 3G 8G13G16G23G27
    -57961.07047    -48453.22343  23223826.0634   23223826.8364
       -91.8434
   -891625.68048   -687861.05543  23129372.8754   23129371.7974
      1323.1914
    569684.49649    436104.19546  20341492.9534   20341490.5204
     -1053.3234
   2856152.08646   2203507.56342  24108334.7194   24108333.2304
     -4548.6014
   2158138.46149   1665239.05545  21517610.5634   21517606.3014
     -3509.8374
   -114622.95349    -92568.28545  21672065.8204   21672064.7544
        99.7224
 04  9  9 20 59  0.0000000  0  6G 3G 8G13G16G23G27
    -56458.05547    -47282.02043  23224112.3914   23224112.3284
      -100.2014
   -911431.64548   -703294.22743  23125603.7114   23125603.5354
      1320.3984
    585595.91049    448502.69547  20344520.6884   20344517.7304
     -1060.7614
   2924433.94545   2256714.21542  24121327.7894   24121326.6644
     -4552.1244
   2210879.78949   1706336.18445  21527646.7584   21527642.4494
     -3516.0894
   -116071.73849    -93697.19546  21671790.7034   21671789.2504
        96.5864
 04  9  9 20 59 15.0000000  0  6G 3G 8G13G16G23G27
    -54829.26247    -46012.82043  23224421.8284   23224421.6254
      -108.5864
   -931195.26248   -718694.40643  23121843.2664   23121843.0234
      1317.5744
    601619.19149    460988.37147  20347570.0864   20347567.0044
     -1068.2194
   2992768.48845   2309961.82442  24134331.8524   24134330.3404
     -4555.6364
   2263715.02349   1747506.46145  21537700.9384   21537697.0234
     -3522.3494
   -117473.22349    -94789.25046  21671523.5314   21671522.1884
        93.4324
 04  9  9 20 59 30.0000000  0  6G 3G 8G13G16G23G27
    -53072.19547    -44643.65243  23224756.4064   23224755.3324
      -117.1384
   -950914.44548   -734059.96943  23118090.6644   23118091.2504
      1314.6124
    617756.57449    473562.95347  20350640.4924   20350638.3364
     -1075.8264
   3061157.55546   2363251.98442  24147346.6644   24147344.1914
     -4559.2714
   2316646.15249   1788751.48045  21547773.1484   21547769.5664
     -3528.7424
   -118825.37149    -95842.85546  21671266.3204   21671265.0044
        90.1434
 04  9  9 20 59 45.0000000  0  7G19G 3G 8G13G16G23G27
    -24125.42615                  24259387.695

    -51190.22347    -43177.19943  23225114.4694   23225113.7504
      -125.4654
   -970592.66848   -749393.63343  23114346.1484   23114346.0944
      1311.8824
    634004.50449    486223.68847  20353732.4144   20353730.1884
     -1083.1954
   3129597.20747   2416581.54742  24160369.5704   24160368.4454
     -4562.6434
   2369669.46949   1830068.32045  21557863.4304   21557859.8754
     -3534.8884
   -120131.82449    -96860.85945  21671017.7504   21671016.6214
        87.0974
 04  9  9 21  0  0.0000000  0  7G19G 3G 8G13G16G23G27
    -45124.703 5                  24255391.898
      1399.952
    -49180.53547    -41611.20743  23225496.4224   23225497.1884
      -133.9794
   -990227.11348   -764693.14843  23110609.1804   23110609.3754
      1308.9634
    650365.86349    498972.79347  20356845.9844   20356843.3014
     -1090.7574
   3198089.76246   2469952.35542  24173402.6334   24173402.5824
     -4566.1704
   2422787.53149   1871458.98445  21567971.9304   21567967.7074
     -3541.2044
   -121389.87549    -97841.14546  21670778.9384   21670776.8634
        83.8704
 04  9  9 21  0 15.0000000  0  7G19G 3G 8G13G16G23G27
    -66077.937 5                  24251403.750
      1396.882
    -47041.12947    -39944.10543  23225903.3594   23225903.8204
      -142.6274
  -1009816.21548   -779957.33643  23106881.2814   23106881.6214
      1305.9404
    666842.58249    511811.78947  20359981.3524   20359978.4884
     -1098.4484
   3266636.65246   2523365.45742  24186447.5704   24186446.7704
     -4569.7934
   2476002.02749   1912924.80945  21578098.0634   21578093.9534
     -3547.6334
   -122597.82449    -98782.40246  21670548.6094   21670546.8914
        80.5304
 04  9  9 21  0 30.0010000  0  7G19G 3G 8G13G16G23G27
    -86987.687 4                  24247423.974
      1393.983
    -44772.89547    -38176.65643  23226335.9274   23226335.4744
      -151.2164
  -1029362.39148   -795188.11743  23103162.4274   23103162.5014
      1303.0784
    683434.39549    524740.47347  20363138.7944   20363136.2714
     -1106.1214
   3335240.77746   2576823.22342  24199502.0524   24199501.6494
     -4573.6084
   2529315.09449   1954467.44545  21588242.9194   21588238.8804
     -3554.2044
   -123757.17249    -99685.77746  21670328.2314   21670326.2864
        77.2904
 04  9  9 21  0 45.0010000  0  7G19G 3G 8G13G16G23G27
   -107851.594 4                  24243454.114
      1390.927
    -42376.66447    -36309.46143  23226791.3024   23226791.1304
      -159.7494
  -1048863.98848   -810384.12143  23099451.1614   23099451.4704
      1300.1074
    700138.48049    537756.64547  20366317.4894   20366314.5324
     -1113.6064
   3403891.89146   2630317.54342  24212565.3494   24212564.9114
     -4576.7414
   2582718.66049   1996080.59045  21598405.4504   21598401.8494
     -3560.2384
   -124868.48449   -100551.72746  21670116.4664   21670114.7284
        74.0884
 04  9  9 21  1  0.0010000  0  7G19G 3G 8G13G16G23G27
   -128669.70744   -181089.14551  24239491.7394   24239491.7474
      1387.8744
    -39851.30947    -34341.64843  23227271.9274   23227271.7004
      -168.3574
  -1068321.43048   -825545.72343  23095748.2004   23095747.9274
      1297.1634
    716956.90249    550861.91447  20369517.7474   20369515.1264
     -1121.2284
   3472595.10546   2683852.46142  24225639.0054   24225639.6574
     -4580.2144
   2636217.16449   2037767.69545  21608586.1384   21608582.2714
     -3566.5674
   -125931.04349   -101379.68446  21669914.5364   21669913.0564
        70.8374
 04  9  9 21  1 15.0010000  0  7G19G 3G 8G13G16G23G27
   -149440.76644   -197274.35942  24235539.8724   24235539.7004
      1384.7374
    -37195.61747    -32272.29743  23227777.0524   23227777.2824
      -177.0464
  -1087733.72748   -840672.13743  23092054.4894   23092054.7634
      1294.1534
    733890.79749    564057.14547  20372740.1924   20372737.5324
     -1128.9264
   3541350.94945   2737428.40242  24238723.6224   24238723.2674
     -4583.7234
   2689811.33649   2079529.36745  21618784.6064   21618780.8174
     -3572.9454
   -126944.00849   -102168.99246  21669721.4194   21669720.2714
        67.5314
 04  9  9 21  1 30.0010000  0  7G19G 3G 8G13G16G23G27
   -170165.62545   -213423.57442  24231597.0364   24231594.9074
      1381.6574
    -34410.48447    -30102.03543  23228306.9974   23228307.1494
      -185.6764
  -1107101.94948   -855764.22744  23088368.9274   23088369.3964
      1291.2154
    750939.03149    577341.48847  20375984.4114   20375982.0364
     -1136.5494
   3610158.12946   2791044.36342  24251816.9584   24251817.0714
     -4587.1454
   2743499.91049   2121364.60545  21629001.2864   21628997.1734
     -3579.2384
   -127908.44549   -102920.49246  21669538.0994   21669536.4354
        64.2964
 04  9  9 21  1 45.0010000  0  7G19G 3G 8G13G16G23G27
   -190845.79346   -229537.96142  24227661.8104   24227659.2864
      1378.6784
    -31497.68047    -27832.30543  23228861.8564   23228861.3104
      -194.1874
  -1126428.06648   -870823.51643  23084691.4664   23084691.3494
      1288.4084
    768099.89549    590713.58647  20379250.1854   20379247.1964
     -1144.0584
   3679014.35244   2844698.47741  24264918.5134   24264919.9624
     -4590.4154
   2797280.85949   2163271.80945  21639235.6464   21639231.4384
     -3585.3974
   -128826.31649   -103635.70746  21669363.6384   21669361.9154
        61.1914
 04  9  9 21  2  0.0010000  0  7G19G 3G 8G13G16G23G27
   -211480.80145   -245617.13742  24223734.1304   24223732.9234
      1375.6674
    -28456.89147    -25462.84443  23229440.2634   23229440.5284
      -202.7194
  -1145711.94948   -885849.87543  23081021.9114   23081021.2284
      1285.5924
    785373.64549    604173.65247  20382537.3644   20382534.2594
     -1151.5834
   3747919.34445   2898390.65642  24278031.3414   24278031.4504
     -4593.6664
   2851154.17249   2205251.00045  21649487.3804   21649482.9894
     -3591.5544
   -129697.63749   -104314.64146  21669197.3494   21669195.7434
        58.0884
 04  9  9 21  2 15.0010000  0  7G19G 3G 8G13G16G23G27
   -232070.68745   -261661.16842  24219815.3174   24219815.1534
      1372.6594
    -25288.31647    -22993.80943  23230043.1224   23230042.9194
      -211.2384
  -1164954.00848   -900843.67243  23077359.5214   23077359.3064
      1282.8044
    802759.84049    617721.34047  20385845.3964   20385842.7314
     -1159.0804
   3816872.22345   2952120.14542  24291152.6854   24291152.8884
     -4596.8594
   2905119.34049   2247301.76245  21659756.4354   21659752.6654
     -3597.6784
   -130522.89549   -104957.69146  21669040.2474   21669039.0754
        55.0174
 04  9  9 21  2 30.0010000  0  7G19G 3G 8G13G16G23G27
   -252615.55145   -277670.09042  24215905.2714   24215905.9114
      1369.6584
    -21992.07448    -20425.32843  23230670.6774   23230670.1964
      -219.7494
  -1184154.46948   -915805.03143  23073706.3644   23073706.3414
      1280.0314
    820258.26249    631356.46547  20389175.5444   20389172.8494
     -1166.5614
   3885872.39545   3005886.46142  24304283.5364   24304283.9194
     -4600.0114
   2959175.84048   2289423.68045  21670042.5364   21670039.4274
     -3603.7674
   -131302.46149   -105565.12946  21668892.2004   21668890.7904
        51.9714
 04  9  9 21  2 45.0010000  0  7G19G 3G 8G13G16G23G27
   -273114.09445   -293642.92242  24212005.1614   24212004.6464
      1366.5704
    -18567.10248    -17756.51643  23231322.7394   23231321.5564
      -228.3324
  -1203312.28148   -930733.18444  23070060.6304   23070061.1884
      1277.1884
    837870.27049    645080.10947  20392526.7784   20392524.2864
     -1174.1344
   3954920.43446   3059690.09442  24317424.0754   24317423.5324
     -4603.2034
   3013324.49649   2331617.41045  21680347.2164   21680343.0634
     -3609.9104
   -132035.32849   -106136.18446  21668752.9664   21668751.2554
        48.8584
 04  9  9 21  3  0.0010000  0  7G19G 3G 8G13G16G23G27
   -293563.87145   -309577.74642  24208113.9424   24208113.0634
      1363.3184
    -15011.09047    -14985.58643  23231999.1464   23231998.7284
      -237.0674
  -1222425.90648   -945626.87943  23066423.2244   23066423.6814
      1274.2424
    855597.50449    658893.54347  20395900.4584   20395897.6694
     -1181.8164
   4024018.11746   3113532.42642  24330572.2474   24330572.5914
     -4606.5124
   3067567.26649   2373884.48445  21690669.4034   21690665.2944
     -3616.1854
   -132719.60949   -106669.38346  21668622.3644   21668621.2244
        45.6194
 04  9  9 21  3 15.0010000  0  7G19G 3G 8G13G16G23G27
   -313967.24245   -325476.43742  24204231.3804   24204230.6144
      1360.2254
    -11326.53147    -12114.48443  23232699.8964   23232699.9544
      -245.6374
  -1241497.73448   -960488.00843  23062794.3024   23062793.4744
      1271.4554
    873437.39549    672794.74247  20399295.0994   20399292.5914
     -1189.3264
   4093162.34846   3167410.99642  24343730.0214   24343729.9624
     -4609.6154
   3121901.30549   2416222.67245  21701008.6694   21701004.9704
     -3622.2694
   -133358.08249   -107166.88346  21668500.7244   21668499.5324
        42.5654
 04  9  9 21  3 30.0010000  0  7G19G 3G 8G13G16G23G27
   -334321.31245   -341336.67242  24200356.4974   24200356.5214
      1356.9384
     -7510.66447     -9141.06243  23233426.4354   23233426.0634
      -254.3914
  -1260525.07448   -975314.47743  23059173.2474   23059172.2554
      1268.4894
    891392.84449    686786.00847  20402711.9354   20402709.4784
     -1197.0304
   4162355.30946   3221327.54742  24356897.0754   24356896.8214
     -4612.8644
   3176329.03549   2458633.86745  21711365.9664   21711362.3334
     -3628.5154
   -133948.09049   -107626.62146  21668388.9114   21668387.2244
        39.3344
 04  9  9 21  3 45.0010000  0  7G19G 3G 8G13G16G23G27
   -354628.95745   -357160.77342  24196493.0834   24196491.2784
      1353.8434
     -3566.56647     -6067.73443  23234176.9744   23234176.5564
      -262.9404
  -1279511.13348   -990108.78543  23055560.6064   23055559.4074
      1265.7374
    909460.63749    700864.81347  20406150.1064   20406147.2594
     -1204.5204
   4231593.49246   3275279.31342  24370072.0364   24370072.4464
     -4615.8794
   3230847.13749   2501115.47345  21721740.2474   21721736.6464
     -3634.5404
   -134492.95749   -108051.17646  21668285.0604   21668283.5524
        36.3244
 04  9  9 21  4  0.0010000  0  7G19G 3G 8G13G16G23G27
   -374889.03545   -372947.76642  24192639.1224   24192636.9194
      1350.6724
       506.72348     -2893.73843  23234951.1304   23234951.5134
      -271.5534
  -1298455.38748  -1004870.52043  23051955.5524   23051954.8374
      1262.9504
    927641.57449    715031.77747  20409609.9504   20409606.8564
     -1212.0624
   4300877.28145   3329266.62942  24383256.9034   24383256.6494
     -4618.9194
   3285456.16849   2543667.94545  21732132.5444   21732128.7904
     -3640.6024
   -134992.03549   -108440.05546  21668190.0054   21668188.9314
        33.2724
 04  9  9 21  4 15.0010000  0  7G19G 3G 8G13G16G23G27
   -395098.64545   -388695.48442  24188793.0054   24188792.8024
      1347.3074
      4712.11347       383.19543  23235752.0214   23235751.4974
      -280.3594
  -1317355.17248  -1019597.57844  23048359.1924   23048359.0134
      1259.9864
    945938.35549    729289.00447  20413091.6224   20413089.0014
     -1219.7854
   4370208.89146   3383291.22742  24396450.3804   24396450.1224
     -4622.1074
   3340158.60949   2586293.19945  21742541.7084   21742537.9034
     -3646.8294
   -135442.79349   -108791.27346  21668103.9664   21668103.1534
        30.0514
 04  9  9 21  4 30.0010000  0  7G19G 3G 8G13G16G23G27
   -415257.65645   -404403.75042  24184957.3644   24184955.7984
      1343.9344
      9049.50047      3762.97342  23236577.7864   23236576.9234
      -289.1594
  -1336210.67248  -1034290.14544  23044770.7084   23044771.2394
      1257.0334
    964350.85949    743636.41047  20416595.4274   20416592.8924
     -1227.5004
   4439587.84046   3437352.73842  24409652.2394   24409652.0914
     -4625.2634
   3394954.16049   2628991.00445  21752969.1774   21752964.8884
     -3653.0374
   -135845.39849   -109104.98846  21668027.8964   21668025.9664
        26.8404
 04  9  9 21  4 45.0010000  0  7G19G 3G 8G13G16G23G27
   -435363.37144   -420070.44142  24181128.1534   24181129.7904
      1340.3814
     13521.42648      7247.60943  23237428.7084   23237427.9354
      -298.1284
  -1355019.26648  -1048946.16044  23041191.8724   23041191.7394
      1253.9064
    982881.61349    758075.96147  20420121.7474   20420118.7204
     -1235.3844
   4509016.18446   3491452.69142  24422863.9584   24422864.0634
     -4628.5564
   3449845.00449   2671763.06345  21763414.6924   21763410.4974
     -3659.3904
   -136197.50849   -109379.34846  21667960.7244   21667958.8024
        23.4744
 04  9  9 21  5  0.0010000  0  7G19G 3G 8G13G16G23G27
                                  24177313.0674   24177313.3334
      1336.8284
     18126.15248     10835.70743  23238304.8414   23238304.6884
      -306.9824
  -1373783.05548  -1063567.25844  23037621.1384   23037621.1534
      1250.9194
   1001528.83649    772606.25847  20423670.2164   20423667.3644
     -1243.1484
   4578491.67646   3545589.39142  24436085.1694   24436084.4974
     -4631.6994
   3504829.15649   2714607.82045  21773877.5914   21773873.9154
     -3665.6104
   -136501.10949   -109615.91446  21667902.8884   21667901.2044
        20.2404
 04  9  9 21  5 15.0010000  0  7G19G 3G 8G13G16G23G27
   -475419.54344   -451282.87541  24173506.5444   24173506.5994
      1333.4794
     22863.57047     14527.21143  23239205.8414   23239206.7514
      -315.8284
  -1392502.48048  -1078153.79343  23034058.3494   23034058.0444
      1247.9624
   1020292.18449    787227.05147  20427240.6854   20427237.9034
     -1250.8904
   4648013.56646   3599762.23842  24449314.7944   24449314.4584
     -4634.7934
   3559906.11748   2757524.89545  21784358.2944   21784354.2674
     -3671.7974
   -136756.59449   -109814.97746  21667853.9664   21667852.2984
        17.0324
 04  9  9 21  5 30.0010000  0  7G19G 3G 8G13G16G23G27
   -495364.94144   -466824.71541  24169711.9664   24169709.9784
      1329.6934
     27738.52047     18325.89543  23240133.2784   23240133.6694
      -324.9974
  -1411172.77348  -1092702.03544  23030506.1774   23030505.4894
      1244.6864
   1039176.55549    801942.13746  20430834.0914   20430831.8064
     -1258.9584
   4717586.29746   3653974.72742  24462553.8804   24462553.7864
     -4638.1824
   3615080.54349   2800517.93045  21794858.0444   21794853.4314
     -3678.2954
   -136959.28549   -109972.91446  21667815.5284   21667813.7784
        13.5134
 04  9  9 21  5 45.0010000  0  7G19G 3G 8G13G16G23G27
   -515256.50445   -482324.61741  24165927.1854   24165922.9854
      1326.1044
     32747.79348     22229.23443  23241087.0134   23241086.8294
      -333.9524
  -1429797.09048  -1107214.46543  23026961.7244   23026961.0674
      1241.6214
   1058178.65649    816748.97347  20434450.1924   20434447.6384
     -1266.8074
   4787206.09446   3708223.87542  24475802.8564   24475802.0014
     -4641.3204
   3670348.72749   2843584.02745  21805375.2314   21805371.2984
     -3684.5464
   -137112.76649   -110092.49646  21667786.4974   21667784.8804
        10.2324
 04  9  9 21  6  0.0010000  0  7G19G 3G 8G13G16G23G27
   -535094.12144   -497782.43741  24162150.6304   24162148.0634
      1322.5084
     37891.47348     26237.29343  23242065.6464   23242065.1574
      -342.9124
  -1448375.83648  -1121691.38343  23023425.9894   23023425.8644
      1238.5834
   1077298.22349    831647.33647  20438088.8494   20438086.0874
     -1274.6384
   4856872.48046   3762509.30142  24489059.3724   24489059.1814
     -4644.4264
   3725710.47349   2886723.02345  21815910.0834   21815906.3414
     -3690.7834
   -137217.05549   -110173.75046  21667766.6694   21667764.9704
         6.9534
 04  9  9 21  6 15.0010000  0  7G19G 3G 8G13G16G23G27
   -554875.27744   -513196.30541  24158387.6694   24158384.4274
      1318.7444
     43171.76648     30351.82443  23243070.2474   23243070.5794
      -352.0204
  -1466906.79348  -1136131.05143  23019900.0604   23019899.9234
      1235.3974
   1096537.59049    846639.03947  20441749.9354   20441746.7284
     -1282.6244
   4926587.12146   3816832.38342  24502325.8644   24502325.0754
     -4647.6434
   3781167.93449   2929936.58645  21826462.9194   21826459.3104
     -3697.1644
   -137270.04749   -110215.03146  21667756.4034   21667754.8684
         3.5334
 04  9  9 21  6 30.0010000  0  6G19G 3G 8G13G23G27
   -574597.95345   -528564.52041  24154634.4504   24154632.4234
      1314.8454
     48590.73847     34574.42643  23244101.4744   23244101.3534
      -361.2654
  -1485388.05948  -1150532.01243  23016383.1854   23016382.4624
      1232.0844
   1115898.68049    861725.60547  20445433.9744   20445431.0634
     -1290.7394
   3836722.62549   2973225.93045  21837034.7554   21837031.1694
     -3703.6464
   -137270.06649   -110215.03946  21667756.7084   21667754.8764
         0.0014
 04  9  9 21  6 45.0010000  0  6G19G 3G 8G13G23G27
   -594262.21946   -543887.27742  24150892.5444   24150890.8844
      1310.9514
     54147.96947     38904.73443  23245159.1854   23245158.4274
      -370.4824
  -1503820.27747  -1164894.76244  23012875.3884   23012874.9704
      1228.8154
   1135380.94549    876906.59446  20449141.1384   20449138.3884
     -1298.8184
   3892373.75448   3016590.40245  21847625.4194   21847621.0994
     -3710.0754
   -137217.80149   -110174.30546  21667766.6614   21667764.9544
        -3.4844
 04  9  9 21  7  0.0010000  0  6G19G 3G 8G13G23G27
   -613862.93446   -559160.52042  24147162.5914   24147160.4814
      1306.7144
     59848.50448     43346.71943  23246244.5284   23246244.2044
      -380.0364
  -1522198.55148  -1179215.44943  23009377.7864   23009377.9464
      1225.2184
   1154989.36349    892185.87546  20452872.8334   20452870.1774
     -1307.2284
   3948126.03149   3060033.71545  21858234.1464   21858230.2594
     -3716.8184
   -137108.34849   -110089.00446  21667786.9814   21667785.6734
        -7.2974
 04  9  9 21  7 15.0010000  0  6G19G 3G 8G13G23G27
   -633403.33245   -574386.75841  24143444.0134   24143441.0094
      1302.6934
     65688.81348     47897.61343  23247355.5914   23247355.9074
      -389.3544
  -1540526.57448  -1193496.99243  23005890.5754   23005889.6064
      1221.8684
   1174720.34449    907560.67246  20456627.2784   20456624.6494
     -1315.3994
   4003975.73048   3103552.92245  21868862.4744   21868858.4034
     -3723.3134
   -136945.37949   -109962.01246  21667818.2314   21667816.6814
       -10.8654
 04  9  9 21  7 30.0010000  0  6G19G 3G 8G13G23G27
   -652879.96145   -589563.26641  24139737.7004   24139734.5444
      1298.4424
     71672.51648     52560.25843  23248494.4354   23248493.8334
      -398.9144
  -1558801.02348  -1207736.80543  23002412.7084   23002412.1614
      1218.2974
   1194577.35249    923033.65646  20460405.9504   20460403.2784
     -1323.8014
   4059926.16049   3147150.64845  21879509.5054   21879505.5564
     -3730.0294
   -136725.55149   -109790.70346  21667859.7864   21667858.6854
       -14.6554
 04  9  9 21  7 45.0010000  0  6G19G 3G 8G13G23G27
   -672289.91045   -604687.85241  24136043.9974   24136040.4974
      1293.9974
     77802.12948     57336.59043  23249660.8884   23249660.0564
      -408.6414
  -1577019.61348  -1221933.08244  22998946.1224   22998945.4744
      1214.5734
   1214562.88749    938606.80547  20464209.1064   20464206.1384
     -1332.3694
   4115979.42249   3190828.49245  21890176.2164   21890172.0014
     -3736.8844
   -136446.70349   -109573.40646  21667913.0754   21667911.7284
       -18.5904
 04  9  9 21  8  0.0010000  0  6G19G 3G 8G13G23G27
   -691629.81645   -619757.82841  24132363.6854   24132361.0014
      1289.3274
     84080.91448     62229.20343  23250854.9744   23250854.9624
      -418.5864
  -1595179.18448  -1236083.35943  22995490.1224   22995489.8214
      1210.6384
   1234680.07849    954282.53946  20468037.5674   20468034.6734
     -1341.1464
   4172138.56649   3234588.85245  21900862.7784   21900858.2594
     -3743.9434
   -136105.62149   -109307.61746  21667977.9194   21667976.5794
       -22.7394
 04  9  9 21  8 15.0010000  0  6G19G 3G 8G13G23G27
   -710900.28546   -634773.71142  24128697.7634   24128696.2124
      1284.6984
     90507.86348     67237.21543  23252078.5914   23252078.1614
      -428.4634
  -1613280.79747  -1250188.46944  22992045.0994   22992044.6924
      1206.7744
   1254927.88349    970060.05147  20471890.0674   20471887.4744
     -1349.8544
   4228402.23848   3278430.65245  21911569.6064   21911565.0364
     -3750.9114
   -135703.56649   -108994.31646  21668054.4424   21668053.1494
       -26.8044
 04  9  9 21  8 30.0010000  0  6G19G 3G 8G13G23G27
   -730098.55946   -649733.32842  24125044.3104   24125042.9154
      1279.8854
     97085.67648     72362.79743  23253330.2394   23253330.2594
      -438.5214
  -1631321.88347  -1264246.43043  22988612.5364   22988611.1264
      1202.7394
   1275308.92649    985941.37547  20475768.6224   20475766.1884
     -1358.7364
   4284772.88349   3322355.80145  21922296.4424   21922292.7474
     -3758.0434
   -135237.94549   -108631.48846  21668142.9504   21668142.0174
       -31.0414
 04  9  9 21  8 45.0010000  0  6G19G 3G 8G13G23G27
   -749225.50046   -664637.34441  24121403.4744   24121401.3644
      1275.1294
    103813.44948     77605.24243  23254609.9034   23254609.9544
      -448.5184
  -1649303.61748  -1278258.14144  22985190.6304   22985189.8764
      1198.7824
   1295821.99649   1001925.58647  20479672.0444   20479669.0284
     -1367.5384
   4341249.15249   3366363.23045  21933043.5754   21933040.0364
     -3765.0854
   -134710.16449   -108220.21546  21668243.3024   21668241.8684
       -35.1854
 04  9  9 21  9  0.0010000  0  6G19G 3G 8G13G23G27
   -768280.39146   -679485.24241  24117777.0674   24117774.5874
      1270.3264
    110691.48047     82964.77343  23255918.6224   23255919.2394
      -458.5354
  -1667225.53548  -1292223.23444  22981780.0134   22981780.0014
      1194.7954
   1316467.51249   1018013.00446  20483600.8804   20483598.0214
     -1376.3684
   4397831.27049   3410453.17245  21943810.1924   21943806.6924
     -3772.1414
   -134119.86749   -107760.23046  21668355.4194   21668354.0604
       -39.3534
 04  9  9 21  9 15.0010000  0  6G19G 3G 8G13G23G27
   -787259.32045   -694273.95341  24114165.7244   24114162.6384
      1265.2624
    117723.77347     88444.50443  23257257.4354   23257257.0604
      -468.8204
  -1685084.37948  -1306139.19944  22978382.0604   22978381.8724
      1190.5904
   1337249.25449   1034206.56346  20487555.5214   20487552.9664
     -1385.4494
   4454522.73048   3454628.32445  21954598.3414   21954593.9704
     -3779.4314
   -133463.38749   -107248.68446  21668480.3644   21668479.1224
       -43.7654
 04  9  9 21  9 30.0010000  0  6G19G 3G 8G13G23G27
   -806164.34845   -709005.02041  24110566.7944   24110565.8684
      1260.3354
    124907.90648     94042.55143  23258624.1064   23258623.7044
      -478.9424
  -1702882.30548  -1320007.68743  22974995.0134   22974993.9704
      1186.5284
   1358164.88749   1050504.45746  20491535.4424   20491532.7944
     -1394.3764
   4511320.73849   3498886.50045  21965407.4814   21965402.9784
     -3786.5344
   -132743.31649   -106687.57846  21668617.6464   21668616.0324
       -48.0054
 04  9  9 21  9 45.0010000  0  6G19G 3G 8G13G23G27
   -824995.18746   -723678.37542  24106984.6464   24106982.3174
      1255.3894
    132244.13748     99759.08243  23260020.4114   23260019.8104
      -489.0824
  -1720619.41048  -1333828.78144  22971619.6144   22971618.7944
      1182.4744
   1379214.45749   1066906.72347  20495541.4814   20495538.3644
     -1403.3054
   4568225.39149   3543227.76245  21976235.5524   21976232.2314
     -3793.6434
   -131959.75049   -106076.99646  21668766.9424   21668764.9424
       -52.2384
 04  9  9 21 10  0.0010000  0  6G19G 3G 8G13G23G27
   -843749.59446   -738292.19141  24103415.8804   24103412.9894
      1250.2944
    139734.38347    105595.68043  23261445.4114   23261445.2204
      -499.3504
  -1738293.97348  -1347601.13744  22968256.4354   22968255.1734
      1178.3044
   1400399.84849   1083414.82047  20499572.8104   20499570.2084
     -1412.3594
   4625238.15649   3587653.27045  21987084.7084   21987081.1184
     -3800.8514
   -131110.73049   -105415.41446  21668928.0914   21668926.9034
       -56.6014
 04  9  9 21 10 15.0010000  0  6G19G 3G 8G13G23G27
   -862426.95346   -752845.95342  24099861.9894   24099859.1344
      1245.1574
    147379.20348    111552.71942  23262900.4584   23262900.1924
      -509.6554
  -1755905.50048  -1361324.39143  22964905.0754   22964904.0484
      1174.1024
   1421721.48449   1100029.07447  20503629.8174   20503627.2634
     -1421.4424
   4682359.30949   3632163.21145  21997954.0134   21997950.8804
     -3808.0774
   -130196.03149   -104702.65646  21669102.4114   21669100.7314
       -60.9804
 04  9  9 21 10 30.0010000  0  6G19G 3G 8G13G23G27
   -881028.30146   -767340.50442  24096322.3724   24096320.2554
      1240.0904
    155177.50048    117629.32843  23264384.1304   23264383.5244
      -519.8864
  -1773455.13348  -1374999.39144  22961564.9974   22961564.0014
      1169.9764
   1443178.03949   1116748.47347  20507713.2944   20507710.3804
     -1430.4374
   4739587.42249   3676756.52045  22008845.0994   22008840.8414
     -3815.2084
   -129216.94949   -103939.71946  21669288.4424   21669286.7674
       -65.2724
 04  9  9 21 10 45.0010000  0  6G19G 3G 8G13G23G27
   -899552.23445   -781774.63342  24092796.1464   24092795.3844
      1234.9294
    163130.30948    123826.34442  23265897.5364   23265896.6304
      -530.1874
  -1790942.26248  -1388625.71144  22958237.5604   22958236.4274
      1165.8094
   1464770.77349   1133573.98046  20511821.8724   20511819.3764
     -1439.5164
   4796923.39149   3721433.87545  22019755.4034   22019751.3174
     -3822.3984
   -128172.64549   -103125.97346  21669487.4504   21669485.7984
       -69.6204
 04  9  9 21 11  0.0010000  0  6G19G 3G 8G13G23G27
   -918002.05545   -796151.08241  24089285.2084   24089284.1304
      1229.9884
    171233.99247    130140.92642  23267439.5754   23267439.2984
      -540.2464
  -1808370.39148  -1402206.04744  22954921.2084   22954920.8104
      1161.8754
   1486495.80149   1150502.57446  20515956.1144   20515953.3454
     -1448.3354
   4854363.25449   3766192.18045  22030685.8414   22030681.4464
     -3829.3244
   -127066.85949   -102264.32046  21669697.7164   21669695.9784
       -73.7194
 04  9  9 21 11 15.0010000  0  6G19G 3G 8G13G23G27
   -936374.93745   -810467.53541  24085789.3254   24085787.0954
      1224.8594
    179491.48448    136575.35943  23269011.4424   23269011.3764
      -550.4994
  -1825736.87548  -1415738.34444  22951616.4584   22951615.4854
      1157.7664
   1508355.87549   1167536.39547  20520116.2084   20520113.2784
     -1457.3384
   4911909.56349   3811033.43445  22041636.8254   22041632.4274
     -3836.4214
   -125897.02749   -101352.74246  21669920.6304   21669918.8924
       -77.9894
 04  9  9 21 11 30.0010000  0  6G19G 3G 8G13G23G27
   -954674.12545   -824726.55942  24082306.3254   24082304.4704
      1219.9464
    187899.19548    143126.83243  23270611.7004   23270610.6224
      -560.5144
  -1843045.54348  -1429225.57043  22948322.1464   22948321.6884
      1153.9114
   1530347.66049   1184672.85246  20524301.0214   20524298.1964
     -1466.1194
   4969558.43449   3855954.60945  22052607.5524   22052602.3334
     -3843.2584
   -124666.82449   -100394.13346  21670154.2394   21670152.8964
       -82.0144
 04  9  9 21 11 45.0010000  0  6G19G 3G 8G13G23G27
   -972896.09045   -838925.46141  24078839.6924   24078836.7124
      1214.7984
    196460.50447    149798.00443  23272240.2164   23272239.2474
      -570.7544
  -1860292.98448  -1442665.11343  22945040.0604   22945039.9274
      1149.8294
   1552474.35949   1201914.43846  20528511.6384   20528508.8174
     -1475.1134
   5027312.90249   3900958.08245  22063597.4114   22063593.5484
     -3850.2984
   -123372.94149    -99385.89846  21670400.9504   21670399.2354
       -86.2594
 04  9  9 21 12  0.0010000  0  6G19G 3G 8G13G23G27
   -991042.00045   -853065.05541  24075385.9974   24075384.1184
      1209.7274
    205174.02748    156587.79342  23273897.7714   23273897.0954
      -580.9024
  -1877480.76248  -1456058.16044  22941770.0524   22941769.3964
      1145.8524
   1574734.30949   1219259.85247  20532747.6534   20532744.6264
     -1483.9974
   5085171.39549   3946042.58645  22074607.0444   22074603.7354
     -3857.2334
   -122017.26649    -98329.51246  21670658.5914   21670657.2744
       -90.3784
 04  9  9 21 12 15.0010000  0  6G19G 3G 8G13G23G27
  -1009111.13745   -867144.84842  24071948.5364   24071946.2004
      1204.6094
    214040.28947    163496.59442  23275585.4194   23275584.2784
      -591.0844
  -1894608.62548  -1469404.53944  22938510.5754   22938509.7004
      1141.8584
   1597128.00849   1236709.48847  20537008.8564   20537005.8964
     -1492.9134
   5143134.11749   3991208.31645  22085637.1224   22085633.5714
     -3864.1824
   -120599.23449    -97224.55146  21670928.7474   21670927.1144
       -94.5354
 04  9  9 21 12 30.0010000  0  6G19G 3G 8G13G23G27
  -1027101.72346   -881163.42642  24068524.6064   24068522.6224
      1199.3724
    223060.84848    170525.59442  23277302.1924   23277301.6344
      -601.3714
  -1911674.87148  -1482702.88344  22935263.0524   22935262.6574
      1137.7504
   1619656.94949   1254264.50447  20541295.9584   20541293.2124
     -1501.9294
   5201202.13749   4036456.10545  22096687.4114   22096682.9934
     -3871.2014
   -119117.48849    -96069.93046  21671210.4504   21671208.8764
       -98.7834
 04  9  9 21 12 45.0010000  0  6G19G 3G 8G13G23G27
  -1045013.18046   -895120.35542  24065116.0674   24065114.9894
      1194.0974
    232236.10247    177675.17242  23279047.7864   23279048.0834
      -611.6844
  -1928679.32048  -1495953.07044  22932027.4114   22932026.7474
      1133.6304
   1642321.51249   1271925.19947  20545608.7164   20545606.6184
     -1510.9714
   5259375.87549   4081786.26645  22107757.3724   22107753.3804
     -3878.2494
   -117571.75049    -94865.44546  21671504.3494   21671503.3764
      -103.0494
 04  9  9 21 13  0.0010000  0  6G19G 3G 8G13G23G27
  -1062845.05146   -909015.25842  24061722.5134   24061721.1734
      1188.7914
    241566.34047    184945.53942  23280823.3724   23280822.3804
      -622.0164
  -1945621.91848  -1509155.06644  22928802.7944   22928802.5214
      1129.5074
   1665121.88349   1289691.72347  20549947.6694   20549944.8414
     -1520.0254
   5317655.14548   4127198.65245  22118847.6534   22118844.1184
     -3885.2854
   -115962.02349    -93611.10246  21671810.8804   21671809.5284
      -107.3154
 04  9  9 21 13 15.0010000  0  6G19G 3G 8G13G23G27
  -1080599.46147   -922849.83242  24058343.9664   24058342.3764
      1183.6274
    251049.16848    192334.76242  23282628.1534   23282626.9234
      -632.1894
  -1962505.41848  -1522311.00844  22925590.0914   22925589.6034
      1125.5674
   1688055.58249   1307562.13746  20554311.8174   20554308.8174
     -1528.9134
   5376037.15649   4172691.10244  22129957.0604   22129953.4504
     -3892.1344
   -114291.00449    -92309.00446  21672128.7714   21672127.5134
      -111.4014
 04  9  9 21 13 30.0010000  0  6G19G 3G 8G13G23G27
  -1098275.00846   -936622.93042  24054980.2864   24054979.0054
      1178.3704
    260685.76247    199843.80542  23284461.6384   23284460.6814
      -642.4404
  -1979328.49648  -1535419.85544  22922388.8724   22922388.3724
      1121.5394
   1711123.78149   1325537.35947  20558701.3644   20558698.8134
     -1537.8804
   5434522.89848   4218264.39145  22141087.1304   22141083.3844
     -3899.0494
   -112557.41849    -90958.14546  21672458.6534   21672456.9424
      -115.5724
 04  9  9 21 13 45.0010000  0  6G19G 3G 8G13G23G27
  -1115869.48845   -950332.87942  24051631.7714   24051630.5014
      1172.9654
    270478.33647    207474.40642  23286324.8174   23286324.7474
      -652.8384
  -1996089.25048  -1548480.16844  22919198.9354   22919198.4504
      1117.3844
   1734328.31649   1343618.81647  20563117.0674   20563114.5994
     -1546.9694
   5493114.22748   4263919.94945  22152236.5054   22152233.0174
     -3906.0894
   -110759.59849    -89557.23446  21672800.9354   21672799.5994
      -119.8554
 04  9  9 21 14  0.0010000  0  6G19G 3G 8G13G23G27
  -1133384.42645   -963980.81242  24048299.6304   24048297.2284
      1167.6634
    280425.09047    215225.15642  23288217.2554   23288217.6184
      -663.1174
  -2012789.52348  -1561493.33644  22916020.9354   22916020.3104
      1113.3524
   1757667.59849   1361805.26247  20567558.3964   20567555.9034
     -1555.9524
   5551809.05148   4309656.12945  22163405.7394   22163402.3534
     -3912.9884
   -108899.33249    -88107.67246  21673155.0674   21673152.9744
      -124.0184
 04  9  9 21 14 15.0010000  0  6G19G 3G 8G13G23G27
  -1150817.33645   -977564.85242  24044981.9424   24044980.3644
      1162.1944
    290528.21147    223097.73442  23290140.5834   23290139.1964
      -673.5414
  -2029427.23448  -1574457.76644  22912855.0134   22912854.4894
      1109.1814
   1781143.78949   1380098.40246  20572025.7864   20572022.9034
     -1565.0794
   5610609.39548   4355474.55545  22174595.0994   22174591.6614
     -3920.0234
   -106974.44949    -86607.75446  21673521.4274   21673519.4354
      -128.3264
 04  9  9 21 14 30.0010000  0  6G19G 3G 8G13G23G27
  -1168167.95745   -991084.77343  24041680.6614   24041679.1924
      1156.7084
    300787.82847    231092.25442  23292092.3104   23292091.2474
      -683.9744
  -2046002.38348  -1587373.43744  22909700.9354   22909699.8924
      1105.0104
   1804756.77349   1398498.13347  20576519.3964   20576516.8764
     -1574.1994
   5669514.92648   4401374.93845  22185804.1304   22185800.4704
     -3927.0354
   -104985.28549    -85057.74646  21673899.6384   21673897.9464
      -132.6114
 04  9  9 21 14 45.0010000  0  6G19G 3G 8G13G23G27
  -1185437.92246  -1004541.82842  24038394.2634   24038392.2354
      1151.3314
    311201.96147    239207.21142  23294074.0364   23294073.3064
      -694.2764
  -2062516.99248  -1600241.94944  22906558.0914   22906557.4894
      1100.9744
   1828504.68849   1417003.00047  20581038.4664   20581035.6694
     -1583.1944
   5728523.59848   4447355.69144  22197033.0284   22197029.4664
     -3933.9114
   -102933.72349    -83459.11346  21674289.9194   21674288.7594
      -136.7714
 04  9  9 21 15  0.0010000  0  6G19G 3G 8G13G23G27
  -1202629.55546  -1017937.85542  24035123.1064   24035120.4934
      1146.1094
    321768.20347    247440.64142  23296085.0134   23296084.3294
      -704.4164
  -2078973.68448  -1613065.31644  22903426.7634   22903426.1424
      1097.1134
   1852384.93049   1435610.97747  20585582.6694   20585579.8494
     -1592.0164
   5787632.53148   4493414.57045  22208281.5054   22208277.2354
     -3940.5964
   -100822.49649    -81813.99646  21674691.6924   21674690.3964
      -140.7484
 04  9  9 21 15 15.0010000  0  6G19G 3G 8G13G23G27
  -1219740.14146  -1031270.75442  24031865.2714   24031864.2044
      1140.7064
    332489.16047    255794.64842  23298125.5604   23298125.1034
      -714.7304
  -2095370.15248  -1625841.73044  22900306.0994   22900306.1424
      1093.0984
   1876400.01649   1454324.02747  20590152.7474   20590149.9074
     -1601.0064
   5846844.10249   4539553.43045  22219549.4194   22219545.3254
     -3947.4384
    -98649.12949    -80120.44946  21675105.3334   21675103.9544
      -144.8914
 04  9  9 21 15 30.0010000  0  6G19G 3G 8G13G23G27
  -1236770.03146  -1044540.71542  24028625.1464   24028623.5364
      1135.3264
    343364.21147    264268.74642  23300194.5364   23300193.9814
      -725.0034
  -2111706.89148  -1638571.63744  22897197.2784   22897197.2434
      1089.1164
   1900549.35549   1473141.69947  20594748.0604   20594745.2904
     -1609.9564
   5906157.22348   4585771.43045  22230836.5054   22230832.1534
     -3954.2084
    -96414.41049    -78379.10546  21675530.6144   21675529.0604
      -148.9814
 04  9  9 21 15 45.0010000  0  6G19G 3G 8G13G23G27
  -1253718.07446  -1057746.97342  24025400.4504   24025398.2944
      1129.8704
    354394.16047    272863.52043  23302292.9664   23302293.5094
      -735.3304
  -2127983.25848  -1651254.47744  22894099.6774   22894100.0244
      1085.0914
   1924833.53549   1492064.43447  20599369.3174   20599366.4934
     -1618.9454
   5965572.67248   4632069.14545  22242142.5834   22242139.1574
     -3961.0304
    -94117.70749    -76589.44946  21675967.6694   21675965.9814
      -153.1144
 04  9  9 21 16  0.0010000  0  6G19G 3G 8G13G23G27
  -1270583.65246  -1070888.94142  24022190.3254   24022189.1104
      1124.3724
    365579.65647    281579.51242  23304422.2554   23304421.6694
      -745.7004
  -2144198.77748  -1663889.93444  22891014.5364   22891014.5874
      1081.0354
   1949253.01249   1511092.60546  20604016.0524   20604013.3454
     -1627.9654
   6025090.68848   4678446.78145  22253468.2714   22253464.7434
     -3967.8684
    -91758.59049    -74751.16446  21676416.5674   21676415.0914
      -157.2744
 04  9  9 21 16 15.0010000  0  6G19G 3G 8G13G23G27
  -1287368.05147  -1083967.66042  24018997.1144   24018994.7944
      1118.9604
    376918.90247    290415.31342  23306579.7244   23306579.6464
      -755.9504
  -2160355.35548  -1676479.44544  22887940.2634   22887939.4074
      1077.1054
   1973806.40649   1530225.10947  20608688.5524   20608685.5364
     -1636.8934
   6084709.26248   4724902.77045  22264813.2474   22264809.7354
     -3974.5724
    -89338.87149    -72865.66046  21676877.3724   21676875.7394
      -161.3154
 04  9  9 21 16 30.0010000  0  6G19G 3G 8G13G23G27
  -1304068.98046  -1096981.34042  24015818.7474   24015816.2864
      1113.3954
    388414.16448    299372.68442  23308767.1924   23308765.8924
      -766.3514
  -2176451.07448  -1689021.53544  22884876.5834   22884875.8064
      1073.0484
   1998495.52349   1549463.38347  20613386.4974   20613384.0214
     -1645.9414
   6144430.26648   4771438.57445  22276178.1694   22276174.3804
     -3981.4004
    -86856.62949    -70931.43746  21677349.5284   21677347.7314
      -165.4834
 04  9  9 21 16 45.0010000  0  6G19G 3G 8G13G23G27
  -1320686.30147  -1109929.88342  24012657.1614   24012654.6184
      1107.8214
    400065.36747    308451.54342  23310984.0134   23310983.5634
      -776.7474
  -2192485.79348  -1701516.08644  22881825.5604   22881825.1924
      1068.9814
   2023320.18449   1568807.28147  20618110.3884   20618107.5244
     -1654.9774
   6204253.23048   4818053.83245  22287561.7944   22287558.2984
     -3988.1984
    -84311.98849    -68948.58646  21677833.7784   21677831.7904
      -169.6434
 04  9  9 21 17  0.0010000  0  6G19G 3G 8G13G23G27
  -1337221.41447  -1122814.40842  24009510.6224   24009508.8454
      1102.3414
    411870.84847    317650.64842  23313230.5284   23313230.1774
      -787.0324
  -2208461.48048  -1713964.65644  22878785.8174   22878785.6464
      1065.0464
   2048278.89849   1588255.62947  20622860.1614   20622856.9934
     -1663.9144
   6264176.36749   4864747.16045  22298965.2554   22298961.5834
     -3994.8764
    -81706.75849    -66918.53546  21678329.1304   21678327.4114
      -173.6824
 04  9  9 21 17 15.0010000  0  6G19G 3G 8G13G23G27
  -1353673.67647  -1135634.24642  24006378.8804   24006377.7744
      1096.8174
    423831.10548    326970.33642  23315507.0134   23315506.5874
      -797.3514
  -2224377.43748  -1726366.66044  22875756.6924   22875756.7634
      1061.0644
   2073372.02749   1607808.71947  20627634.9744   20627632.4504
     -1672.8754
   6324199.89548   4911518.71945  22310387.1224   22310383.3764
     -4001.5684
    -79040.75049    -64841.10946  21678836.9034   21678834.8604
      -177.7344
 04  9  9 21 17 30.0010000  0  6G19G 3G 8G13G23G27
  -1370041.98847  -1148388.69942  24003263.6144   24003263.4624
      1091.2214
    435946.93047    336411.26242  23317811.3494   23317811.7084
      -807.7224
  -2240233.50448  -1738722.01244  22872739.9894   22872739.6034
      1057.0714
   2098600.18449   1627467.01647  20632435.9114   20632433.0094
     -1681.8774
   6384324.37949   4958368.92645  22321828.3804   22321824.6064
     -4008.2994
    -76313.12949    -62715.68446  21679355.7394   21679353.8024
      -181.8414
 04  9  9 21 17 45.0010000  0  6G19G 3G 8G13G23G27
  -1386325.84047  -1161077.38342  24000165.0604   24000164.3844
      1085.5904
    448218.46947    345973.51642  23320147.3964   23320146.8764
      -818.1034
  -2256029.40248  -1751030.46144  22869733.5994   22869733.0914
      1053.0604
   2123963.48049   1647230.62947  20637262.4194   20637259.9274
     -1690.8864
   6444549.57849   5005297.62145  22333289.0364   22333284.7944
     -4015.0134
    -73523.99649    -60542.33246  21679886.6614   21679884.9894
      -185.9424
 04  9  9 21 18  0.0010000  0  6G19G 3G 8G13G23G27
  -1402525.56647  -1173700.53942  23997083.2944   23997081.6964
      1079.9824
    460645.35947    355656.80542  23322512.3174   23322511.5484
      -828.4594
  -2271765.53548  -1763292.36344  22866739.0444   22866738.9934
      1049.0764
   2149461.53549   1667099.24247  20642114.0524   20642111.7434
     -1699.8704
   6504874.83649   5052304.28145  22344768.8104   22344764.8334
     -4021.6844
    -70673.85949    -58321.42646  21680428.5524   21680427.2314
      -190.0094
 04  9  9 21 18 15.0010000  0  6G19G 3G 8G13G23G27
  -1418639.98847  -1186257.21542  23994016.9814   23994014.2514
      1074.2954
    473228.50847    365461.88742  23324906.7944   23324906.2314
      -838.8774
  -2287441.19148  -1775507.12544  22863756.0134   22863755.5014
      1045.0444
   2175095.23049   1687073.55547  20646992.2164   20646989.8994
     -1708.9134
   6565300.83649   5099389.45345  22356267.3564   22356263.1884
     -4028.4004
    -67761.89549    -56052.36746  21680982.9584   21680981.1224
      -194.1314
 04  9  9 21 18 30.0010000  0  6G19G 3G 8G13G23G27
  -1434667.13347  -1198745.88342  23990966.8804   23990963.7554
      1068.4764
    485969.78947    375390.16842  23327331.5444   23327330.6614
      -849.4194
  -2303054.43448  -1787673.27044  22860785.0524   22860783.3454
      1040.8834
   2200866.34849   1707154.94147  20651896.1614   20651893.4814
     -1718.0744
   6625829.14548   5146554.34045  22367785.2004   22367781.3134
     -4035.2214
    -64786.55949    -53733.90646  21681548.8104   21681547.3254
      -198.3564
 04  9  9 21 18 45.0010000  0  6G19G 3G 8G13G23G27
  -1450607.40647  -1211166.85242  23987933.5054   23987930.4814
      1062.6854
    498868.51247    385441.12942  23329786.0914   23329784.9314
      -859.9154
  -2318606.24648  -1799791.53544  22857825.4034   22857824.5134
      1036.7874
   2226774.10949   1727342.80547  20656826.5524   20656823.7204
     -1727.1844
   6686458.74648   5193798.15245  22379322.5604   22379318.8134
     -4041.9734
    -61748.48449    -51366.56646  21682126.9894   21682125.4784
      -202.5384
 04  9  9 21 19  0.0010000  0  6G19G 3G 8G13G23G27
  -1466460.77747  -1223520.12542  23984916.6854   23984914.0564
      1056.8914
    511924.27747    395614.45742  23332270.2864   23332269.5324
      -870.3844
  -2334096.93448  -1811862.18044  22854877.8334   22854877.9744
      1032.7134
   2252818.16449   1747636.87547  20661782.6384   20661780.0754
     -1736.2704
   6747189.08648   5241120.44145  22390879.5994   22390875.6884
     -4048.6894
    -58648.25849    -48950.79346  21682717.1614   21682715.3024
      -206.6824
 04  9  9 21 19 15.0010000  0  6G19G 3G 8G13G23G27
  -1482227.13746  -1235805.56242  23981916.3884   23981914.2284
      1051.0914
    525137.15647    405910.25042  23334784.8024   23334784.5874
      -880.8594
  -2349526.70748  -1823885.34844  22851941.7714   22851941.2594
      1028.6524
   2278998.44149   1768037.09446  20666764.2084   20666761.8604
     -1745.3524
   6808020.01649   5288521.12945  22402454.9354   22402451.5754
     -4055.3954
    -55485.93449    -46486.62946  21683318.7244   21683317.3414
      -210.8224
 04  9  9 21 19 30.0010000  0  6G19G 3G 8G13G23G27
  -1497904.04346  -1248021.28542  23978933.2714   23978931.1924
      1045.1274
    538509.48447    416330.25842  23337329.5674   23337328.0244
      -891.4894
  -2364893.31648  -1835859.30544  22849017.9424   22849016.9814
      1024.4414
   2305317.14149   1788545.16047  20671772.6464   20671769.6534
     -1754.5804
   6868953.28549   5336001.57445  22414050.6614   22414046.7474
     -4062.2184
    -52259.54349    -43972.56246  21683933.1064   21683931.4704
      -215.0934
 04  9  9 21 19 45.0010000  0  6G19G 3G 8G13G23G27
  -1513492.20747  -1260167.87143  23975966.5364   23975964.6854
      1039.2114
    552040.24248    426873.69942  23339904.5284   23339903.5914
      -902.0514
  -2380197.80948  -1847784.87544  22846105.5524   22846104.2354
      1020.2994
   2331773.28549   1809160.33647  20676807.3804   20676804.6344
     -1763.7434
   6929987.81649   5383560.93045  22425664.9584   22425661.2044
     -4068.9694
    -48970.03949    -41409.29746  21684558.7314   21684557.3214
      -219.3004
 04  9  9 21 20  0.0010000  0  6G19G 3G 8G13G23G27
  -1528990.85247  -1272244.68742  23973017.7634   23973015.3764
      1033.2434
    565729.90247    437540.98043  23342509.3334   23342508.7394
      -912.6444
  -2395439.91848  -1859661.81644  22843204.6144   22843203.4664
      1016.1414
   2358367.23049   1829882.88747  20681867.5604   20681865.0794
     -1772.9304
   6991123.80949   5431199.34444  22437298.8024   22437294.6304
     -4075.7334
    -45617.18749    -38796.68446  21685196.9744   21685195.1494
      -223.5234
 04  9  9 21 20 15.0010000  0  6G19G 3G 8G13G23G27
  -1544401.03147  -1284252.60942  23970084.6924   23970082.6884
      1027.3454
    579577.10547    448331.02342  23345144.2864   23345142.5714
      -923.1474
  -2410621.09048  -1871491.25844  22840315.7864   22840314.6854
      1012.0784
   2385097.59449   1850711.73847  20686954.3174   20686951.7474
     -1782.0244
   7052359.59448   5478915.50445  22448951.7084   22448947.9354
     -4082.3864
    -42202.34049    -36135.74646  21685846.7394   21685844.9154
      -227.6574
 04  9  9 21 20 30.0020000  0  6G19G 3G 8G13G23G27
  -1559724.65247  -1296193.06642  23967168.1274   23967166.2174
      1021.5754
    593581.75047    459243.75442  23347808.7444   23347808.4514
      -933.6434
  -2425743.55548  -1883274.98444  22837438.5964   22837437.1074
      1008.1644
   2411965.00849   1871647.38347  20692066.9324   20692064.3184
     -1791.1614
   7113697.91849   5526711.57444  22460623.9634   22460620.6074
     -4089.2224
    -38726.49649    -33427.30146  21686508.2294   21686506.4634
      -231.7234
 04  9  9 21 20 45.0020000  0  6G19G 3G 8G13G23G27
  -1574958.49247  -1308063.59042  23964269.5414   23964267.8074
      1015.5894
    607742.87546    470278.40242  23350503.6434   23350503.8344
      -944.0754
  -2440804.48048  -1895010.73844  22834572.0494   22834570.5804
      1004.0624
   2438966.76249   1892687.71947  20697205.5964   20697202.8034
     -1800.1174
   7175131.26248   5574581.66844  22472314.3544   22472311.1004
     -4095.5564
    -35189.43449    -30671.14146  21687181.1274   21687179.5064
      -235.8044
 04  9  9 21 21  0.0020000  0  6G19G 3G 8G13G23G27
  -1590107.19947  -1319867.75442  23961387.4474   23961383.9324
      1009.9144
    622057.60947    481432.78143  23353228.0024   23353227.4594
      -954.3164
  -2455808.48448  -1906702.14844  22831716.8934   22831714.8304
      1000.2674
   2466100.77349   1913831.10947  20702369.2054   20702365.9904
     -1808.9344
   7236659.59848   5622525.78544  22484023.0334   22484019.0724
     -4101.8894
    -31594.90249    -27870.19546  21687865.0104   21687863.6314
      -239.6354
 04  9  9 21 21 15.0020000  0  6G19G 3G 8G13G23G27
  -1605166.07047  -1331601.93043  23958521.0494   23958519.3264
      1003.9254
    636530.50447    492710.35942  23355981.9474   23355980.7214
      -964.8604
  -2470751.31648  -1918345.88744  22828873.2754   22828872.0414
       996.1894
   2493371.57449   1935081.08646  20707558.1584   20707555.3184
     -1818.0534
   7298287.27349   5670547.31644  22495750.0024   22495746.7254
     -4108.5124
    -27938.34049    -25020.92646  21688560.9944   21688559.1894
      -243.7714
 04  9  9 21 21 30.0020000  0  6G19G 3G 8G13G23G27
  -1620137.21947  -1343267.73443  23955672.7444   23955670.4634
       998.0774
    651158.97347    504109.17242  23358765.3934   23358764.5064
      -975.2314
  -2485635.52748  -1929943.94944  22826041.5574   22826039.9324
       992.2814
   2520776.69949   1956435.72347  20712773.5024   20712770.3504
     -1827.0084
   7360011.51248   5718644.08244  22507495.7834   22507492.1434
     -4114.9494
    -24222.50449    -22125.46546  21689268.2914   21689266.5104
      -247.7224
 04  9  9 21 21 45.0020000  0  6G19G 3G 8G13G23G27
  -1635019.97748  -1354864.65643  23952840.5804   23952838.6544
       992.1844
    665943.58247    515629.64843  23361579.6194   23361579.0884
      -985.6414
  -2500460.52048  -1941495.85544  22823219.8934   22823218.4514
       988.3334
   2548316.44149   1977895.27047  20718013.9714   20718011.2604
     -1835.9834
   7421832.56648   5766816.32044  22519260.0884   22519255.9794
     -4121.4044
    -20446.74649    -19183.30946  21689986.5414   21689985.2054
      -251.7174
 04  9  9 21 22  0.0020000  0  6G19G 3G 8G13G23G27
  -1649812.12547  -1366390.95343  23950025.6114   23950024.0534
       986.1434
    680886.50047    527273.47742  23364422.8614   23364422.6744
      -996.1954
  -2515224.49248  -1953000.23444  22820409.9794   22820409.6664
       984.2654
   2575992.88349   1999461.30947  20723280.7754   20723277.9004
     -1845.0964
   7483752.25448   5815065.39144  22531042.9794   22531039.8504
     -4127.9794
    -16609.33649    -16193.10546  21690716.6894   21690715.3654
      -255.8274
 04  9  9 21 22 15.0020000  0  6G19G 3G 8G13G23G27
  -1664517.49647  -1377849.63743  23947227.1434   23947225.9284
       980.3584
    695983.41047    539037.33643  23367294.9634   23367295.0574
     -1006.4614
  -2529931.69948  -1964460.36744  22817611.7214   22817610.6974
       980.4804
   2603801.85549   2021130.64547  20728572.4714   20728569.4434
     -1853.9324
   7545766.04748   5863387.78544  22542843.7834   22542841.0064
     -4134.2534
    -12714.54749    -13158.19546  21691458.1114   21691456.3574
      -259.6534
 04  9  9 21 22 30.0020000  0  6G19G 3G 8G13G23G27
  -1679134.87547  -1389239.75842  23944444.8384   23944443.0414
       974.4924
    711235.42248    550922.02742  23370197.7834   23370196.5454
     -1016.8014
  -2544581.30948  -1975875.63344  22814823.9164   22814823.1704
       976.6414
   2631744.18449   2042903.89147  20733889.5494   20733887.2254
     -1862.8224
   7607874.67649   5911784.07445  22554662.6584   22554659.8264
     -4140.5754
     -8761.49649    -10077.89146  21692210.0884   21692208.4594
      -263.5374
 04  9  9 21 22 45.0020000  0  6G19G 3G 8G13G23G27
  -1693662.95346  -1400560.30542  23941680.8464   23941678.4794
       968.5394
    726643.49648    562928.31342  23373129.8774   23373128.5724
     -1027.2054
  -2559172.25448  -1987245.16044  22812047.2294   22812046.1314
       972.7304
   2659820.88349   2064781.83246  20739232.5104   20739229.9794
     -1871.7804
   7670078.93449   5960254.88344  22566500.0334   22566496.5924
     -4146.9514
     -4749.35949     -6951.55146  21692973.9554   21692971.7644
      -267.4764
 04  9  9 21 23  0.0020000  0  6G19G 3G 8G13G23G27
  -1708103.98447  -1411813.01243  23938932.7054   23938930.6544
       962.7354
    742205.15247    575054.28942  23376091.0104   23376090.1434
     -1037.4444
  -2573707.26648  -1998571.10944  22809281.2054   22809280.4674
       969.0014
   2688029.52049   2086762.58646  20744600.5964   20744598.0214
     -1880.5764
   7732376.02348   6008798.04344  22578354.4714   22578350.7254
     -4153.1394
      -680.60249     -3781.07846  21693747.8614   21693746.1394
      -271.2514
 04  9  9 21 23 15.0020000  0  6G19G 3G 8G13G23G27
  -1722459.41047  -1422999.03143  23936200.8224   23936199.7324
       957.0284
    757918.71547    587298.62142  23379080.8934   23379080.9984
     -1047.5714
  -2588187.93048  -2009854.72344  22806526.1044   22806524.5294
       965.3784
   2716368.19549   2108844.68046  20749992.9944   20749989.9474
     -1889.2454
   7794764.05549   6057412.04744  22590226.6974   22590222.5684
     -4159.2024
      3442.98849      -567.89546  21694532.7054   21694530.9364
      -274.9064
 04  9  9 21 23 30.0020000  0  6G19G 3G 8G13G23G27
  -1736726.01247  -1434115.83643  23933486.7834   23933484.9984
       951.1074
    773787.16847    599663.68043  23382101.0884   23382100.9394
     -1057.8974
  -2602611.39148  -2021093.76644  22803781.1974   22803779.9824
       961.5644
   2744839.91449   2131030.43046  20755411.0494   20755408.4864
     -1898.1154
   7857245.65649   6106099.00444  22602116.6894   22602112.6044
     -4165.4404
      7624.12149      2690.13746  21695328.4324   21695326.4124
      -278.7424
 04  9  9 21 23 45.0020000  0  6G19G 3G 8G13G23G27
  -1750903.35547  -1445163.09843  23930788.6974   23930787.0924
       945.1564
    789810.64146    612149.51243  23385149.6434   23385149.1974
     -1068.2324
  -2616977.58648  -2032288.18044  22801047.2684   22801046.2524
       957.7464
   2773444.64849   2153319.82846  20760854.4634   20760851.8894
     -1906.9824
   7919820.79748   6154858.81344  22614024.1584   22614020.3264
     -4171.6764
     11862.82849      5993.02746  21696134.8614   21696132.7874
      -282.5804
 04  9  9 21 24  0.0020000  0  6G19G 3G 8G13G23G27
  -1764992.41447  -1456141.55143  23928107.4864   23928105.3034
       939.2714
    805988.02347    624755.27042  23388228.5644   23388227.1894
     -1078.4924
  -2631287.93448  -2043439.07044  22798323.7834   22798322.3614
       954.0234
   2802181.32049   2175712.03946  20766322.7524   20766320.2754
     -1915.7784
   7982488.06348   6203690.43044  22625949.9394   22625945.7404
     -4177.8184
     16157.90649      9339.86346  21696951.9794   21696950.3814
      -286.3394
 04  9  9 21 24 15.0020000  0  6G19G 3G 8G13G23G27
  -1778992.37147  -1467050.56243  23925442.4634   23925440.7484
       933.3304
    822319.72747    637481.29342  23391336.4864   23391336.4204
     -1088.7804
  -2645541.87948  -2054546.03944  22795611.2444   22795610.8694
       950.2634
   2831050.35549   2198207.38746  20771816.6044   20771813.8544
     -1924.6024
   8045247.70748   6252594.02344  22637892.5024   22637888.8934
     -4183.9764
     20509.80949     12730.96146  21697780.2054   21697778.0414
      -290.1274
 04  9  9 21 24 30.0020000  0  6G19G 3G 8G13G23G27
  -1792906.06647  -1477892.37543  23922794.4164   23922793.1194
       927.5804
    838802.78547    650325.24642  23394473.5254   23394472.9324
     -1098.8714
  -2659742.39848  -2065611.34844  22792909.4794   22792908.1784
       946.7014
   2860048.72749   2220803.52747  20777334.4864   20777331.9244
     -1933.2254
   8108096.31348   6301566.93044  22649852.0724   22649848.1624
     -4189.9074
     24915.39549     16163.88746  21698618.6354   21698616.9904
      -293.7064
 04  9  9 21 24 45.0020000  0  6G19G 3G 8G13G23G27
  -1806732.77747  -1488666.41443  23920165.0884   23920162.3144
       921.7814
    855437.60547    663287.45343  23397638.7994   23397637.9204
     -1108.9884
  -2673889.16448  -2076634.78944  22790217.3464   22790216.3654
       943.1184
   2889176.71949   2243500.65246  20782877.9004   20782875.1864
     -1941.8664
   8171034.21148   6350609.42244  22661828.3934   22661825.2174
     -4195.8604
     29374.93049     19638.86346  21699467.5024   21699465.6114
      -297.3024
 04  9  9 21 25  0.0020000  0  6G19G 3G 8G13G23G27
  -1820471.18446  -1499371.60943  23917549.2294   23917548.1074
       915.8944
    872225.35247    676368.84042  23400832.5184   23400832.2134
     -1119.1834
  -2687981.03548  -2087615.43744  22787535.1274   22787534.8734
       939.4584
   2918435.56349   2266299.74647  20788445.4004   20788442.3114
     -1950.5904
   8234062.32048   6399722.19944  22673822.5334   22673818.9904
     -4201.8744
     33889.46149     23156.68046  21700326.5414   21700324.9164
      -300.9694
 04  9  9 21 25 15.0020000  0  6G19G 3G 8G13G23G27
  -1834121.69946  -1510008.32043  23914951.7444   23914950.3894
       910.0344
    889165.43847    689568.91443  23404056.6664   23404056.1354
     -1129.3394
  -2702018.82848  -2098553.95344  22784864.0724   22784863.0294
       935.8534
   2947824.57449   2289200.27047  20794037.8694   20794034.5334
     -1959.2674
   8297179.63748   6448904.47344  22685833.7524   22685829.9394
     -4207.8214
     38458.26649     26716.80146  21701195.7604   21701194.0844
      -304.5874
 04  9  9 21 25 30.0020000  0  6G19G 3G 8G13G23G27
  -1847686.02746  -1520577.86343  23912370.3224   23912369.4434
       904.2894
    906255.71147    702886.02742  23407309.0804   23407308.0334
     -1139.3524
  -2716004.66448  -2109451.97744  22782202.8614   22782202.1464
       932.3894
   2977341.28149   2312200.30547  20799654.7604   20799651.8184
     -1967.7804
   8360383.84048   6498154.46544  22697860.8144   22697857.4824
     -4213.6144
     43079.14549     30317.50046  21702075.0574   21702073.5884
      -308.0594
 04  9  9 21 25 45.0020000  0  6G19G 3G 8G13G23G27
  -1861164.39847  -1531080.46543  23909806.4714   23909804.2214
       898.5584
    923495.60247    716319.72743  23410589.6114   23410589.2684
     -1149.3264
  -2729939.10548  -2120309.95344  22779551.3464   22779550.5534
       928.9634
   3006985.44549   2335299.64847  20805295.7994   20805293.2914
     -1976.2784
   8423674.14548   6547471.56644  22709904.6584   22709900.7874
     -4219.3544
     47751.49649     33958.29746  21702964.1044   21702962.4714
      -311.4904
 04  9  9 21 26  0.0020000  0  6G19G 3G 8G13G23G27
  -1874556.68747  -1541515.96943  23907257.8854   23907255.9204
       892.8194
    940885.21547    729870.08243  23413898.4164   23413898.2174
     -1159.3084
  -2743822.32048  -2131128.03144  22776909.1434   22776908.6434
       925.5484
   3036757.02049   2358498.27347  20810961.1114   20810958.4474
     -1984.7724
   8487050.31648   6596855.56644  22721964.4084   22721960.9754
     -4225.0784
     52475.32049     37639.20746  21703863.2914   21703861.5294
      -314.9224
 04  9  9 21 26 15.0020000  0  6G19G 3G 8G13G23G27
  -1887862.91848  -1551884.41843  23904725.8544   23904723.9594
       887.0824
    958424.17247    743536.82843  23417235.7444   23417235.8734
     -1169.2644
  -2757654.66448  -2141906.45344  22774277.0574   22774276.4864
       922.1564
   3066655.57449   2381795.83647  20816650.5574   20816647.9164
     -1993.2374
   8550511.74648   6646305.98444  22734040.7994   22734037.7754
     -4230.7624
     57249.95749     41359.71146  21704771.5254   21704770.2994
      -318.3094
 04  9  9 21 26 30.0020000  0  6G19G 3G 8G13G23G27
  -1901083.94548  -1562186.44944  23902209.1114   23902207.9634
       881.4024
    976111.41447    757319.10243  23420601.9244   23420601.0374
     -1179.1494
  -2771437.16848  -2152646.03544  22771654.3774   22771653.4004
       918.8344
   3096679.91049   2405191.42246  20822363.9474   20822361.2644
     -2001.6224
   8614057.17248   6695821.87144  22746133.3774   22746130.5294
     -4236.3624
     62074.34849     45118.99646  21705689.8074   21705688.4634
      -321.6264
 04  9  9 21 26 45.0020000  0  6G19G 3G 8G13G23G27
  -1914219.07048  -1572421.57444  23899709.9244   23899708.6114
       875.6754
    993947.32046    771217.22342  23423995.8934   23423995.0374
     -1189.0604
  -2785169.60548  -2163346.62144  22769041.5254   22769040.2014
       915.4964
   3126830.46149   2428685.35546  20828101.5644   20828098.8344
     -2010.0374
   8677686.64148   6745403.23845  22758241.8694   22758239.1934
     -4241.9654
     66948.74649     48917.23846  21706617.3614   21706615.6074
      -324.9604
 04  9  9 21 27  0.0020000  0  6G19G 3G 8G13G23G27
  -1927269.15248  -1582590.43744  23897227.2684   23897224.7954
       870.0054
   1011930.75847    785230.30542  23427418.3614   23427417.0454
     -1198.8964
  -2798853.02348  -2174008.99644  22766437.2134   22766436.2524
       912.2284
   3157106.02049   2452276.69947  20833862.6194   20833860.2914
     -2018.3714
   8741398.78148   6795049.03945  22770365.8694   22770362.5454
     -4247.4764
     71872.09449     52753.62146  21707554.3384   21707552.3464
      -328.2234
 04  9  9 21 27 15.0020000  0  6G19G 3G 8G13G23G27
  -1940236.07048  -1592694.50043  23894758.9794   23894756.9594
       864.4614
   1030059.58647    799356.69943  23430867.7524   23430867.1274
     -1208.5894
  -2812489.73848  -2184634.98844  22763842.5184   22763841.5844
       909.1144
   3187504.44149   2475963.77347  20839647.2754   20839644.5764
     -2026.5614
   8805191.28548   6844757.45744  22782504.6354   22782501.7214
     -4252.8344
     76842.10249     56626.35946  21708500.2214   21708498.0614
      -331.3344
 04  9  9 21 27 30.0020000  0  6G19G 3G 8G13G23G27
  -1953120.24648  -1602734.06643  23892307.7754   23892304.9434
       858.9454
   1048333.24648    813595.92243  23434345.8144   23434344.9594
     -1218.2444
  -2826080.29748  -2195225.00844  22761255.8464   22761255.0724
       906.0374
   3218025.16449   2499746.15647  20845455.4164   20845452.4084
     -2034.7154
   8869063.21948   6894527.76244  22794659.2684   22794656.2524
     -4258.1294
     81857.94949     60534.82846  21709454.3774   21709452.8264
      -334.3904
 04  9  9 21 27 45.0020000  0  6G19G 3G 8G13G23G27
  -1965921.23848  -1612708.81244  23889871.5724   23889869.6114
       853.3994
   1066751.76247    827948.03943  23437850.6044   23437850.0024
     -1227.9014
  -2839624.57048  -2205778.96944  22758678.6894   22758677.2014
       902.9524
   3248668.25049   2523623.87547  20851286.7054   20851283.4434
     -2042.8724
   8933014.52748   6944359.91444  22806828.9794   22806825.3264
     -4263.4214
     86919.80549     64479.14146  21710417.5024   21710416.0294
      -337.4574
 04  9  9 21 28  0.0020000  0  6G19G 3G 8G13G23G27
  -1978637.73448  -1622617.71544  23887451.8224   23887449.8694
       847.7664
   1085316.09047    842413.77742  23441382.3144   23441382.2094
     -1237.6224
  -2853121.85248  -2216296.30944  22756109.5414   22756108.4794
       899.8194
   3279434.55549   2547597.62547  20857141.1584   20857138.4864
     -2051.0874
   8997045.94148   6994254.48044  22819013.8144   22819010.4244
     -4268.7614
     92028.53949     68459.98046  21711389.8614   21711388.1624
      -340.5824
 04  9  9 21 28 15.0020000  0  6G19G 3G 8G13G23G27
  -1991271.61348  -1632462.24244  23885046.9944   23885045.2714
       842.2594
   1104024.23847    856991.57043  23444942.8464   23444941.7404
     -1247.2104
  -2866574.36348  -2226778.76644  22753550.1584   22753548.5064
       896.8344
   3310321.98849   2571665.75047  20863019.0804   20863015.9554
     -2059.1624
   9061155.15648   7044209.68844  22831213.2604   22831210.4284
     -4273.9484
     97181.95749     72475.64146  21712370.3774   21712368.6434
      -343.5614
 04  9  9 21 28 30.0020000  0  6G19G 3G 8G13G23G27
  -2003822.16048  -1642241.85544  23882659.3694   23882657.1434
       836.7034
   1122876.53147    871681.67243  23448529.8074   23448530.0414
     -1256.8204
  -2879981.39848  -2237225.79744  22750998.4164   22750997.8114
       893.8024
   3341330.82849   2595828.47747  20868919.5574   20868916.9434
     -2067.2564
   9125342.27748   7094225.57844  22843427.2834   22843425.2684
     -4279.1414
    102380.44949     76526.41446  21713359.8694   21713357.8614
      -346.5664
 04  9  9 21 28 45.0020000  0  6G19G 3G 8G13G23G27
  -2016289.55548  -1651956.62544  23880286.5574   23880284.6004
       831.1604
   1141872.71547    886483.91843  23452145.1824   23452144.6274
     -1266.4124
  -2893343.54348  -2247637.84044  22748455.8614   22748455.6864
       890.8104
   3372460.64849   2620085.48047  20874843.2994   20874840.8694
     -2075.3214
   9189606.75448   7144301.73444  22855656.6584   22855654.3574
     -4284.2984
    107623.56349     80611.96546  21714357.3224   21714355.1704
      -349.5414
 04  9  9 21 29  0.0020000  0  6G19G 3G 8G13G23G27
  -2028671.44947  -1661604.82044  23877930.8224   23877927.7604
       825.4604
   1161014.70347    901399.75443  23455788.0184   23455787.1274
     -1276.1334
  -2906658.85948  -2258013.37544  22745922.2214   22745921.7014
       887.6884
   3403713.55549   2644438.39147  20880790.5334   20880788.0574
     -2083.5274
   9253950.33648   7194439.55144  22867901.2294   22867897.8034
     -4289.5724
    112913.10249     84733.69946  21715364.2604   21715362.2954
      -352.6364
 04  9  9 21 29 15.0020000  0  6G19G 3G 8G13G23G27
  -2040968.68447  -1671187.02744  23875590.5024   23875588.0844
       819.8164
   1180301.58648    916428.50443  23459458.4164   23459457.6004
     -1285.7924
  -2919928.37948  -2268353.23844  22743397.1974   22743396.7714
       884.6354
   3435088.38749   2668886.30146  20886761.5804   20886758.2954
     -2091.6554
   9318371.84848   7244638.10944  22880160.4084   22880156.6664
     -4294.7674
    118248.17649     88890.90246  21716379.2684   21716377.7294
      -355.6724
 04  9  9 21 29 30.0020000  0  6G19G 3G 8G13G23G27
  -2053179.94547  -1680702.25043  23873266.5804   23873264.4044
       814.0844
   1199734.21547    931570.82443  23463156.0334   23463156.1544
     -1295.5094
  -2933151.07048  -2278656.62944  22740880.3544   22740880.3694
       881.5134
   3466586.19149   2693430.04346  20892754.5494   20892752.3144
     -2099.8544
   9382871.91048   7294897.87544  22892434.2134   22892430.5884
     -4300.0044
    123629.48449     93084.12946  21717403.1194   21717401.0924
      -358.7544
 04  9  9 21 29 45.0020000  0  6G19G 3G 8G13G23G27
  -2065305.62548  -1690150.79743  23870959.0804   23870956.7684
       808.3794
   1219311.90647    946826.21543  23466881.1824   23466880.5334
     -1305.1794
  -2946327.72348  -2288924.14144  22738373.6974   22738372.9244
       878.4434
   3498206.17249   2718068.98047  20898771.9864   20898769.8074
     -2107.9994
   9447449.53148   7345218.06644  22904722.7994   22904719.6074
     -4305.1754
    129056.34449     97312.86746  21718436.0644   21718434.5144
      -361.7914
 04  9  9 21 30  0.0020000  0  6G19G 3G 8G13G23G27
  -2077345.80548  -1699532.71543  23868667.8224   23868665.0414
       802.6794
   1239034.47347    962194.44143  23470634.7054   23470633.8384
     -1314.8384
  -2959458.72748  -2299156.05944  22735874.2754   22735873.2524
       875.4004
   3529948.08649   2742802.94146  20904812.1584   20904809.5684
     -2116.1284
   9512104.16048   7395598.27044  22917026.5724   22917023.2834
     -4310.3094
    134528.42249    101576.82446  21719477.1974   21719475.1154
      -364.8054
 04  9  9 21 30 15.0020000  0  6G19G 3G 8G13G23G27
  -2089299.55548  -1708847.28143  23866393.0024   23866391.2994
       796.9174
   1258902.43847    977675.97743  23474415.4394   23474414.7294
     -1324.5314
  -2972543.58248  -2309352.03544  22733385.3144   22733383.6664
       872.3244
   3561812.37149   2767632.24646  20910875.9634   20910872.9984
     -2124.2864
   9576836.23048   7446038.80144  22929344.6434   22929341.5254
     -4315.4714
    140046.22348    105876.42646  21720527.2834   21720525.2754
      -367.8534
 04  9  9 21 30 30.0020000  0  6G19G 3G 8G13G23G27
  -2101163.20347  -1718091.64143  23864135.1504   23864133.2404
       790.9104
   1278919.11747    993273.41443  23478224.6114   23478222.8424
     -1334.4454
  -2985578.95348  -2319509.45744  22730904.0804   22730902.7794
       869.0254
   3593802.41449   2792559.55147  20916963.5644   20916960.5804
     -2132.6704
   9641648.86748   7496542.11744  22941677.9554   22941674.3934
     -4320.8424
    145613.03549    110214.19946  21721586.6824   21721584.8304
      -371.1214
 04  9  9 21 30 45.0020000  0  6G19G 3G 8G13G23G27
  -2112941.74647  -1727269.69943  23861894.0884   23861892.2014
       785.2364
   1299079.30147   1008982.66843  23482060.4324   23482059.6864
     -1344.0124
  -2998570.05548  -2329632.37944  22728432.0414   22728431.0184
       866.0734
   3625912.87149   2817580.68047  20923073.6434   20923070.6464
     -2140.6974
   9706536.55148   7547103.92644  22954025.5804   22954022.1394
     -4325.8464
    151223.47749    114585.98446  21722654.2294   21722652.1784
      -374.0294
 04  9  9 21 31  0.0020000  0  6G19G 3G 8G13G23G27
  -2124632.77347  -1736379.52743  23859669.1114   23859666.9794
       779.4024
   1319385.41047   1024805.60542  23485924.5644   23485924.0884
     -1353.7414
  -3011514.45348  -2339718.90244  22725968.9164   22725968.0724
       862.9604
   3658146.18449   2842697.54346  20929207.7604   20929204.9864
     -2148.8874
   9771501.51248   7597725.94144  22966387.7604   22966384.5764
     -4330.9974
    156880.01649    118993.68446  21723730.3464   21723728.6624
      -377.1034
 04  9  9 21 31 15.0020000  0  6G19G 3G 8G13G23G27
  -2136236.24647  -1745421.12143  23857460.5494   23857458.9944
       773.5654
   1339836.95747   1040741.89143  23489816.9714   23489816.2324
     -1363.4364
  -3024412.76248  -2349769.51644  22723514.6114   22723513.5144
       859.8874
   3690501.87549   2867909.76247  20935364.2604   20935361.9474
     -2157.0464
   9836543.11747   7648407.66844  22978764.6584   22978761.9714
     -4336.1074
    162582.14549    123436.90646  21724815.7914   21724813.7874
      -380.1424
 04  9  9 21 31 30.0020000  0  7G19G 3G 8G13G10G23G27
  -2147751.38747  -1754393.90243  23855268.7364   23855268.0414
       767.6764
   1360434.52047   1056791.95743  23493735.3544   23493734.6894
     -1373.1714
  -3037264.48848  -2359783.82044  22721068.4554   22721067.5184
       856.7824
   3722980.39849   2893217.69146  20941544.9634   20941542.3224
     -2165.2354
    -27592.51654    -17073.16851  24757973.8854   24757974.5374

   9901661.60248   7699149.30144  22991156.7684   22991153.8964
     -4341.2324
    168330.21549    127915.92646  21725909.8384   21725908.0414
      -383.2054
 04  9  9 21 31 45.0020000  0  7G19G 3G 8G13G10G23G27
  -2159178.39147  -1763298.03943  23853094.5184   23853092.8114
       761.8004
   1381177.57047   1072955.36343  23497682.9324   23497682.6624
     -1382.8704
  -3050070.09048  -2369762.20344  22718631.9634   22718630.7094
       853.7074
   3755581.12549   2918620.85547  20947748.9394   20947746.3694
     -2173.3824
    -39800.77043    -26586.04741  24755650.5884   24755651.5414
       813.8844
   9966856.12148   7749950.18844  23003563.3144   23003559.9084
     -4346.3014
    174123.74649    132430.36746  21727012.1194   21727010.1314
      -386.2354
 04  9  9 21 32  0.0020000  0  7G19G 3G 8G13G10G23G27
  -2170517.57447  -1772133.73043  23850937.9864   23850934.3574
       755.9464
   1402065.55947   1089231.71943  23501657.8854   23501657.5644
     -1392.5334
  -3062830.04748  -2379705.00044  22716203.7134   22716202.6664
       850.6644
   3788303.62548   2944118.89847  20953975.7444   20953972.9824
     -2181.5004
    -51892.67644    -36008.27341  24753350.0804   24753351.1934
       806.1274
  10032125.89548   7800809.72344  23015983.2364   23015979.9984
     -4351.3184
    179962.07849    136979.73446  21728123.0334   21728121.1624
      -389.2224
 04  9  9 21 32 15.0020000  0  7G19G 3G 8G13G10G23G27
  -2181770.94947  -1780902.56643  23848796.1824   23848792.7294
       750.2254
   1423096.08647   1105619.18443  23505660.5184   23505659.3304
     -1402.0354
  -3075546.80548  -2389614.15244  22713783.7444   22713782.6274
       847.7844
   3821145.53149   2969709.99246  20960225.0804   20960222.4824
     -2189.4604
    -63870.35545    -45341.48841  24751071.0574   24751071.3964
       798.5124
  10097468.52048   7851726.01644  23028417.3304   23028414.0804
     -4356.1754
    185842.88349    141562.18846  21729242.3934   21729240.5104
      -392.0544
 04  9  9 21 32 30.0020000  0  7G19G 3G 8G13G10G23G27
  -2192936.90647  -1789603.30143  23846671.1274   23846667.9124
       744.3974
   1444270.43447   1122118.66443  23509689.7524   23509688.7054
     -1411.6234
  -3088218.93048  -2399488.51644  22711372.2914   22711371.5184
       844.8084
   3854108.02049   2995395.04346  20966497.8934   20966495.3544
     -2197.4994
    -75732.35546    -54584.61741  24748814.5724   24748813.6154
       790.8004
  10162885.03547   7902699.89144  23040865.7914   23040862.5334
     -4361.1014
    191767.28549    146178.60946  21730369.4394   21730367.9394
      -394.9604
 04  9  9 21 32 45.0020000  0  7G19G 3G 8G13G10G23G27
  -2204015.83647  -1798236.20343  23844562.7834   23844559.6074
       738.5954
   1465587.93447   1138729.69943  23513745.6504   23513745.7404
     -1421.1674
  -3100847.21948  -2409328.72744  22708969.5024   22708968.4084
       841.8864
   3887190.39149   3021173.50846  20972793.4394   20972790.5684
     -2205.4914
    -87479.26245    -63738.02041  24746578.4474   24746578.3574
       783.1274
  10228374.52747   7953730.62544  23053328.0334   23053324.1114
     -4365.9664
    197734.77349    150828.60546  21731505.1504   21731503.0574
      -397.8334
 04  9  9 21 33  0.0020000  0  7G19G 3G 8G13G10G23G27
  -2215004.89547  -1806799.03543  23842471.3304   23842469.2794
       732.6044
   1487051.23847   1155454.37143  23517830.1744   23517830.8614
     -1430.8874
  -3113429.16048  -2419132.80544  22706575.0414   22706573.6934
       838.7964
   3920395.26249   3047047.43446  20979111.4714   20979109.3574
     -2213.6584
    -99108.09046    -72799.41441  24744364.9864   24744365.9554
       775.2554
  10293939.36348   8004820.09044  23065805.0184   23065801.1784
     -4370.9894
    203747.83649    155514.11346  21732649.1894   21732647.5334
      -400.8714
 04  9  9 21 33 15.0020000  0  7G19G 3G 8G13G10G23G27
  -2225905.42647  -1815292.91443  23840397.3774   23840395.4714
       726.7024
   1508658.62947   1172291.30143  23521942.1354   23521941.4474
     -1440.4934
  -3125966.50848  -2428902.15245  22704188.6114   22704187.4324
       835.8234
   3953720.91449   3073015.46546  20985453.8774   20985450.2994
     -2221.7104
   -110620.46545    -81770.09441  24742175.0414   24742175.0104
       767.4924
  10359577.56648   8055966.69944  23078296.0964   23078291.7094
     -4375.8804
    209804.51649    160233.61346  21733801.6584   21733799.9284
      -403.7794
 04  9  9 21 33 30.0020000  0  7G19G 3G 8G13G10G23G27
  -2236715.73446  -1823716.50043  23838339.8774   23838337.7564
       720.6874
   1530411.55947   1189241.61343  23526081.5804   23526080.7874
     -1450.1954
  -3138457.82048  -2438635.63344  22701812.1744   22701810.9324
       832.7544
   3987168.72349   3099078.69547  20991818.6114   20991815.7954
     -2229.8544
   -122014.62144    -90648.60942  24740007.0574   24740006.1004
       759.6104
  10425290.42248   8107171.50044  23090800.6114   23090796.6894
     -4380.8574
    215906.44549    164988.37146  21734962.9634   21734961.3384
      -406.7954
 04  9  9 21 33 45.0020000  0  7G19G 3G 8G13G10G23G27
  -2247435.04747  -1832069.15243  23836299.9634   23836297.6354
       714.6214
   1552310.65247   1206305.85243  23530247.9714   23530247.3074
     -1459.9404
  -3150902.48448  -2448332.74645  22699444.1824   22699442.7914
       829.6444
   4020739.25449   3125237.55146  20998206.5574   20998204.0414
     -2238.0354
   -133289.97345    -99434.60541  24737861.2444   24737860.3654
       751.6904
  10491078.25448   8158434.69144  23103319.0184   23103315.9324
     -4385.8554
    222054.02349    169778.69546  21736132.5334   21736130.8854
      -409.8394
 04  9  9 21 34  0.0020000  0  7G19G 3G 8G13G10G23G27
  -2258063.52747  -1840351.03943  23834277.0494   23834274.8264
       708.5654
   1574355.26647   1223483.48843  23534443.6504   23534443.5534
     -1469.6414
  -3163301.00848  -2457993.91044  22697084.1434   22697083.1434
       826.5684
   4054431.90649   3151491.56647  21004618.3854   21004615.5374
     -2246.1774
   -144446.75845   -108128.16041  24735737.8074   24735737.5334
       743.7864
  10556940.28948   8209755.72344  23115853.1044   23115849.5184
     -4390.8024
    228246.69149    174604.15646  21737311.2054   21737309.2364
      -412.8454
 04  9  9 21 34 15.0020000  0  7G19G 3G 8G13G10G23G27
  -2268600.75847  -1848561.84043  23832272.2754   23832269.2324
       702.4824
   1596545.61347   1240774.66043  23538666.6824   23538665.9364
     -1479.3574
  -3175653.21148  -2467618.97744  22694734.3614   22694733.1434
       823.4804
   4088246.76649   3177840.80547  21011053.0724   21011050.2444
     -2254.3244
   -155484.71145   -116729.13341  24733637.2754   24733637.2754
       735.8644
  10622876.37948   8261134.46144  23128399.6194   23128397.1074
     -4395.7394
    234484.61349    179464.88346  21738498.0644   21738496.2254
      -415.8614
 04  9  9 21 34 30.0020000  0  7G19G 3G 8G13G10G23G27
  -2279048.17647  -1856702.66843  23830284.3544   23830281.6824
       696.4954
   1618879.94547   1258178.04343  23542916.7524   23542915.6974
     -1488.9554
  -3187960.93448  -2477209.38345  22692391.7994   22692390.8384
       820.5154
   4122182.29349   3204284.07847  21017510.8774   21017507.7174
     -2262.3684
   -166405.25444   -125238.55941  24731559.4164   24731558.3574
       728.0364
  10688884.62548   8312569.41044  23140960.7364   23140958.4394
     -4400.5504
    240766.02349    184359.50846  21739693.4634   21739691.4204
      -418.7614
 04  9  9 21 34 45.0020000  0  7G19G 3G 8G13G10G23G27
  -2289404.21947  -1864772.28143  23828313.7524   23828311.0644
       690.4034
   1641359.54748   1275694.61743  23547194.6504   23547193.4554
     -1498.6404
  -3200222.87948  -2486764.12545  22690058.3464   22690057.7914
       817.4634
   4156239.54749   3230822.20347  21023992.1114   21023988.7714
     -2270.4844
   -177206.87144   -133655.38341  24729503.5964   24729501.8894
       720.1084
  10754966.02748   8364061.39144  23153535.6354   23153533.0374
     -4405.4274
    247092.18449    189288.98846  21740896.9944   21740895.2794
      -421.7444
 04  9  9 21 35  0.0020000  0  7G19G 3G 8G13G10G23G27
  -2299669.64147  -1872771.27043  23826360.1744   23826357.8734
       684.3614
   1663983.40648   1293323.57843  23551500.0494   23551499.3184
     -1508.2574
  -3212440.21948  -2496284.10545  22687733.2524   22687732.7094
       814.4894
   4190417.44949   3257454.32847  21030495.5414   21030492.8504
     -2278.5274
   -187890.43045   -141980.23841  24727470.8774   24727469.4714
       712.2374
  10821119.54348   8415609.52743  23166124.1044   23166121.3184
     -4410.2344
    253461.89849    194252.40246  21742109.6894   21742107.4794
      -424.6484
 04  9  9 21 35 15.0020000  0  7G19G 3G 8G13G10G23G27
  -2309843.81247  -1880699.15243  23824423.2834   23824421.8034
       678.2784
   1686751.74647   1311065.16043  23555831.5494   23555831.7214
     -1517.8894
  -3224612.39148  -2505768.89844  22685417.1894   22685416.5334
       811.4784
   4224716.36349   3284180.75846  21037022.0334   21037019.3854
     -2286.5944
   -198455.42645   -150212.71942  24725460.7214   24725459.8614
       704.3334
  10887345.14848   8467213.86344  23178726.0334   23178723.2794
     -4415.0404
    259875.57449    199250.08646  21743329.9084   21743327.7444
      -427.5784
 04  9  9 21 35 30.0020000  0  7G19G 3G 8G13G10G23G27
  -2319925.75846  -1888555.17643  23822504.6114   23822502.4904
       672.1304
   1709665.44948   1328920.00043  23560192.7054   23560191.2054
     -1527.5804
  -3236738.79748  -2515218.02044  22683109.5494   22683108.7404
       808.4274
   4259137.05549   3311002.06646  21043572.4324   21043569.3894
     -2294.7134
   -208900.84845   -158351.99242  24723472.5184   24723472.5414
       696.3614
  10953643.39548   8518874.79744  23191343.0024   23191339.1434
     -4419.8834
    266333.93849    204282.57846  21744558.5884   21744556.9674
      -430.5584
 04  9  9 21 35 45.0020000  0  7G19G 3G 8G13G10G23G27
  -2329916.80147  -1896340.36743  23820603.5964   23820601.5414
       666.0704
   1732722.70347   1346886.67643  23564580.0574   23564579.0374
     -1537.1504
  -3248821.21149  -2524632.87544  22680810.4164   22680809.4004
       805.4944
   4293677.71149   3337916.85946  21050145.3854   21050142.6584
     -2302.7104
   -219228.34846   -166399.30142  24721507.3464   24721507.2404
       688.5004
  11020012.22348   8570590.75044  23203972.6584   23203968.5374
     -4424.5894
    272835.02049    209348.37146  21745795.3854   21745794.2954
      -433.4054
 04  9  9 21 36  0.0020000  0  7G19G 3G 8G13G10G23G27
  -2339813.72347  -1904052.23043  23818720.6824   23818718.1624
       659.7954
   1755926.43847   1364967.53143  23568995.3854   23568995.4004
     -1546.9164
  -3260856.48048  -2534010.99244  22678520.2054   22678519.3224
       802.3514
   4328341.36749   3364927.50846  21056741.4474   21056738.6194
     -2310.9104
   -229434.60245   -174352.20342  24719565.6664   24719563.9324
       680.4174
  11086454.50048   8622363.92244  23216616.0184   23216612.2834
     -4429.4854
    279382.00049    214449.91446  21747041.8464   21747040.1004
      -436.4654
 04  9  9 21 36 15.0020000  0  7G19G 3G 8G13G10G23G27
  -2349617.32847  -1911691.36744  23816855.6664   23816853.5184
       653.5744
   1779275.51647   1383161.60243  23573439.0104   23573438.5804
     -1556.6054
  -3272845.73848  -2543353.25044  22676238.4084   22676238.1004
       799.2844
   4363126.79749   3392033.02347  21063361.0254   21063358.0684
     -2319.0294
   -239520.63746   -182211.42642  24717646.0574   24717644.9164
       672.4024
  11152968.92248   8674193.31644  23229273.3074   23229269.5684
     -4434.2954
    285973.71549    219586.32846  21748296.0254   21748294.5964
      -439.4484
 04  9  9 21 36 30.0020000  0  7G19G 3G 8G13G10G23G27
  -2359326.97747  -1919257.28144  23815007.7524   23815005.9204
       647.3104
   1802770.25847   1401469.21142  23577909.1194   23577908.5764
     -1566.3164
  -3284788.70748  -2552659.43745  22673965.7834   22673965.2404
       796.1984
   4398034.29749   3419233.66447  21070003.6504   21070001.0724
     -2327.1674
   -249485.78945   -189976.44141  24715748.9164   24715749.2874
       664.3434
  11219555.53148   8726078.95344  23241944.1894   23241940.7054
     -4439.1074
    292610.44549    224757.80946  21749558.9084   21749557.3184
      -442.4494
 04  9  9 21 36 45.0020000  0  7G19G 3G 8G13G10G23G27
  -2368943.30147  -1926750.48044  23813177.5964   23813175.5414
       641.0884
   1826409.83647   1419889.67243  23582408.0804   23582407.2874
     -1575.9724
  -3296686.29348  -2561930.25845  22671701.7834   22671701.6074
       793.1724
   4433063.03149   3446528.78946  21076669.4634   21076666.6274
     -2335.2494
   -259330.89145   -197647.91041  24713875.8464   24713875.7404
       656.3404
  11286213.24248   8778019.98444  23254628.9554   23254625.9394
     -4443.8474
    299291.24249    229963.63746  21750830.2604   21750828.8774
      -445.3864
 04  9  9 21 37  0.0020000  0  7G19G 3G 8G13G10G23G27
  -2378464.46947  -1934169.54343  23811365.4084   23811363.1864
       634.7454
   1850195.90648   1438424.28943  23586935.0414   23586934.0214
     -1585.7384
  -3308536.85948  -2571164.45744  22669446.9474   22669446.2444
       790.0384
   4468214.55149   3473919.58246  21083358.6824   21083355.4824
     -2343.4354
   -269054.00045   -205224.37141  24712025.8934   24712025.6744
       648.2074
  11352943.49248   8830017.53544  23267327.0574   23267323.8934
     -4448.6834
    306017.73849    235205.06646  21752110.2684   21752108.5764
      -448.4334
 04  9  9 21 37 15.0020000  0  7G19G 3G 8G13G10G23G27
  -2387891.71948  -1941515.44144  23809572.1434   23809569.1354
       628.4834
   1874126.69147   1457071.63343  23591488.1044   23591487.5884
     -1595.3864
  -3320342.07049  -2580363.30945  22667200.5724   22667199.6074
       787.0144
   4503487.11349   3501404.68047  21090071.0184   21090068.1624
     -2351.5044
   -278656.64845   -212706.90241  24710198.2604   24710198.4204
       640.1774
  11419744.38348   8882070.12944  23280039.2834   23280035.9004
     -4453.3934
    312788.14549    240480.71946  21753398.7054   21753396.9364
      -451.3604
 04  9  9 21 37 30.0020000  0  7G19G 3G 8G13G10G23G27
  -2397223.70347  -1948787.09043  23807796.7054   23807793.5684
       622.1324
   1898203.28147   1475832.60543  23596070.0644   23596069.3304
     -1605.1064
  -3332100.79748  -2589525.92245  22664962.8144   22664962.0214
       783.9154
   4538881.70749   3528984.88746  21096806.1274   21096803.7914
     -2359.6404
   -288137.50046   -220094.56241  24708394.0494   24708393.4944
       632.0574
  11486616.80948   8934178.46944  23292764.0494   23292761.4904
     -4458.1624
    319603.68449    245791.52746  21754696.0414   21754694.0294
      -454.3694
 04  9  9 21 37 45.0020000  0  7G19G 3G 8G13G10G23G27
  -2406459.98447  -1955984.15243  23806038.5804   23806035.6394
       615.7524
   1922425.85247   1494707.34442  23600679.1274   23600678.6664
     -1614.8384
  -3343813.11349  -2598652.38345  22662734.0964   22662733.5804
       780.8214
   4574398.61749   3556660.38347  21103564.7134   21103562.2054
     -2367.7944
   -297496.12545   -227387.00041  24706612.9864   24706613.3614
       623.9084
  11553560.68848   8986342.48044  23305502.8074   23305500.4004
     -4462.9254
    326464.36349    251137.52046  21756001.1504   21755998.9864
      -457.3794
 04  9  9 21 38  0.0020000  0  7G19G 3G 8G13G10G23G27
  -2415600.15247  -1963106.32043  23804298.4944   23804295.9554
       609.3454
   1946794.55548   1513695.95743  23605316.4794   23605315.8854
     -1624.5804
  -3355478.65249  -2607742.40645  22660514.3774   22660512.6194
       777.7034
   4610038.03949   3584431.35946  21110346.2754   21110343.8384
     -2375.9614
   -306732.33245   -234584.00841  24704855.7214   24704855.3114
       615.7474
  11620575.93048   9038562.10244  23318255.8934   23318252.6704
     -4467.6834
    333370.27349    256518.75446  21757315.1504   21757313.5644
      -460.3944
 04  9  9 21 38 15.0020000  0  7G19G 3G 8G13G10G23G27
  -2424643.75447  -1970153.23843  23802577.4004   23802575.4514
       602.9074
   1971309.47748   1532798.49243  23609981.3774   23609981.3574
     -1634.3284
  -3367097.59449  -2616796.10945  22658303.2214   22658301.7324
       774.5964
   4645799.96949   3612297.79747  21117152.0024   21117148.9364
     -2384.1294
   -315845.53146   -241685.14841  24703121.4394   24703121.7134
       607.5474
  11687662.45347   9090837.27044  23331022.3304   23331018.9824
     -4472.4354
    340321.67249    261935.43446  21758638.2754   21758636.0104
      -463.4274
 04  9  9 21 38 30.0020000  0  7G19G 3G 8G13G10G23G27
  -2433590.63747  -1977124.78944  23800875.4394   23800873.3964
       596.4594
   1995970.40648   1552014.80543  23614674.3224   23614674.1004
     -1644.0624
  -3378669.65249  -2625813.27744  22656100.9474   22656099.6744
       771.4714
   4681684.10949   3640259.46547  21123980.5334   21123978.1354
     -2392.2764
   -324835.94145   -248690.66441  24701410.3854   24701410.5024
       599.3614
  11754819.86348   9143167.66844  23343801.7134   23343798.9864
     -4477.1614
    347318.27749    267387.34046  21759969.5644   21759967.8224
      -466.4404
 04  9  9 21 38 45.0020000  0  7G19G 3G 8G13G10G23G27
  -2442440.39147  -1984020.68044  23799191.8544   23799189.4324
       589.9844
   2020777.60947   1571345.08243  23619394.5574   23619393.5334
     -1653.8144
  -3390194.94549  -2634794.00044  22653907.6664   22653906.5884
       768.3534
   4717690.57049   3668316.43847  21130832.3224   21130829.8344
     -2400.4314
   -333703.14545   -255600.17642  24699723.1744   24699723.2014
       591.1474
  11822048.12148   9195553.30144  23356595.1434   23356592.2054
     -4481.8844
    354360.18448    272874.54746  21761309.4634   21761307.6154
      -469.4604
 04  9  9 21 39  0.0020000  0  7G19G 3G 8G13G10G23G27
  -2451191.85947  -1990839.94944  23797526.2684   23797523.5064
       583.4314
   2045731.91047   1590790.00043  23624143.3224   23624142.7254
     -1663.6204
  -3401672.14549  -2643737.26644  22651724.2914   22651723.1314
       765.1474
   4753820.43048   3696469.57046  21137707.5414   21137704.5884
     -2408.6574
   -342445.96945   -262412.69142  24698059.5494   24698059.5534
       582.8554
  11889347.98448   9247994.71944  23369401.8224   23369399.1624
     -4486.6584
    361448.44148    278397.86746  21762658.2684   21762656.6354
      -472.5514
 04  9  9 21 39 15.0020000  0  7G19G 3G 8G13G10G23G27
  -2459844.44547  -1997582.17244  23795879.5024   23795876.5454
       576.8394
   2070833.41848   1610349.62143  23628921.1044   23628920.2174
     -1673.4344
  -3413101.45349  -2652643.19944  22649548.6744   22649548.2214
       761.9544
   4790073.70349   3724718.87547  21144606.1194   21144603.5804
     -2416.8854
   -351064.04746   -269128.04742  24696420.1744   24696419.2294
       574.5394
  11956719.28948   9300491.79344  23382222.0254   23382219.5964
     -4491.4204
    368583.04748    283957.30946  21764016.2364   21764014.1434
      -475.6404
 04  9  9 21 39 30.0030000  0  7G19G 3G 8G13G10G23G27
  -2468398.75846  -2004247.85243  23794251.2804   23794249.5264
       570.2884
   2096083.50447   1630025.03543  23633724.8194   23633724.7414
     -1683.3394
  -3424483.63749  -2661512.42245  22647383.1084   22647381.4764
       758.8124
   4826452.58648   3753066.05146  21151529.0774   21151526.4524
     -2425.2594
   -359557.94945   -275746.66442  24694802.8274   24694802.3354
       566.2604
  12024166.15248   9353047.75444  23395056.9134   23395053.5854
     -4496.4584
    375764.31648    289553.10246  21765382.8434   21765380.6124
      -478.7514
 04  9  9 21 39 45.0030000  0  7G19G 3G 8G13G10G23G27
  -2476852.24646  -2010834.94543  23792642.5464   23792640.1944
       563.5664
   2121480.09847   1649814.58642  23638557.6554   23638557.2924
     -1693.1064
  -3435816.38749  -2670343.11345  22645226.3974   22645225.2844
       755.5174
   4862953.31648   3781508.16447  21158474.9834   21158472.0224
     -2433.3824
   -367925.38345   -282266.72742  24693211.1554   24693210.4214
       557.8294
  12091680.54347   9405656.34044  23407904.1324   23407901.1554
     -4500.9594
    382992.38348    295185.36746  21766757.9684   21766755.9254
      -481.8714
 04  9  9 21 40  0.0030000  0  7G19G 3G 8G13G10G23G27
  -2485207.57046  -2017345.53143  23791052.1324   23791050.3514
       557.0224
   2147022.37948   1669717.68843  23643419.1164   23643418.3314
     -1702.8194
  -3447102.48448  -2679137.46544  22643078.9214   22643077.8004
       752.4074
   4899575.88348   3810045.22747  21165444.2024   21165441.5854
     -2441.5044
   -376169.02745   -288690.30542  24691641.9444   24691642.5774
       549.5764
  12159264.30547   9458318.96543  23420765.0224   23420761.7184
     -4505.5844
    390265.29348    300852.57846  21768142.2184   21768140.5774
      -484.8614
 04  9  9 21 40 15.0030000  0  7G19G 3G 8G13G10G23G27
  -2493463.77346  -2023778.88743  23789481.5934   23789479.9914
       550.4144
   2172710.99648   1689734.79343  23648306.8584   23648306.4524
     -1712.5744
  -3458341.49249  -2687895.10945  22640939.3194   22640938.7454
       749.2674
   4936321.02048   3838677.79347  21172436.0464   21172433.8354
     -2449.6764
   -384288.03945   -295016.73042  24690097.1554   24690096.8744
       541.2674
  12226917.85947   9511035.97343  23433639.3274   23433636.0074
     -4510.2374
    397583.72348    306555.25846  21769534.7264   21769533.3624
      -487.8954
 04  9  9 21 40 30.0030000  0  7G19G 3G 8G13G10G23G27
  -2501619.17646  -2030133.70744  23787929.5074   23787927.4254
       543.6934
   2198547.20748   1709866.90242  23653223.5544   23653221.5384
     -1722.4144
  -3469532.08649  -2696615.02345  22638810.2654   22638809.1044
       746.0404
   4973189.78548   3867406.68846  21179452.1014   21179449.4724
     -2457.9184
   -392280.89545   -301244.91442  24688576.3664   24688574.9684
       532.8574
  12294642.24247   9563808.16844  23446526.5154   23446524.0854
     -4514.9594
    404948.91448    312294.36346  21770936.2494   21770934.8864
      -491.0134
 04  9  9 21 40 45.0030000  0  7G19G 3G 8G13G10G23G27
  -2509673.13747  -2036409.47344  23786397.7724   23786394.7264
       536.9314
   2224531.50847   1730114.44143  23658167.5854   23658166.2844
     -1732.2874
  -3480673.69949  -2705296.80145  22636690.1554   22636689.2494
       742.7744
   5010182.85248   3896232.44146  21186491.6794   21186489.1124
     -2466.2044
   -400146.85545   -307374.25442  24687079.4294   24687078.2654
       524.3974
  12362437.78547   9616635.82044  23459428.4684   23459425.2184
     -4519.7034
    412361.41448    318070.35246  21772347.2724   21772345.0934
      -494.1674
 04  9  9 21 41  0.0030000  0  8G19G 3G 8G13G10G28G23G27
  -2517625.57847  -2042606.15244  23784884.0694   23784880.8944
       530.1634
   2250663.67648   1750477.14542  23663141.5384   23663139.7614
     -1742.1454
  -3491766.54349  -2713940.56245  22634579.7104   22634578.2334
       739.5234
   5047299.92249   3925154.82446  21193555.0774   21193552.4764
     -2474.4714
   -407886.08245   -313404.77342  24685606.2414   24685606.7804
       515.9484
    -67639.23056    -48657.72352  25026976.7024   25026977.6284

  12430304.05148   9669518.58644  23472343.1014   23472339.7844
     -4524.4184
    419820.87948    323882.92646  21773766.4294   21773764.3314
      -497.2984
 04  9  9 21 41 15.0030000  0  8G19G 3G 8G13G10G28G23G27
  -2525477.21546  -2048724.26644  23783389.7104   23783386.5814
       523.4424
   2276942.51648   1770954.16842  23668141.9054   23668141.4874
     -1751.9234
  -3502811.68049  -2722547.14845  22632477.3664   22632476.0424
       736.3424
   5084539.81348   3954172.91446  21200641.3044   21200638.4764
     -2482.6594
   -415499.27745   -319337.08642  24684157.7724   24684157.8824
       507.5464
    -97240.26247    -71723.39842  25021343.6404   25021344.3944
      1973.4024
  12498239.75848   9722455.46544  23485270.6794   23485266.9444
     -4529.0474
    427326.30548    329731.31646  21775194.3904   21775192.4604
      -500.3624
 04  9  9 21 41 30.0030000  0  8G19G 3G 8G13G10G28G23G27
  -2533226.74646  -2054762.81644  23781914.9914   23781912.8044
       516.6354
   2303369.09448   1791546.32042  23673170.2334   23673168.5774
     -1761.7724
  -3513808.14149  -2731115.80945  22630385.2964   22630383.4334
       733.0974
   5121903.47749   3983287.45746  21207751.1944   21207748.7654
     -2490.9114
   -422985.30545   -325170.35542  24682732.9134   24682732.6514
       499.0684
   -126801.58246    -94758.07442  25015717.4914   25015718.8824
      1970.7554
  12566245.77047   9775447.15644  23498211.2264   23498208.5624
     -4533.7344
    434878.83248    335616.41046  21776631.3974   21776629.8194
      -503.5024
 04  9  9 21 41 45.0030000  0  8G19G 3G 8G13G10G28G23G27
  -2540876.32846  -2060723.46543  23780458.6794   23780457.1324
       509.9724
   2329940.95748   1812251.66842  23678227.3744   23678225.8664
     -1771.4584
  -3524757.92649  -2739648.08645  22628301.0384   22628299.9444
       729.9864
   5159388.59849   4012496.63346  21214884.9054   21214882.3314
     -2499.0084
   -430346.27346   -330906.16842  24681331.9914   24681331.4094
       490.7314
   -156325.57446   -117763.72742  25010099.1554   25010100.4484
      1968.2664
  12634319.43847   9828491.51244  23511165.6474   23511162.7224
     -4538.2454
    442475.98049    341536.27346  21778077.2184   21778075.9444
      -506.4774
 04  9  9 21 42  0.0030000  0  8G19G 3G 8G13G10G28G23G27
  -2548423.01246  -2066603.97344  23779023.0694   23779020.4724
       503.1124
   2356660.64848   1833072.21943  23683311.7024   23683311.0894
     -1781.3134
  -3535658.78549  -2748142.24245  22626226.5304   22626225.9644
       726.7244
   5196997.74649   4041802.45346  21222041.6474   21222038.9794
     -2507.2774
   -437579.55546   -336542.46142  24679955.2184   24679955.2454
       482.2194
   -185809.41446   -140738.05942  25004489.1874   25004489.4994
      1965.5894
  12702463.10947   9881590.42644  23524133.4054   23524130.1514
     -4542.9114
    450120.13749    347492.75846  21779531.7574   21779530.4404
      -509.6104
 04  9  9 21 42 15.0030000  0  8G19G 3G 8G13G10G28G23G27
  -2555868.48847  -2072405.55544  23777606.3434   23777603.6944
       496.3654
   2383526.17648   1854006.40643  23688423.8124   23688423.8434
     -1791.0354
  -3546512.48849  -2756599.65645  22624161.5934   22624160.7064
       723.5804
   5234728.84849   4071203.31346  21229221.4764   21229218.5584
     -2515.4074
   -444686.85546   -342080.59042  24678602.4054   24678602.8664
       473.8204
   -215254.88346   -163682.49242  24998885.6324   24998886.1124
      1963.0314
  12770674.66447   9934742.25443  23537112.9374   23537110.7724
     -4547.4374
    457809.59049    353484.54346  21780995.3124   21780993.3704
      -512.6304
 04  9  9 21 42 30.0030000  0  8G19G 3G 8G13G10G28G23G27
  -2563210.39847  -2078126.50044  23776209.8124   23776206.3004
       489.4614
   2410539.61347   1875055.84843  23693564.3974   23693563.7104
     -1800.8964
  -3557317.21149  -2765018.91845  22622105.6474   22622104.5224
       720.3154
   5272583.87548   4100700.73446  21236425.1324   21236422.2264
     -2523.6684
   -451665.94145   -347518.83242  24677275.5154   24677275.2294
       465.2724
   -244659.82846   -186595.31642  24993289.5464   24993290.9334
      1960.3304
  12838955.81347   9987948.30144  23550106.3744   23550103.6984
     -4552.0774
    465546.23048    359513.10546  21782467.5774   21782465.8124
      -515.7764
 04  9  9 21 42 45.0030000  0  8G19G 3G 8G13G10G28G23G27
  -2570447.65647  -2083765.88344  23774832.0384   23774828.9174
       482.4844
   2437701.71948   1896221.11342  23698733.1714   23698732.3234
     -1810.8074
  -3568072.00049  -2773399.24645  22620058.5464   22620057.5224
       716.9864
   5310563.60949   4130295.32046  21243652.5854   21243650.0424
     -2531.9824
   -458515.74645   -352856.32442  24675971.7804   24675971.8234
       456.6544
   -274023.23047   -209475.77342  24987702.4834   24987704.3784
      1957.5604
  12907307.25847  10041209.12543  23563113.3974   23563111.0114
     -4556.7634
    473330.91049    365579.08246  21783948.8124   21783947.2654
      -518.9794
 04  9  9 21 43  0.0030000  0  8G19G 3G 8G13G10G28G23G27
  -2577580.49246  -2089323.90643  23773474.2964   23773471.7534
       475.5224
   2465011.82848   1917501.73442  23703930.1554   23703929.4374
     -1820.6744
  -3578777.24649  -2781740.98444  22618021.6404   22618020.0464
       713.6834
   5348667.63748   4159986.76247  21250903.3124   21250900.9014
     -2540.2684
   -465236.65646   -358093.39842  24674693.3194   24674692.7574
       448.0614
   -303345.37947   -232324.11742  24982122.7184   24982123.9684
      1954.8104
  12975728.23847  10094524.11743  23576133.3354   23576131.5224
     -4561.3994
    481163.05148    371682.06346  21785439.3514   21785437.9404
      -522.1434
 04  9  9 21 43 15.0030000  0  8G19G 3G 8G13G10G28G23G27
  -2584609.18447  -2094800.74643  23772137.1084   23772134.9444
       468.5794
   2492469.52048   1938897.35943  23709154.5774   23709154.5654
     -1830.5134
  -3589433.62549  -2790044.64145  22615993.4294   22615992.5114
       710.4254
   5386895.31648   4189774.55547  21258177.7414   21258175.0464
     -2548.5124
   -471829.03146   -363230.27742  24673438.4684   24673438.3234
       439.4924
   -332626.62147   -255140.58242  24976551.2264   24976552.0194
      1952.0834
  13044218.08247  10147892.77343  23589166.6874   23589163.7764
     -4565.9904
    489042.10248    377821.58246  21786938.6244   21786937.1834
      -525.2704
 04  9  9 21 43 30.0030000  0  8G19G 3G 8G13G10G28G23G27
  -2591534.11746  -2100196.77044  23770818.4604   23770816.6404
       461.6624
   2520074.09448   1960407.41043  23714407.6634   23714407.5734
     -1840.3054
  -3600041.67649  -2798310.63345  22613974.8664   22613973.7884
       707.2034
   5425245.84448   4219658.08247  21265475.3974   21265472.7104
     -2556.7024
   -478293.21546   -368267.29342  24672208.1634   24672207.9524
       430.9464
   -361867.54748   -277925.64542  24970985.9134   24970988.1514
      1949.3954
  13112775.79347  10201314.33643  23602212.9684   23602210.3004
     -4570.5144
    496967.44948    383997.19146  21788446.9054   21788444.9054
      -528.3574
 04  9  9 21 43 45.0030000  0  8G19G 3G 8G13G10G28G23G27
  -2598354.32847  -2105511.19144  23769522.1164   23769519.4054
       454.6814
   2547826.02748   1982032.28142  23719688.9054   23719688.0304
     -1850.1294
  -3610600.69549  -2806538.42645  22611965.8824   22611964.5504
       703.9354
   5463719.91448   4249637.85946  21272797.1014   21272794.2964
     -2564.9384
   -484628.44945   -373203.81642  24671002.4054   24671002.2534
       422.3494
   -391067.37947   -300678.65242  24965429.4684   24965430.5734
      1946.6554
  13181401.90647  10254789.18443  23615271.8974   23615269.3234
     -4575.0744
    504939.86748    390209.47346  21789963.9914   21789962.0854
      -531.4954
 04  9  9 21 44  0.0030000  0  8G19G 3G 8G13G10G28G23G27
  -2605067.11347  -2110741.87144  23768244.0694   23768241.3474
       447.5194
   2575727.71948   2003773.88342  23724997.9764   23724997.9644
     -1860.1134
  -3621108.40249  -2814726.23845  22609966.2184   22609965.1284
       700.5144
   5502319.91048   4279715.77346  21280142.4444   21280139.7024
     -2573.3334
   -490832.05945   -378037.78142  24669821.7024   24669821.8004
       413.5744
   -420223.50847   -323397.60942  24959881.0624   24959882.8864
      1943.7424
  13250098.57847  10308319.01643  23628344.1474   23628342.0074
     -4579.7784
    512961.55149    396460.12946  21791490.4834   21791488.5894
      -534.7794
 04  9  9 21 44 15.0030000  0  8G19G 3G 8G13G10G28G23G27
  -2611673.16446  -2115889.39544  23766986.5934   23766983.9764
       440.4034
   2603778.30548   2025631.48043  23730336.3974   23730335.7294
     -1870.0394
  -3631565.69549  -2822874.75445  22607975.9444   22607974.9644
       697.1534
   5541044.73848   4309890.94946  21287511.3744   21287509.1444
     -2581.6554
   -496904.94545   -382769.89142  24668666.6014   24668666.0384
       404.8594
   -449336.63748   -346083.09842  24954341.7654   24954342.6244
      1940.8754
  13318864.52747  10361902.84843  23641430.5774   23641427.4404
     -4584.3974
    521031.58248    402748.47746  21793025.5774   21793024.6244
      -538.0024
 04  9  9 21 44 30.0030000  0  8G19G 3G 8G13G10G28G23G27
  -2618175.20346  -2120955.89843  23765748.9914   23765746.6634
       433.4694
   2631974.60947   2047602.64142  23735701.8354   23735701.4564
     -1879.7544
  -3641975.49649  -2830986.27745  22605995.4524   22605994.0114
       693.9874
   5579891.57049   4340161.19546  21294903.6244   21294901.1364
     -2589.7894
   -502849.89146   -387402.27043  24667535.6164   24667534.4684
       396.3304
   -478409.64848   -368737.31242  24948808.8974   24948810.1944
      1938.2014
  13387696.60548  10415538.19143  23654529.1554   23654525.8194
     -4588.8054
    529147.02348    409072.20346  21794570.2104   21794568.6204
      -541.0294
 04  9  9 21 44 45.0030000  0  8G19G 3G 8G13G10G28G23G27
  -2624571.88747  -2125940.27743  23764531.8274   23764528.5814
       426.4464
   2660317.60548   2069688.09443  23741095.9524   23741094.7764
     -1889.5334
  -3652336.91449  -2839060.09045  22604023.4054   22604022.2184
       690.7614
   5618861.12949   4370527.07846  21302319.6404   21302317.2294
     -2597.9714
   -508665.70346   -391934.03942  24666427.8194   24666428.3514
       387.7214
   -507441.32448   -391359.29742  24943284.4374   24943285.2454
      1935.4454
  13456595.61347  10469225.69543  23667639.6944   23667636.2374
     -4593.2674
    537308.82049    415432.05146  21796123.3824   21796121.8124
      -544.1204
 04  9  9 21 45  0.0030000  0  8G19G 3G 8G13G10G28G23G27
  -2630861.62546  -2130841.35543  23763335.2024   23763331.9334
       419.3164
   2688808.60548   2091888.88343  23746517.3514   23746516.6404
     -1899.4004
  -3662648.33249  -2847094.93744  22602061.8044   22602059.9404
       687.4284
   5657954.78949   4400989.65646  21309758.4294   21309756.3584
     -2606.2444
   -514350.74246   -396363.94142  24665346.2104   24665346.4374
       379.0034
   -536430.06647   -413947.82442  24937767.9524   24937768.6904
      1932.5834
  13525562.78547  10522966.31343  23680763.5624   23680760.3044
     -4597.8114
    545518.34048    421829.08246  21797685.7264   21797683.8434
      -547.3014
 04  9  9 21 45 15.0030000  0  8G19G 3G 8G13G10G28G23G27
  -2637043.48447  -2135658.33244  23762158.6014   23762155.2844
       412.1244
   2717448.27748   2114205.51243  23751966.6794   23751966.3974
     -1909.3114
  -3672909.14149  -2855090.35944  22600108.7104   22600107.0114
       684.0544
   5697173.25449   4431549.50046  21317221.7964   21317219.5464
     -2614.5644
   -519904.27346   -400691.34042  24664289.1324   24664289.0694
       370.2354
   -565375.21948   -436502.39542  24932259.8354   24932260.1364
      1929.6774
  13594598.44147  10576760.26643  23693900.9524   23693897.3354
     -4602.3774
    553776.23848    428263.82046  21799256.8974   21799255.4334
      -550.5274
 04  9  9 21 45 30.0030000  0  8G19G 3G 8G13G10G28G23G27
  -2643119.16847  -2140392.59843  23761002.2264   23761000.1834
       405.0464
   2746234.61748   2136636.41042  23757444.9764   23757443.8664
     -1919.0894
  -3683121.21949  -2863047.79745  22598165.5154   22598163.7104
       680.8054
   5736514.42649   4462204.94146  21324708.1324   21324705.5424
     -2622.7454
   -525327.94946   -404917.56642  24663257.5304   24663256.8004
       361.5784
   -594278.51647   -459024.35542  24926759.7574   24926760.3354
      1926.8864
  13663700.48847  10630605.97743  23707050.4684   23707047.3624
     -4606.8034
    562080.67249    434734.80946  21800837.3194   21800835.6404
      -553.6294
 04  9  9 21 45 45.0030000  0  8G19G 3G 8G13G10G28G23G27
  -2649088.44546  -2145043.94543  23759866.7964   23759864.0264
       397.9524
   2775167.31648   2159181.39142  23762950.4134   23762950.0654
     -1928.8474
  -3693284.96549  -2870967.58645  22596231.0934   22596229.5974
       677.5834
   5775978.18049   4492955.91446  21332217.8974   21332215.3124
     -2630.9174
   -530621.89846   -409042.68042  24662250.7264   24662249.4214
       352.9304
   -623139.87547   -481513.63342  24921267.0464   24921267.8394
      1924.0914
  13732868.47747  10684503.06643  23720213.2884   23720209.8234
     -4611.1994
    570431.39549    441241.86346  21802426.6874   21802424.8194
      -556.7154
 04  9  9 21 46  0.0030000  0  8G19G 3G 8G13G10G28G23G27
  -2654951.16447  -2149612.25843  23758750.3274   23758748.2414
       390.8484
   2804246.35248   2181840.38743  23768484.1084   23768483.0194
     -1938.6024
  -3703400.38749  -2878849.71945  22594306.2804   22594305.1014
       674.3614
   5815564.24649   4523802.20346  21339750.5694   21339748.8394
     -2639.0714
   -535786.09446   -413066.69942  24661267.6474   24661266.9994
       344.2804
   -651959.31647   -503970.22342  24915782.9914   24915783.4724
      1921.2964
  13802102.07447  10738451.27043  23733387.8904   23733384.5074
     -4615.5734
    578828.30949    447784.91446  21804024.2654   21804022.5584
      -559.7944
 04  9  9 21 46 15.0030000  0  8G19G 3G 8G13G10G28G23G27
  -2660707.15647  -2154097.42643  23757656.0464   23757652.5424
       383.7334
   2833471.36747   2204613.11742  23774045.2104   23774044.3314
     -1948.3344
  -3713467.45749  -2886694.17245  22592390.7804   22592389.7104
       671.1384
   5855272.44549   4554743.63746  21347307.0694   21347304.1984
     -2647.2134
   -540820.37946   -416989.47742  24660309.3354   24660309.6634
       335.6194
   -680736.81247   -526394.17242  24910306.5934   24910306.7374
      1918.5004
  13871400.93847  10792450.35243  23746575.3434   23746572.0934
     -4619.9244
    587271.12949    454363.74646  21805631.1554   21805629.2884
      -562.8554
 04  9  9 21 46 30.0030000  0  8G19G 3G 8G13G10G28G23G27
  -2666354.41447  -2158497.86344  23756581.4914   23756578.0344
       376.4844
   2862844.31648   2227501.14142  23779634.2104   23779634.1904
     -1958.1974
  -3723484.31649  -2894499.49645  22590484.4684   22590483.0694
       667.7914
   5895104.67649   4585781.73846  21354887.1944   21354884.4214
     -2655.4824
   -545722.68045   -420809.44542  24659376.9054   24659376.8274
       326.8204
   -709470.28948   -548783.78542  24904838.7264   24904837.9294
      1915.5654
  13940766.60547  10846501.48044  23759775.1874   23759771.8434
     -4624.3784
    595761.78149    460979.84446  21807246.5224   21807245.0934
      -566.0434
 04  9  9 21 46 45.0030000  0  8G19G 3G 8G13G10G28G23G27
  -2671896.52747  -2162816.37544  23755526.3354   23755523.9054
       369.4744
   2892361.25448   2250501.33242  23785251.1164   23785250.7024
     -1967.7964
  -3733454.93749  -2902268.79745  22588587.5074   22588585.8234
       664.7084
   5935057.09849   4616913.48046  21362489.7414   21362487.1834
     -2663.4954
   -550496.65645   -424529.43442  24658468.7724   24658467.6904
       318.2654
   -738163.38747   -571141.98442  24899378.4214   24899376.9564
      1912.8734
  14010195.13746  10900601.60243  23772986.2494   23772983.7574
     -4628.5694
    604296.47749    467630.25446  21808870.7024   21808869.0194
      -568.9804
 04  9  9 21 47  0.0030000  0  8G19G 3G 8G13G10G28G23G27
  -2677331.73846  -2167051.57443  23754491.8824   23754489.6904
       362.3474
   2922023.45747   2273614.75442  23790895.9444   23790894.6324
     -1977.4804
  -3743377.91049  -2910000.96545  22586698.8354   22586697.7804
       661.5324
   5975130.91849   4648139.82846  21370115.1794   21370113.1904
     -2671.5884
   -555140.79345   -428148.19542  24657583.2334   24657583.8864
       309.6094
   -766814.52347   -593467.43742  24893926.5464   24893925.4564
      1910.0764
  14079687.76247  10954751.66043  23786210.6474   23786208.4094
     -4632.8424
    612876.75049    474316.18846  21810503.5854   21810501.6444
      -572.0184
 04  9  9 21 47 15.0030000  0  8G19G 3G 8G13G10G28G23G27
  -2682660.07047  -2171203.47743  23753477.4214   23753475.6324
       355.2224
   2951830.57447   2296841.08642  23796568.3194   23796567.0544
     -1987.1414
  -3753253.38749  -2917696.12145  22584819.7024   22584818.7374
       658.3654
   6015325.80549   4679460.50846  21377764.4764   21377761.4524
     -2679.6594
   -559655.22346   -431665.88742  24656725.5624   24656724.9874
       300.9624
   -795423.98847   -615760.44142  24888482.1404   24888480.6674
      1907.2984
  14149243.81647  11008951.13343  23799446.9684   23799444.6244
     -4637.0704
    621502.09049    481037.24246  21812144.8664   21812143.2724
      -575.0234
 04  9  9 21 47 30.0030000  0  8G19G 3G 8G13G10G28G23G27
  -2687880.93747  -2175271.64844  23752484.0544   23752482.4294
       348.0584
   2981782.84048   2320180.50042  23802268.1554   23802267.8314
     -1996.8184
  -3763080.95749  -2925353.94145  22582949.6554   22582948.2764
       655.1714
   6055641.97749   4710875.70747  21385436.1244   21385433.2414
     -2687.7454
   -564039.50845   -435082.20342  24655890.8274   24655890.7064
       292.2864
   -823991.09047   -638020.43042  24883046.1084   24883045.2694
      1904.4734
  14218863.49648  11063200.18843  23812694.8354   23812692.9174
     -4641.3124
    630172.99249    487793.79346  21813794.8664   21813792.9724
      -578.0604
 04  9  9 21 47 45.0030000  0  8G19G 3G 8G13G10G28G23G27
  -2692994.08247  -2179255.88744  23751511.6164   23751509.0344
       340.8764
   3011880.18047   2343632.98042  23807995.3824   23807994.8824
     -2006.4894
  -3772860.78949  -2932974.57445  22581088.2264   22581087.1164
       651.9894
   6096079.40649   4742385.39546  21393130.9604   21393128.4134
     -2695.8294
   -568293.52346   -438397.03542  24655081.3744   24655081.3434
       283.6014
   -852515.93048   -660247.48842  24877617.9444   24877616.7534
      1901.6564
  14288546.55947  11117498.64143  23825955.4054   23825953.0654
     -4645.5374
    638889.24249    494585.67246  21815453.5774   21815451.4724
      -581.0834
 04  9  9 21 48  0.0030000  0  8G19G 3G 8G13G10G28G23G27
  -2697999.25847  -2183156.00844  23750558.9524   23750556.2264
       333.6784
   3042122.74247   2367198.61742  23813750.2884   23813748.8784
     -2016.1714
  -3782592.82849  -2940557.96145  22579236.2334   22579234.9994
       648.8034
   6136638.09049   4773989.55546  21400849.2654   21400847.0584
     -2703.9124
   -572416.93045   -441610.03942  24654296.0384   24654296.6014
       274.8944
   -880998.05947   -682441.28542  24872198.0224   24872197.8624
      1898.8094
  14358292.73048  11171846.26243  23839227.8044   23839225.1634
     -4649.7454
    647650.92249    501412.95746  21817120.7884   21817118.9214
      -584.1124
 04  9  9 21 48 15.0030000  0  8G19G 3G 8G13G10G28G23G27
  -2702896.13347  -2186971.71543  23749626.6474   23749623.6474
       326.4584
   3072510.34448   2390877.27742  23819532.6014   23819532.1404
     -2025.8404
  -3792276.94949  -2948104.01645  22577393.6404   22577392.0814
       645.6084
   6177317.95349   4805688.14846  21408590.3354   21408587.9834
     -2711.9914
   -576409.76245   -444721.32442  24653536.3124   24653536.4604
       266.1894
   -909437.51647   -704601.81242  24866785.8904   24866786.0934
      1895.9644
  14428101.81347  11226242.91443  23852511.7334   23852509.9174
     -4653.9394
    656458.00849    508275.63346  21818796.7334   21818795.1984
      -587.1394
 04  9  9 21 48 30.0030000  0  8G19G 3G 8G13G10G28G23G27
  -2707685.02047  -2190703.28143  23748715.7184   23748712.3904
       319.2594
   3103042.43847   2414668.50442  23825342.8434   23825343.0074
     -2035.4734
  -3801913.63749  -2955613.10545  22575559.9524   22575558.5894
       642.4464
   6218118.37549   4837480.67646  21416354.1474   21416351.7764
     -2720.0284
   -580272.18745   -447730.99242  24652800.8824   24652801.4214
       257.4954
   -937834.60546   -726729.29342  24861381.3044   24861382.4794
      1893.1394
  14497973.02347  11280687.97343  23865808.6554   23865805.7844
     -4658.0814
    665309.99249    515173.28946  21820481.4834   21820479.4874
      -590.1324
 04  9  9 21 48 45.0030000  0  8G19G 3G 8G13G10G28G23G27
  -2712363.97747  -2194349.19144  23747824.9294   23747822.8904
       311.9304
   3133720.53947   2438573.52042  23831181.0774   23831180.3474
     -2045.2074
  -3811501.18449  -2963083.90645  22573735.7334   22573733.9794
       639.1704
   6259040.94949   4869368.39146  21424141.9914   21424139.3274
     -2728.1724
   -584002.43045   -450637.64842  24652092.0544   24652092.2694
       248.6834
   -966187.52746   -748822.38742  24855986.1634   24855987.0544
      1890.1954
  14567907.86347  11335182.61343  23879116.6164   23879113.6124
     -4662.3234
    674208.63349    522107.28946  21822174.6014   21822172.6944
      -593.2434
 04  9  9 21 49  0.0030000  0  8G19G 3G 8G13G10G28G23G27
  -2716934.39147  -2197910.54743  23746955.7654   23746952.8434
       304.6944
   3164542.78548   2462590.86342  23837045.8354   23837044.7574
     -2054.8164
  -3821041.46949  -2970517.88345  22571920.2884   22571918.6874
       636.0194
   6300083.88349   4901349.89147  21431951.8514   21431949.5264
     -2736.1964
   -587602.03546   -453442.50842  24651406.7724   24651407.0424
       239.9744
   -994497.73847   -770882.21542  24850599.3904   24850600.2764
      1887.3474
  14637904.33648  11389725.25443  23892436.4374   23892433.6364
     -4666.4324
    683152.07849    529076.21946  21823876.6404   21823874.6364
      -596.2304
 04  9  9 21 49 15.0030000  0  8G19G 3G 8G13G10G28G23G27
  -2721395.75448  -2201386.89544  23746106.8514   23746104.8314
       297.4244
   3195509.54347   2486720.79342  23842939.1554   23842938.0854
     -2064.4514
  -3830534.06648  -2977914.69545  22570113.4764   22570112.5034
       632.8404
   6341247.46149   4933425.39546  21439784.8744   21439782.0344
     -2744.2394
   -591070.58646   -456145.25842  24650746.3744   24650746.4094
       231.2374
  -1022764.76247   -792908.36742  24845219.7964   24845220.7064
      1884.4684
  14707962.57447  11444316.04743  23905767.3974   23905764.4764
     -4670.5494
    692140.72749    536080.35946  21825586.7724   21825585.0544
      -599.2434
 04  9  9 21 49 30.0030000  0  8G19G 3G 8G13G10G28G23G27
  -2725746.60247  -2204777.15644  23745278.8514   23745276.0734
       290.0574
   3226621.82048   2510964.09842  23848859.3664   23848859.0584
     -2074.1524
  -3839977.91849  -2985273.51245  22568316.3124   22568315.1284
       629.5904
   6382532.82449   4965595.80546  21447641.2264   21447638.8194
     -2752.3584
   -594406.66846   -458744.79342  24650111.2654   24650111.2144
       222.4054
  -1050987.40247   -814899.94542  24839848.8904   24839850.6674
      1881.5094
  14778083.44547  11498955.65243  23919111.2724   23919108.1124
     -4674.7254
    701175.76649    543120.64846  21827306.3584   21827304.5264
      -602.3364
 04  9  9 21 49 45.0030000  0  8G19G 3G 8G13G10G28G23G27
  -2729989.04747  -2208082.91844  23744471.4054   23744468.5114
       282.8304
   3257877.14547   2535318.89542  23854806.8194   23854806.4684
     -2083.6884
  -3849375.36349  -2992596.18045  22566528.1324   22566526.8744
       626.4964
   6423937.52749   4997859.19946  21455520.7104   21455517.7694
     -2760.3144
   -597612.49246   -461242.83642  24649501.7724   24649500.8944
       213.7224
  -1079167.83247   -836858.63742  24834486.4764   24834487.5504
      1878.6954
  14848264.41048  11553642.08643  23932466.4914   23932463.3044
     -4678.7314
    710254.59449    550195.07846  21829033.8514   21829032.3904
      -605.2554
 04  9  9 21 50  0.0030000  0  8G19G 3G 8G13G10G28G23G27
  -2734121.64847  -2211303.10944  23743685.0224   23743682.2224
       275.5074
   3289276.66047   2559786.05542  23860781.8434   23860780.7924
     -2093.3014
  -3858724.90249  -2999881.52745  22564748.9524   22564747.1124
       623.3034
   6465462.72749   5030216.49246  21463422.3124   21463419.8084
     -2768.3474
   -600686.80946   -463638.39142  24648917.0934   24648916.0814
       204.9544
  -1107304.57447   -858783.27342  24829132.8194   24829133.1474
      1875.7834
  14918506.46547  11608376.11342  23945832.7884   23945829.7184
     -4682.8044
    719378.66049    557304.73446  21830770.1244   21830768.0584
      -608.2714
 04  9  9 21 50 15.0030000  0  8G19G 3G 8G13G10G28G23G27
  -2738144.12547  -2214437.48444  23742919.1714   23742916.7024
       268.1654
   3320820.46147   2584365.61742  23866784.7654   23866784.2184
     -2102.9204
  -3868026.62549  -3007129.60545  22562978.9214   22562977.3474
       620.1154
   6507108.34849   5062667.60946  21471347.3904   21471344.9174
     -2776.3754
   -603629.29345   -465931.23442  24648357.0854   24648356.3784
       196.1664
  -1135397.53547   -880673.79742  24823785.6794   24823786.5694
      1872.8644
  14988809.40247  11663157.56642  23959211.1794   23959207.3664
     -4686.8624
    728547.95349    564449.65246  21832515.0304   21832513.0934
      -611.2864
 04  9  9 21 50 30.0030000  0  8G19G 3G 8G13G10G28G23G27
  -2742057.28947  -2217486.65643  23742174.9524   23742172.1754
       260.8784
   3352507.18447   2609056.57842  23872814.6404   23872814.0694
     -2112.4484
  -3877281.60249  -3014341.27045  22561217.9914   22561216.4054
       616.9984
   6548873.20349   5095211.65246  21479294.7804   21479292.6874
     -2784.3244
   -606441.11346   -468122.20742  24647821.8044   24647821.7724
       187.4554
  -1163447.68746   -902530.98842  24818448.2804   24818448.1554
      1870.0104
  15059171.75447  11717985.32443  23972601.5304   23972597.8084
     -4690.8234
    737761.29749    571628.87946  21834268.4294   21834266.4054
      -614.2234
 04  9  9 21 50 45.0030000  0  8G19G 3G 8G13G10G28G23G27
  -2745862.11747  -2220451.43444  23741450.5154   23741447.9794
       253.6554
   3384335.68447   2633857.99242  23878871.3664   23878870.3474
     -2121.9004
  -3886490.93449  -3021517.35545  22559465.4374   22559463.9644
       613.9554
   6590756.04349   5127847.62546  21487264.8124   21487262.4874
     -2792.1894
   -609123.10946   -470212.07442  24647311.5774   24647310.8584
       178.8004
  -1191455.88746   -924355.46942  24813118.9294   24813118.8744
      1867.2134
  15129592.30947  11772858.42243  23986002.0074   23985998.6554
     -4694.7044
    747017.71549    578841.67647  21836029.7264   21836027.7184
      -617.0954
 04  9  9 21 51  0.0030000  0  8G19G 3G 8G13G10G28G23G27
  -2749557.69948  -2223331.07844  23740747.3274   23740745.0114
       246.3724
   3416306.22747   2658770.10542  23884955.3194   23884954.0854
     -2131.3704
  -3895654.19549  -3028657.54745  22557721.6164   22557720.6944
       610.8844
   6632757.34049   5160575.89146  21495257.8194   21495254.8314
     -2800.0864
   -611674.56246   -472200.19942  24646825.5224   24646824.9404
       170.0974
  -1219421.46147   -946146.75042  24807796.4914   24807797.4604
      1864.3724
  15200071.30148  11827777.06643  23999413.8584   23999410.0154
     -4698.5994
    756317.64849    586088.38346  21837799.5694   21837797.3314
      -619.9964
 04  9  9 21 51 15.0030000  0  8G19G 3G 8G13G10G28G23G27
  -2753142.65648  -2226124.53944  23740065.3434   23740062.5154
       238.9974
   3448419.98047   2683793.79742  23891066.2104   23891065.6834
     -2140.9174
  -3904770.10549  -3035760.83245  22555987.1244   22555985.6404
       607.7274
   6674878.17649   5193397.31646  21503273.1404   21503270.0734
     -2808.0564
   -614094.19547   -474085.63742  24646364.5854   24646364.9794
       161.3094
  -1247343.22747   -967903.87542  24802483.1014   24802484.2804
      1861.4514
  15270609.71547  11882742.03543  24012836.2654   24012833.6124
     -4702.5614
    765662.12149    593369.79746  21839577.8274   21839575.9724
      -622.9654
 04  9  9 21 51 30.0030000  0  8G19G 3G 8G13G10G28G23G27
  -2756615.89147  -2228830.95344  23739404.7334   23739401.4994
       231.5494
   3480677.84847   2708929.77342  23897204.9374   23897203.8084
     -2150.5244
  -3913837.78549  -3042826.53945  22554261.4914   22554259.9134
       604.5124
   6717119.29749   5226312.46946  21511311.3904   21511308.6014
     -2816.0754
   -616380.92647   -475867.46542  24645929.9914   24645930.2024
       152.4494
  -1275220.04347   -989625.97342  24797178.3584   24797178.6124
      1858.4544
  15341208.06648  11937753.69943  24026270.7184   24026268.2804
     -4706.5574
    775052.15649    600686.71146  21841364.5934   21841362.4834
      -626.0024
 04  9  9 21 51 45.0030000  0  8G19G 3G 8G13G10G28G23G27
  -2759976.84847  -2231449.82844  23738764.7024   23738761.8544
       224.0644
   3513079.97747   2734178.19542  23903370.3824   23903369.7264
     -2160.1424
  -3922857.03949  -3049854.51645  22552545.1084   22552543.8354
       601.2844
   6759480.99649   5259321.57446  21519372.2334   21519370.5154
     -2824.1134
   -618534.28547   -477545.38742  24645520.2724   24645521.0264
       143.5574
  -1303051.42647  -1011312.68742  24791882.3354   24791882.0934
      1855.4264
  15411866.55147  11992812.19542  24039716.4444   24039713.8944
     -4710.5664
    784488.04749    608039.35946  21843160.1634   21843157.9604
      -629.0594
 04  9  9 21 52  0.0030000  0  8G19G 3G 8G13G10G28G23G27
  -2763223.58647  -2233979.69944  23738146.9214   23738144.1794
       216.4494
   3545627.95747   2759540.23843  23909564.7334   23909563.5974
     -2169.8654
  -3931826.36749  -3056843.57845  22550838.0934   22550836.2884
       597.9554
   6801964.77049   5292425.81346  21527456.4604   21527453.9954
     -2832.2524
   -620552.56646   -479118.06642  24645136.4444   24645137.3664
       134.5524
  -1330835.68447  -1032962.69542  24786595.3664   24786595.0854
      1852.2844
  15482586.46547  12047918.57042  24053173.3824   24053171.7614
     -4714.6614
    793971.32049    615428.93446  21844964.4994   21844962.3904
      -632.2184
 04  9  9 21 52 15.0030000  0  8G19G 3G 8G13G10G28G23G27
  -2766354.68448  -2236419.50844  23737551.1164   23737548.5344
       208.7404
   3578322.71547   2785016.67642  23915786.1474   23915785.7694
     -2179.6514
  -3940744.32049  -3063792.63345  22549141.0934   22549139.1944
       594.5304
   6844571.75449   5325626.04746  21535564.7414   21535561.6634
     -2840.4664
   -622434.41447   -480584.44542  24644778.0694   24644778.5774
       125.4574
  -1358571.47347  -1054574.93442  24781317.1554   24781316.7764
      1849.0534
  15553368.70747  12103073.49642  24066642.9374   24066640.9724
     -4718.8164
    803503.23449    622856.39846  21846778.5694   21846776.1014
      -635.4614
 04  9  9 21 52 30.0030000  0  8G19G 3G 8G13G10G28G23G27
  -2769372.43748  -2238770.99244  23736976.8434   23736973.8394
       201.1844
   3611161.77047   2810605.53943  23922035.1944   23922034.7694
     -2189.2704
  -3949613.41049  -3070703.59045  22547453.2654   22547452.1404
       591.2734
   6887299.44949   5358920.35246  21543695.4214   21543692.5584
     -2848.5134
   -624182.28146   -481946.40242  24644445.9054   24644446.0774
       116.5244
  -1386261.21147  -1076151.28542  24776048.1404   24776047.6084
      1845.9834
  15624210.64847  12158274.98043  24080124.3044   24080121.8274
     -4722.7964
    813081.28549    630319.82046  21848601.1474   21848598.8004
      -638.5374
 04  9  9 21 52 45.0030000  0  8G19G 3G 8G13G10G28G23G27
  -2772275.24648  -2241032.90644  23736425.0854   23736421.4834
       193.5214
   3644146.43047   2836307.85542  23928312.2494   23928311.1084
     -2198.9774
  -3958432.14149  -3077575.31245  22545775.2724   22545774.4834
       587.9154
   6930148.88349   5392309.51246  21551849.1874   21551847.2694
     -2856.6294
   -625794.72346   -483202.83242  24644138.0224   24644139.2924
       107.4964
  -1413903.34847  -1097690.54342  24770788.3124   24770787.2574
      1842.8094
  15695113.37147  12213523.78543  24093616.5224   24093614.2454
     -4726.8484
    822706.84849    637820.25846  21850432.7724   21850430.7924
      -641.7044
 04  9  9 21 53  0.0030000  0  8G19G 3G 8G13G10G28G23G27
  -2775064.47347  -2243206.30544  23735893.1874   23735890.5384
       185.9484
   3677274.83647   2862122.19142  23934615.5154   23934615.9214
     -2208.5604
  -3967202.17249  -3084409.09845  22544106.2104   22544104.9644
       584.6694
   6973118.63749   5425792.41446  21560026.2654   21560024.1014
     -2864.6504
   -627273.23846   -484354.89842  24643857.7184   24643857.4794
        98.5684
  -1441499.17647  -1119193.72742  24765536.2494   24765536.3584
      1839.7224
  15766075.00447  12268818.50042  24107120.2024   24107117.6714
     -4730.7764
    832378.28949    645356.45346  21852273.4054   21852271.7374
      -644.7634
 04  9  9 21 53 15.0030000  0  8G19G 3G 8G13G10G28G23G27
  -2777738.20748  -2245289.68744  23735385.1944   23735381.7924
       178.2494
   3710548.41447   2888049.64142  23940947.6404   23940947.7184
     -2218.2394
  -3975922.06649  -3091203.80545  22542447.2104   22542446.0194
       581.3264
   7016210.03549   5459370.11746  21568226.4914   21568223.9294
     -2872.7604
   -628615.96947   -485401.16842  24643602.3904   24643602.2614
        89.5154
  -1469047.07448  -1140659.54742  24760294.6084   24760294.0074
      1836.5274
  15837096.90247  12324160.17242  24120635.5694   24120632.9094
     -4734.7934
    842097.09449    652929.55546  21854122.3044   21854120.6944
      -647.9204
 04  9  9 21 53 30.0030000  0  8G19G 3G 8G13G10G28G23G27
  -2780292.48047  -2247280.00044  23734898.3824   23734895.8194
       170.2854
   3743970.98848   2914093.21142  23947307.6244   23947306.9834
     -2228.1724
  -3984587.95749  -3097956.43445  22540797.6244   22540796.8434
       577.7264
   7059426.88349   5493045.57046  21576450.1944   21576446.9684
     -2881.1234
   -629818.99646   -486338.56642  24643372.9294   24643372.6984
        80.2024
  -1496543.02348  -1162084.91442  24755062.6164   24755061.7024
      1833.0634
  15908182.66047  12379551.63342  24134162.1474   24134160.0854
     -4739.0514
    851867.17649    660542.60946  21855981.9764   21855979.9834
      -651.3394
 04  9  9 21 53 45.0030000  0  8G19G 3G 8G13G10G28G23G27
  -2782729.52048  -2249178.97744  23734435.0304   23734432.5304
       162.4694
   3777539.94547   2940250.82042  23953695.5694   23953694.6834
     -2237.9304
  -3993202.00449  -3104668.66845  22539158.7184   22539157.5894
       574.2704
   7102766.60249   5526816.77346  21584697.2884   21584694.5424
     -2889.3154
   -630884.58247   -487168.85942  24643170.3744   24643169.7614
        71.0394
  -1523989.43747  -1183471.67242  24749839.2104   24749838.2724
      1829.7614
  15979329.63747  12434990.77342  24147700.8664   24147698.8944
     -4743.1324
    861685.96149    668193.61746  21857850.3274   21857848.5384
      -654.5864
 04  9  9 21 54  0.0030000  0  8G19G 3G 8G13G10G28G23G27
  -2785051.85248  -2250988.58644  23733993.1084   23733990.3434
       154.8224
   3811252.47747   2966520.34842  23960110.6634   23960110.0584
     -2247.5024
  -4001767.17649  -3111342.80145  22537528.5224   22537526.9954
       571.0114
   7146226.43849   5560681.57046  21592967.7724   21592965.1084
     -2897.3224
   -631815.35946   -487894.12142  24642993.2724   24642991.8354
        62.0524
  -1551388.93447  -1204821.85242  24744625.2104   24744624.7224
      1826.6334
  16050534.83246  12490475.27042  24161251.6324   24161248.6874
     -4747.0134
    871550.91449    675880.60246  21859727.0074   21859725.2844
      -657.6644
 04  9  9 21 54 15.0030000  0  8G19G 3G 8G13G10G28G23G27
  -2787260.04747  -2252709.21944  23733572.8434   23733569.9214
       147.2134
   3845107.68848   2992901.03143  23966553.2884   23966552.4834
     -2257.0144
  -4010284.32449  -3117979.52045  22535907.8584   22535906.7884
       567.8104
   7189805.34049   5594639.14146  21601260.8434   21601257.7454
     -2905.2604
   -632612.00446   -488514.87142  24642842.2574   24642840.8394
        53.1104
  -1578742.08247  -1226135.91042  24739419.3584   24739419.8944
      1823.5434
  16121797.07847  12546004.26242  24174812.6014   24174809.7294
     -4750.8164
    881461.16449    683602.86346  21861613.4524   21861611.6714
      -660.6834
 04  9  9 21 54 30.0030000  0  8G19G 3G 8G13G10G28G23G27
  -2789351.39847  -2254338.84044  23733174.8434   23733170.6834
       139.4234
   3879107.86747   3019394.64542  23973022.9834   23973022.6714
     -2266.6794
  -4018750.87549  -3124576.82445  22534296.8354   22534295.7264
       564.4374
   7233505.65649   5628691.32446  21609576.1554   21609573.6124
     -2913.3544
   -633271.94547   -489029.09042  24642716.0074   24642715.0974
        43.9964
  -1606046.24647  -1247411.81642  24734224.4684   24734223.5304
      1820.2784
  16193118.61347  12601579.43043  24188384.7184   24188382.1014
     -4754.7694
    891418.98449    691362.21946  21863508.1084   21863506.3624
      -663.8554
 04  9  9 21 54 45.0030000  0  8G19G 3G 8G13G10G28G23G27
  -2791325.83648  -2255877.32844  23732799.2334   23732795.8474
       131.6294
   3913252.59847   3046000.93842  23979520.3514   23979520.8904
     -2276.3154
  -4027166.72349  -3131134.60245  22532695.4764   22532694.2654
       561.0574
   7277327.12949   5662837.91046  21617915.4764   21617912.8154
     -2921.4324
   -633795.36347   -489436.88342  24642616.6014   24642615.2064
        34.8954
  -1633301.55947  -1268649.64542  24729037.3904   24729036.7374
      1817.0214
  16264498.93847  12657200.41842  24201967.7964   24201964.9764
     -4758.6884
    901424.35549    699158.61346  21865412.1554   21865410.0854
      -667.0254
 04  9  9 21 55  0.0030000  0  8G19G 3G 8G13G10G28G23G27
  -2793182.70348  -2257324.19544  23732445.8354   23732442.8704
       123.7914
   3947542.33248   3072720.21143  23986046.3664   23986045.2024
     -2285.9824
  -4035531.68749  -3137652.76645  22531103.6164   22531102.7264
       557.6644
   7321270.26249   5697079.30146  21626277.3824   21626275.1324
     -2929.5424
   -634181.64147   -489737.84842  24642543.0304   24642542.0114
        25.7524
  -1660507.45747  -1289848.96942  24723859.6084   24723860.3664
      1813.7274
  16335938.39147  12712867.49643  24215562.1084   24215559.7104
     -4762.6304
    911477.61749    706992.33246  21867325.1944   21867323.4254
      -670.2174
 04  9  9 21 55 15.0030000  0  8G19G 3G 8G13G10G28G23G27
  -2794922.22748  -2258679.64544  23732115.1164   23732112.2224
       115.9684
   3981976.45747   3099552.00442  23992599.2884   23992597.7884
     -2295.6084
  -4043846.49249  -3144131.80945  22529520.9764   22529520.3084
       554.3204
   7365334.37549   5731414.96946  21634662.4604   21634659.6244
     -2937.6084
   -634431.11347   -489932.25442  24642495.4764   24642494.1554
        16.6324
  -1687664.17647  -1311009.98442  24718692.3744   24718691.6794
      1810.4484
  16407436.21947  12768580.03942  24229167.4604   24229165.6124
     -4766.5224
    921578.33249    714863.02046  21869247.6014   21869245.6634
      -673.3814
 04  9  9 21 55 30.0030000  0  8G19G 3G 8G13G10G28G23G27
  -2796546.32448  -2259945.15644  23731805.7494   23731803.0464
       108.2734
   4016552.66048   3126494.47343  23999178.9994   23999178.2184
     -2305.0804
  -4052113.02349  -3150573.24245  22527947.7334   22527946.6714
       551.1024
   7409517.21149   5765843.13746  21643069.9604   21643067.4294
     -2945.5224
   -634545.79346   -490021.60242  24642472.9914   24642473.0384
         7.6454
  -1714773.80547  -1332134.31642  24713533.6474   24713533.1324
      1807.3094
  16478989.97347  12824336.15643  24242783.5224   24242781.0464
     -4770.2504
    931724.30949    722768.97746  21871177.9914   21871175.9954
      -676.3984
 04  9  9 21 55 45.0030000  0  8G19G 3G 8G13G10G28G23G27
  -2798054.24648  -2261120.12944  23731518.3274   23731515.8434
       100.5284
   4051271.34847   3153548.01243  24005784.9764   24005784.5194
     -2314.5794
  -4060330.76249  -3156976.66045  22526384.1634   22526382.6674
       547.8494
   7453819.02049   5800364.01646  21651500.4134   21651497.8234
     -2953.4544
   -634525.08246   -490005.44942  24642477.3514   24642477.3824
        -1.3814
  -1741835.69147  -1353221.44542  24708383.9134   24708383.5584
      1804.1264
  16550599.93847  12880136.07443  24256410.9914   24256408.2614
     -4773.9984
    941916.06349    730710.61346  21873117.3824   21873115.5344
      -679.4504
 04  9  9 21 56  0.0030000  0  8G19G 3G 8G13G10G28G23G27
  -2799443.63348  -2262202.73844  23731254.0464   23731250.8704
        92.6264
   4086134.53148   3180714.14542  24012419.5774   24012418.1514
     -2324.2124
  -4068497.48449  -3163340.32845  22524829.8664   22524828.5734
       544.4484
   7498242.02749   5834979.34446  21659953.9914   21659951.6674
     -2961.5344
   -634366.65647   -489881.97342  24642507.2724   24642507.0894
       -10.5624
  -1768847.46947  -1374269.51642  24703244.1164   24703242.9764
      1800.7854
  16622268.13748  12935981.33643  24270049.5154   24270046.8004
     -4777.8804
    952155.87149    738689.68446  21875065.8744   21875064.4524
      -682.6544
 04  9  9 21 56 15.0030000  0  8G19G 3G 8G13G10G28G23G27
  -2800716.21148  -2263194.36344  23731012.2184   23731008.5734
        84.8394
   4121140.13347   3207991.22342  24019080.3044   24019079.5504
     -2333.7074
  -4076615.28549  -3169665.87945  22523285.4914   22523284.0654
       541.1874
   7542784.16449   5869687.48446  21668429.8584   21668427.8194
     -2969.4764
   -634072.49247   -489652.73842  24642563.4834   24642562.9834
       -19.6114
  -1795811.06647  -1395280.08642  24698112.8744   24698111.4174
      1797.5734
  16693992.05948  12991870.07443  24283698.0384   24283695.0734
     -4781.5954
    962441.51249    746704.48046  21877022.9684   21877021.2964
      -685.7094
 04  9  9 21 56 30.0030000  0  8G19G 3G 8G13G10G28G23G27
  -2801871.27048  -2264094.39844  23730792.6874   23730789.3904
        77.0044
   4156288.53148   3235379.59442  24025769.3274   24025768.4404
     -2343.2274
  -4084683.42249  -3175952.73045  22521750.0464   22521748.6834
       537.8764
   7587445.82049   5904488.75846  21676929.2104   21676926.4524
     -2977.4444
   -633641.78946   -489317.11742  24642645.0544   24642644.8124
       -28.7144
  -1822725.78147  -1416252.52742  24692990.9684   24692990.3514
      1794.3144
  16765772.05547  13047802.53142  24297357.0464   24297355.0114
     -4785.3334
    972773.73849    754755.56646  21878989.3744   21878987.5544
      -688.8154
 04  9  9 21 56 45.0030000  0  8G19G 3G 8G13G10G28G23G27
  -2802907.85247  -2264902.08644  23730595.3434   23730592.6674
        69.1054
   4191580.50848   3262879.80943  24032485.7334   24032483.6634
     -2352.7984
  -4092701.18449  -3182200.32045  22520224.5624   22520222.6674
       534.5174
   7632227.59449   5939383.64846  21685450.3744   21685448.0194
     -2985.4524
   -633073.69146   -488874.45342  24642753.8044   24642753.4524
       -37.8734
  -1849590.66847  -1437186.14542  24687878.2654   24687877.6984
      1790.9924
  16837608.68847  13103779.07442  24311027.8514   24311025.3704
     -4789.1094
    983153.23049    762843.48446  21880964.9294   21880962.2224
      -691.9664
 04  9  9 21 57  0.0030000  0  8G19G 3G 8G13G10G28G23G27
  -2803827.88748  -2265618.97344  23730420.2724   23730416.6514
        61.3364
   4227013.50048   3290489.95343  24039228.0934   24039227.1674
     -2362.1994
  -4100670.78149  -3188410.39545  22518707.8974   22518705.8624
       531.3074
   7677127.26249   5974370.38746  21693994.7334   21693992.6324
     -2993.3114
   -632370.32447   -488326.35942  24642887.2884   24642887.3744
       -46.8914
  -1876407.86747  -1458082.59842  24682774.8514   24682775.3584
      1787.8134
  16909499.55147  13159797.85942  24324707.3664   24324704.9404
     -4792.7244
    993577.70349    770966.44546  21882948.3824   21882946.4604
      -694.9654
 04  9  9 21 57 15.0030000  0  8G19G 3G 8G13G10G28G23G27
  -2804630.63348  -2266244.43744  23730267.5304   23730263.9214
        53.5164
   4262588.03148   3318210.35543  24045998.0774   24045996.8544
     -2371.6354
  -4108591.90249  -3194582.68045  22517200.4374   22517198.3354
       528.0754
   7722145.12149   6009449.22346  21702561.3664   21702559.0894
     -3001.1914
   -631531.10947   -487672.37942  24643046.8514   24643047.2804
       -55.9484
  -1903176.74647  -1478941.39142  24677680.8194   24677681.1284
      1784.5924
  16981444.87947  13215859.12942  24338398.8904   24338395.3314
     -4796.3554
   1004047.76649    779124.94146  21884940.7024   21884939.0074
      -698.0044
 04  9  9 21 57 30.0030000  0  8G19G 3G 8G13G10G28G23G27
  -2805314.68448  -2266777.44144  23730137.1324   23730133.5774
        45.6034
   4298305.08248   3346041.84443  24052794.4374   24052792.7574
     -2381.1374
  -4116463.08249  -3200716.04345  22515702.8664   22515701.4724
       524.7454
   7767282.30949   6044621.04346  21711150.6164   21711148.2884
     -3009.1464
   -630554.59447   -486911.45342  24643233.0694   24643232.6904
       -65.1014
  -1929895.73048  -1499761.31242  24672596.4994   24672596.3784
      1781.2664
  17053445.77347  13271963.67242  24352099.1324   24352096.9914
     -4800.0604
   1014564.61749    787319.90246  21886942.1164   21886940.1834
      -701.1234
 04  9  9 21 57 45.0030000  0  8G19G 3G 8G13G10G28G23G27
  -2805879.46148  -2267217.53544  23730029.7654   23730026.0224
        37.6524
   4334164.62147   3373984.34842  24059617.5464   24059617.0654
     -2390.6364
  -4124284.08649  -3206810.31245  22514214.4444   22514212.7764
       521.4004
   7812538.82049   6079885.84446  21719762.7574   21719760.1594
     -3017.1014
   -629440.61346   -486043.41042  24643444.9374   24643444.3944
       -74.2654
  -1956564.62948  -1520542.21542  24667522.2654   24667521.2334
      1777.9274
  17125502.14847  13328111.47342  24365811.3274   24365808.8784
     -4803.7584
   1025128.46949    795551.48046  21888952.2264   21888950.5074
      -704.2574
 04  9  9 21 58  0.0030000  0  8G19G 3G 8G13G10G28G23G27
  -2806326.56647  -2267565.91044  23729943.9604   23729941.4484
        29.8074
   4370165.00848   3402036.60243  24066468.7574   24066468.1164
     -2400.0264
  -4132056.77349  -3212866.94145  22512735.0384   22512733.7454
       518.1794
   7857913.26649   6115242.53546  21728397.1634   21728394.0624
     -3024.9634
   -628190.68446   -485069.41042  24643682.7884   24643683.3544
       -83.3294
  -1983184.80548  -1541285.13742  24662456.8584   24662455.9994
      1774.6784
  17197612.00446  13384300.90642  24379533.3124   24379530.4794
     -4807.3244
   1035737.72349    803818.43046  21890971.1014   21890969.4994
      -707.2844
 04  9  9 21 58 15.0040000  0  8G19G 3G 8G13G10G28G23G27
  -2806656.50048  -2267822.95344  23729881.4964   23729878.4104
        21.9964
   4406307.82047   3430199.82443  24073346.1294   24073346.0984
     -2409.5214
  -4139782.09049  -3218886.65245  22511264.8244   22511263.5784
       515.0214
   7903407.69149   6150692.72746  21737054.2854   21737051.8444
     -3032.9624
   -626805.26246   -483989.85542  24643946.6134   24643946.1684
       -92.3614
  -2009758.69948  -1561991.99243  24657399.9024   24657398.7424
      1771.5934
  17269779.11746  13440534.96942  24393266.0434   24393263.5004
     -4811.1414
   1046392.30149    812120.71146  21892998.4804   21892996.6134
      -710.3054
 04  9  9 21 58 30.0040000  0  8G19G 3G 8G13G10G28G23G27
  -2806868.37948  -2267988.02344  23729841.1914   23729838.2734
        14.1254
   4442588.55547   3458470.52043  24080250.1684   24080249.8754
     -2418.7164
  -4147458.53149  -3224868.27345  22509804.4184   22509802.7894
       511.7634
   7949016.37549   6186231.94546  21745733.5594   21745731.6804
     -3040.5794
   -625283.79746   -482804.30542  24644236.0594   24644235.9224
      -101.4314
  -2036282.15248  -1582659.56642  24652351.9264   24652351.1994
      1768.2304
  17341994.35546  13496806.52742  24407009.0354   24407006.0194
     -4814.3494
   1057091.39149    820457.66446  21895034.5824   21895032.7304
      -713.2734
 04  9  9 21 58 45.0040000  0  8G19G 3G 8G13G10G28G23G27
  -2806961.40248  -2268060.49644  23729823.1054   23729820.2584
         6.2024
   4479010.14847   3486851.00043  24087181.4964   24087180.8324
     -2428.1064
  -4155085.93049  -3230811.69545  22508353.0664   22508351.1294
       508.4934
   7994742.82049   6221862.93446  21754434.9414   21754433.0514
     -3048.4304
   -623625.66447   -481512.19142  24644550.7624   24644551.5044
      -110.5424
  -2062756.19148  -1603288.62942  24647314.0904   24647313.6214
      1764.9364
  17414262.67246  13553119.44142  24420761.3554   24420758.0704
     -4817.8884
   1067836.26249    828830.29346  21897079.4574   21897077.1334
      -716.3254
 04  9  9 21 59  0.0040000  0  8G19G 3G 8G13G10G28G23G27
  -2806936.61748  -2268041.15244  23729828.0824   23729825.0394
        -1.6524
   4515571.30547   3515340.18842  24094138.6844   24094138.0234
     -2437.4104
  -4162665.45749  -3236717.80945  22506910.4024   22506908.8714
       505.3024
   8040585.88749   6257584.77746  21763158.7934   21763156.2344
     -3056.2044
   -621831.80547   -480114.35942  24644892.6994   24644892.9024
      -119.5914
  -2089181.74648  -1623879.92642  24642285.1374   24642284.5164
      1761.7044
  17486582.85546  13609472.75842  24434522.7304   24434520.2934
     -4821.3464
   1078625.66849    837237.62546  21899132.4964   21899130.2464
      -719.2944
 04  9  9 21 59 15.0040000  0  8G19G 3G 8G13G10G28G23G27
  -2806792.13348  -2267928.54744  23729855.7934   23729852.1254
        -9.6324
   4552273.48447   3543939.28942  24101122.3244   24101121.5044
     -2446.8124
  -4170195.78149  -3242585.57845  22505477.4574   22505476.3524
       502.0224
   8086546.86749   6293398.52046  21771904.9264   21771902.2344
     -3064.0654
   -619900.66446   -478609.57842  24645260.0744   24645259.6874
      -128.7434
  -2115557.23448  -1644432.22743  24637266.9964   24637266.3094
      1758.3664
  17558956.13746  13665867.45742  24448294.6134   24448292.5944
     -4824.8854
   1089461.34849    845681.00846  21901194.8634   21901192.7194
      -722.3794
 04  9  9 21 59 30.0040000  0  8G19G 3G 8G13G10G28G23G27
  -2806527.44548  -2267722.28544  23729906.3244   23729902.8404
       -17.6464
   4589116.96547   3572648.48442  24108133.3874   24108133.6214
     -2456.2324
  -4177676.05949  -3248414.34445  22504053.9884   22504053.1054
       498.6854
   8132626.15249   6329304.44946  21780673.5124   21780670.9414
     -3071.9524
   -617831.66847   -476997.34442  24645653.6914   24645653.2304
      -137.9334
  -2141882.02748  -1664944.98842  24632257.3484   24632256.7384
      1754.9864
  17631382.50446  13722303.54742  24462076.9574   24462074.7664
     -4828.4244
   1100343.59449    854160.69946  21903265.2854   21903263.3054
      -725.4834
 04  9  9 21 59 45.0040000  0  8G19G 3G 8G13G10G28G23G27
  -2806143.01248  -2267422.69144  23729979.1054   23729976.1524
       -25.6294
   4626100.80947   3601467.08643  24115171.9104   24115170.8874
     -2465.5904
  -4185107.21949  -3254204.84845  22502640.0824   22502638.9734
       495.4114
   8178822.89549   6365301.88746  21789464.3874   21789462.3364
     -3079.7834
   -615625.39147   -475278.17242  24646073.2234   24646073.1764
      -147.0854
  -2168156.64548  -1685418.66442  24627256.9804   24627256.8874
      1751.6414
  17703861.15247  13778780.35242  24475869.5594   24475867.2424
     -4831.9104
   1111271.69949    862676.10946  21905344.7854   21905342.9414
      -728.5404
 04  9  9 22  0  0.0040000  0  8G19G 3G 8G13G10G28G23G27
  -2805639.61348  -2267030.39144  23730074.6134   23730071.9144
       -33.5604
   4663223.93448   3630394.15643  24122236.2934   24122235.5784
     -2474.8754
  -4192490.43449  -3259957.99245  22501234.8244   22501233.5234
       492.2144
   8225135.87149   6401389.91046  21798277.3794   21798274.9224
     -3087.5324
   -613282.82847   -473452.73842  24646518.9344   24646518.4694
      -156.1714
  -2194382.08247  -1705854.00842  24622266.0194   24622266.5784
      1748.3634
  17776390.85946  13835296.95742  24489671.4414   24489669.2774
     -4835.3144
   1122244.73849    871226.53146  21907432.9804   21907430.9924
      -731.5364
 04  9  9 22  0 15.0040000  0  8G19G 3G 8G13G10G28G23G27
  -2805016.62947  -2266544.93444  23730193.5434   23730190.3594
       -41.5324
   4700486.54747   3659429.94942  24129327.0664   24129325.4304
     -2484.1744
  -4199824.96949  -3265673.18745  22499839.3874   22499838.3014
       488.9694
   8271565.50449   6437568.82846  21807112.5744   21807110.2304
     -3095.3094
   -610803.39847   -471520.70342  24646990.9184   24646990.2114
      -165.2954
  -2220557.77347  -1726250.56243  24617285.1604   24617285.7624
      1745.0464
  17848971.62946  13891853.35242  24503483.5434   24503481.3054
     -4838.7184
   1133263.04749    879812.23046  21909529.7464   21909527.7774
      -734.5544
 04  9  9 22  0 30.0040000  0  8G19G 3G 8G13G10G28G23G27
  -2804273.62147  -2265965.94944  23730334.2774   23730332.1764
       -49.5344
   4737888.70347   3688574.50043  24136444.4654   24136443.4304
     -2493.4774
  -4207110.72349  -3271350.39545  22498452.8794   22498451.7774
       485.7174
   8318111.69949   6473838.59046  21815970.1374   21815967.2234
     -3103.0804
   -608186.75847   -469481.76642  24647489.4964   24647488.7034
      -174.4434
  -2246683.32047  -1746608.07842  24612313.6374   24612313.7304
      1741.7034
  17921603.60546  13948449.66042  24517305.7624   24517302.7074
     -4842.1324
   1144326.84049    888433.37146  21911634.9804   21911632.9804
      -737.5864
 04  9  9 22  0 45.0040000  0  8G19G 3G 8G13G10G28G23G27
  -2803407.57048  -2265291.09444  23730499.4024   23730496.7854
       -57.7374
   4775433.04747   3717829.80543  24143588.1524   24143588.7074
     -2502.9564
  -4214344.84849  -3276987.35945  22497076.0194   22497075.0744
       482.2754
   8364777.23049   6510201.32046  21824850.2234   21824847.8324
     -3111.0354
   -605430.17247   -467333.75442  24648013.6914   24648013.2774
      -183.7724
  -2272755.81647  -1766924.22343  24607351.9574   24607352.2774
      1738.1664
  17994289.35546  14005087.84442  24531137.4024   24531133.8124
     -4845.7174
   1155439.07849    897092.26646  21913749.6764   21913747.7344
      -740.8164
 04  9  9 22  1  0.0040000  0  8G19G 3G 8G13G10G28G23G27
  -2802421.19148  -2264522.45744  23730687.0664   23730684.1334
       -65.7594
   4813116.55947   3747193.58243  24150759.8554   24150758.8404
     -2512.2344
  -4221530.04749  -3282586.19545  22495708.9344   22495707.6954
       479.0134
   8411559.18049   6546654.76246  21833752.6914   21833750.3014
     -3118.7974
   -602536.39546   -465078.86342  24648564.5744   24648563.6254
      -192.9184
  -2298777.95748  -1787201.17243  24602400.2544   24602400.4734
      1734.8094
  18067025.57047  14061765.38742  24544978.6294   24544975.8524
     -4849.0814
   1166596.65249    905786.48046  21915872.3714   21915870.9184
      -743.8384
 04  9  9 22  1 15.0040000  0  8G19G 3G 8G13G10G28G23G27
  -2801310.64848  -2263657.07044  23730898.3714   23730895.1764
       -74.0364
   4850942.57447   3776668.38342  24157957.8244   24157955.7774
     -2521.7344
  -4228663.09049  -3288144.39145  22494351.7934   22494350.1954
       475.5364
   8458460.93849   6583201.57446  21842678.1764   21842675.5594
     -3126.7844
   -599501.74246   -462714.17242  24649142.2854   24649141.3404
      -202.3104
  -2324746.09448  -1807436.01243  24597458.8094   24597458.6764
      1731.2094
  18139815.52347  14118484.78542  24558829.4804   24558827.7464
     -4852.6644
   1177803.21549    914518.88346  21918005.0434   21918003.4614
      -747.1044
 04  9  9 22  1 30.0040000  0  8G19G 3G 8G13G10G28G23G27
  -2800077.17647  -2262695.89844  23731133.1054   23731130.1994
       -82.2324
   4888909.43447   3806252.94543  24165182.7384   24165182.4064
     -2531.1244
  -4235745.16049  -3293662.87945  22493003.6844   22493002.5004
       472.1384
   8505480.99649   6619840.57446  21851625.2154   21851622.9924
     -3134.6714
   -596327.50447   -460240.73442  24649745.7464   24649745.9734
      -211.6164
  -2350661.49248  -1827629.80542  24592527.6764   24592526.3594
      1727.6934
  18212657.54747  14175244.77342  24572691.0274   24572689.4024
     -4856.1354
   1189057.25449    923288.25846  21920147.1294   21920145.2234
      -750.2694
 04  9  9 22  1 45.0040000  0  8G19G 3G 8G13G10G28G23G27
  -2798722.36348  -2261640.18444  23731391.1374   23731387.5784
       -90.3214
   4927015.42248   3835945.91843  24172434.4804   24172433.5194
     -2540.3994
  -4242777.87149  -3299142.90645  22491665.7304   22491663.7194
       468.8474
   8552617.56349   6656570.35246  21860595.0124   21860592.7934
     -3142.4384
   -593015.38346   -457659.84042  24650376.3404   24650376.1484
      -220.8084
  -2376525.76248  -1847783.72342  24587605.8404   24587604.8164
      1724.2854
  18285549.80547  14232043.91442  24586561.8554   24586559.2854
     -4859.4844
   1200357.25449    932093.46146  21922297.1604   21922295.2774
      -753.3334
 04  9  9 22  2  0.0040000  0  8G19G 3G 8G13G10G28G23G27
  -2797243.66048  -2260487.91444  23731672.7624   23731669.0784
       -98.5804
   4965262.71547   3865749.00443  24179712.2384   24179711.9924
     -2549.8204
  -4249759.14549  -3304582.84845  22490337.2544   22490335.0744
       465.4184
   8599872.60549   6693392.43846  21869587.8714   21869584.7384
     -3150.3364
   -589562.91847   -454969.60942  24651033.4344   24651032.8244
      -230.1644
  -2402336.44548  -1867895.90642  24582693.5664   24582692.9374
      1720.7124
  18358494.36346  14288883.75842  24600442.4104   24600440.6374
     -4862.9714
   1211705.38349    940936.16447  21924456.5594   21924454.9534
      -756.5424
 04  9  9 22  2 15.0040000  0  8G19G 3G 8G13G10G28G23G27
  -2795639.88348  -2259238.22744  23731977.7464   23731973.9654
      -106.9184
   5003652.23847   3895662.89543  24187017.1914   24187016.7114
     -2559.3024
  -4256687.69949  -3309981.69945  22489018.6844   22489017.2234
       461.9044
   8647247.18449   6730307.69546  21878602.7154   21878600.3794
     -3158.3054
   -585968.86347   -452169.03142  24651716.8714   24651716.9264
      -239.6044
  -2428092.26647  -1887965.32442  24577792.3164   24577791.5514
      1717.0554
  18431491.98447  14345764.95342  24614334.3014   24614331.7624
     -4866.5084
   1223102.87549    949817.32446  21926625.6994   21926623.7034
      -759.8334
 04  9  9 22  2 30.0040000  0  8G19G 3G 8G13G10G28G23G27
  -2793908.51648  -2257889.07844  23732306.8634   23732304.1684
      -115.4244
   5042185.94147   3925689.15243  24194350.1844   24194349.1214
     -2568.9144
  -4263561.46549  -3315337.87545  22487710.4344   22487708.6294
       458.2514
   8694743.41049   6767317.73846  21887640.6134   21887638.9964
     -3166.4154
   -582231.06247   -449256.44142  24652428.2934   24652428.0314
      -249.1874
  -2453790.99247  -1907990.25042  24572901.7154   24572900.6094
      1713.2484
  18504544.56647  14402688.96142  24628235.3794   24628233.1094
     -4870.1724
   1234551.78949    958738.56646  21928804.0664   21928802.3484
      -763.2614
 04  9  9 22  2 45.0040000  0  8G19G 3G 8G13G10G28G23G27
  -2792049.74248  -2256440.66044  23732660.9344   23732657.8554
      -123.9184
   5080863.21948   3955827.28543  24201710.1684   24201709.8014
     -2578.4854
  -4270380.70349  -3320651.56245  22486412.5824   22486411.1054
       454.6164
   8742360.70749   6804422.10946  21896701.8634   21896699.7694
     -3174.4864
   -578349.82047   -446232.08642  24653166.6524   24653166.7034
      -258.7494
  -2479432.90647  -1927970.89542  24568022.6524   24568021.2114
      1709.4614
  18577651.57047  14459655.41842  24642147.2854   24642145.2274
     -4873.8004
   1246051.85949    967699.66446  21930992.5904   21930990.3944
      -766.6714
 04  9  9 22  3  0.0040000  0  8G19G 3G 8G13G10G28G23G27
  -2790064.77048  -2254893.90644  23733038.1994   23733034.7734
      -132.3324
   5119682.55147   3986076.10543  24209096.9804   24209096.1444
     -2587.9554
  -4277146.67649  -3325923.72745  22485125.3794   22485123.7974
       451.0654
   8790097.57049   6841619.64546  21905786.3094   21905783.7194
     -3182.4584
   -574326.41047   -443096.94942  24653932.1054   24653932.8404
      -268.2274
  -2505019.12947  -1947908.14542  24563153.1524   24563152.6134
      1705.7484
  18650811.27047  14516662.94142  24656069.2234   24656067.5194
     -4877.3134
   1257601.68849    976699.53146  21933190.3324   21933188.3674
      -769.9894
 04  9  9 22  3 15.0040000  0  8G19G 3G 8G13G10G28G23G27
  -2787952.64148  -2253248.08244  23733440.2934   23733436.9064
      -140.8094
   5158644.54747   4016436.07443  24216512.3714   24216510.1334
     -2597.4664
  -4283858.78149  -3331153.93445  22483847.7774   22483846.5354
       447.4744
   8837954.53549   6878910.79346  21914893.4884   21914890.6444
     -3190.4644
   -570160.02347   -439850.40642  24654725.2154   24654725.4454
      -277.7594
  -2530548.91047  -1967801.39542  24558295.2234   24558294.6174
      1701.9854
  18724024.16447  14573711.87942  24670000.8484   24669999.3364
     -4880.8604
   1269201.98049    985738.73046  21935397.7624   21935396.0594
      -773.3534
 04  9  9 22  3 30.0040000  0  8G19G 3G 8G13G10G28G23G27
  -2785713.68447  -2251503.41444  23733866.2544   23733863.0354
      -149.2644
   5197748.51247   4046906.67643  24223953.0044   24223952.8364
     -2606.9314
  -4290517.43049  -3336342.46945  22482580.9104   22482579.9024
       443.9104
   8885930.94149   6916294.98046  21924022.8164   21924020.8984
     -3198.4274
   -565851.05147   -436492.74242  24655545.7694   24655545.1914
      -287.2654
  -2556022.49648  -1987650.88743  24553447.4804   24553446.7544
      1698.2394
  18797289.48446  14630801.67642  24683942.8094   24683940.8094
     -4884.3554
   1280852.19549    994816.82446  21937614.5984   21937612.7974
      -776.6814
 04  9  9 22  3 45.0040000  0  8G19G 3G 8G13G10G28G23G27
  -2783347.32047  -2249659.46944  23734316.5664   23734313.8794
      -157.7584
   5236994.57047   4077488.03143  24231421.0824   24231420.4924
     -2616.4044
  -4297122.21149  -3341489.03945  22481324.2304   22481322.6914
       440.3194
   8934027.13749   6953772.51246  21933175.1844   21933172.8594
     -3206.4134
   -561399.16047   -433023.72742  24656392.4184   24656392.2584
      -296.7934
  -2581439.52048  -2007456.29743  24548611.0124   24548610.3834
      1694.4684
  18870607.30946  14687932.38742  24697894.3714   24697892.9344
     -4887.8554
   1292552.71149   1003934.10546  21939841.5274   21939839.6334
      -780.0344
 04  9  9 22  4  0.0040000  0  8G19G 3G 8G13G10G28G23G27
  -2780852.61348  -2247715.52344  23734791.3484   23734788.0514
      -166.3144
   5276383.35547   4108180.56643  24238916.4574   24238915.6804
     -2625.9194
  -4303672.41449  -3346593.08245  22480077.8794   22480076.1604
       436.6804
   8982243.74249   6991343.87146  21942350.1684   21942347.5394
     -3214.4404
   -556803.51247   -429442.71542  24657266.6294   24657266.5984
      -306.3774
  -2606799.03148  -2027216.92643  24543785.1444   24543785.1214
      1690.6344
  18943978.05946  14745104.29742  24711856.4654   24711854.1994
     -4891.3834
   1304304.23049   1013091.14546  21942077.5124   21942075.5194
      -783.4354
 04  9  9 22  4 15.0040000  0  8G19G 3G 8G13G10G28G23G27
  -2778231.69948  -2245673.23044  23735290.1604   23735286.4534
      -174.7284
   5315912.61348   4138982.57843  24246438.9734   24246437.8244
     -2635.2844
  -4310170.16049  -3351656.24645  22478841.0744   22478839.6954
       433.1834
   9030578.35949   7029007.20346  21951548.3714   21951545.7814
     -3222.3084
   -552066.07447   -425751.18442  24658168.5824   24658168.6174
      -315.8294
  -2632103.09848  -2046934.33242  24538970.1914   24538969.6644
      1686.9384
  19017399.44545  14802315.69941  24725827.9184   24725826.2074
     -4894.7594
   1316104.70749   1022286.32446  21944323.2074   21944321.1954
      -786.6984
 04  9  9 22  4 30.0040000  0  8G19G 3G 8G13G10G28G23G27
  -2775483.81248  -2243532.02744  23735812.9264   23735809.7114
      -183.1924
   5355582.51648   4169894.18443  24253987.8554   24253987.5784
     -2644.6604
  -4316615.04349  -3356678.22746  22477614.6444   22477613.5784
       429.6594
   9079031.38749   7066762.78146  21960768.4654   21960766.6804
     -3230.2024
   -547186.38748   -421948.82843  24659097.4024   24659096.8874
      -325.3124
  -2657351.13348  -2066608.04342  24534165.5354   24534164.6994
      1683.2024
  19090871.41045  14859566.46941  24739811.0274   24739807.6874
     -4898.1314
   1327954.63749   1031520.03546  21946578.1444   21946576.5824
      -789.9954
 04  9  9 22  4 45.0040000  0  8G19G 3G 8G13G10G28G23G27
  -2772608.78947  -2241291.71544  23736359.6524   23736356.6764
      -191.6684
   5395392.96148   4200915.30543  24261563.1294   24261561.9844
     -2654.0304
  -4323007.24249  -3361659.15246  22476398.2154   22476396.8794
       426.1474
   9127602.66849   7104610.50846  21970011.2624   21970009.3944
     -3238.0854
   -542164.40647   -418035.59442  24660052.5194   24660051.9734
      -334.7994
  -2682543.07447  -2086238.09442  24529371.7464   24529370.0124
      1679.4634
  19164394.02345  14916856.80141  24753801.5434   24753797.9654
     -4901.5084
   1339853.88749   1040792.18846  21948842.3324   21948840.3444
      -793.2834
 04  9  9 22  5  0.0040000  0  8G19G 3G 8G13G10G28G23G27
  -2769604.94947  -2238951.03544  23736931.6444   23736928.2074
      -200.2564
   5435345.13748   4232046.87543  24269166.0274   24269165.0354
     -2663.4784
  -4329344.75449  -3366597.45746  22475192.1914   22475191.0864
       422.5014
   9176293.58249   7142551.46946  21979277.0434   21979275.0474
     -3246.0614
   -536998.65247   -414010.31242  24661035.3014   24661035.2854
      -344.3844
  -2707677.23847  -2105823.10542  24524588.8164   24524586.9224
      1675.6114
  19237968.39545  14974187.41041  24767801.7854   24767799.5744
     -4904.9584
   1351804.01649   1050103.98046  21951116.5124   21951114.5864
      -796.6754
 04  9  9 22  5 15.0040000  0  8G19G 3G 8G13G10G28G23G27
  -2766471.18048  -2236509.12544  23737528.8554   23737524.5314
      -208.9184
   5475439.82848   4263289.47743  24276795.4024   24276794.7734
     -2672.9794
  -4335627.14849  -3371492.81246  22473997.0044   22473995.7464
       418.8264
   9225104.84049   7180586.19946  21988565.4654   21988562.7504
     -3254.0844
   -531688.07447   -409872.18742  24662046.3244   24662046.1994
      -354.0394
  -2732752.62147  -2125362.31642  24519817.0904   24519816.1334
      1671.6924
  19311594.09455  15031557.87551  24781811.6054   24781810.3094
     -4908.4094
   1363805.91049   1059456.10546  21953400.2544   21953398.1254
      -800.1264
 04  9  9 22  5 30.0040000  0  8G19G 3G 8G13G10G28G23G27
  -2763210.46548  -2233968.30144  23738148.8404   23738145.0624
      -217.3814
   5515673.69948   4294640.55143  24284452.0434   24284451.0664
     -2682.2584
  -4341857.19949  -3376347.38746  22472811.2544   22472810.3594
       415.3374
   9274033.15249   7218712.14846  21997876.4804   21997873.7814
     -3261.8874
   -526235.77047   -405623.61742  24663083.2304   24663083.6214
      -363.4874
  -2757772.20747  -2144858.03942  24515055.4414   24515054.8714
      1667.9724
                                  24795831.6134   24795830.8674
     -4911.8594
   1375856.41449   1068846.11746  21955693.6604   21955691.4804
      -803.3674
 04  9  9 22  5 45.0040000  0  8G19G 3G 8G13G10G28G23G27
  -2759825.53948  -2231330.68444  23738792.7694   23738790.0004
      -225.6624
   5556043.68848   4326097.66843  24292134.2934   24292133.5394
     -2691.3334
  -4348037.93749  -3381163.53146  22471635.0274   22471634.0664
       412.0494
   9323075.37949   7256926.85246  22007208.4264   22007206.6134
     -3269.4824
   -520644.52047   -401266.80543  24664147.9184   24664147.4494
      -372.7504
  -2782738.79747  -2164312.47342  24510304.8404   24510303.9264
      1664.4394
  19458991.03944  15146412.40241  24809859.4574   24809859.1724
     -4914.7544
   1387952.72749   1078271.81646  21957995.2934   21957992.8594
      -806.4214
 04  9  9 22  6  0.0040000  0  8G19G 3G 8G13G10G28G23G27
  -2756311.52048  -2228592.47744  23739461.7154   23739458.4924
      -234.2684
   5596554.34848   4357664.41043  24299843.6214   24299842.1334
     -2700.7114
  -4354164.64849  -3385937.58246  22470469.3944   22470468.2304
       408.4474
   9372236.22349   7295233.98846  22016563.8094   22016561.9184
     -3277.3904
   -514909.57447   -396798.00843  24665239.6914   24665239.2154
      -382.3304
  -2807647.44547  -2183721.73043  24505564.6444   24505564.6484
      1660.5774
  19532762.72344  15203896.71541  24823897.6994   24823897.4264
     -4918.1124
   1400099.50849   1087736.84046  21960306.7934   21960305.0234
      -809.7854
 04  9  9 22  6 15.0040000  0  8G19G 3G 8G13G10G28G23G27
  -2752671.92647  -2225756.41444  23740154.0194   23740151.0594
      -242.6404
   5637201.70348   4389337.66843  24307578.1134   24307577.3984
     -2709.8244
  -4360240.98449  -3390672.37546  22469312.9574   22469311.3014
       405.0894
   9421511.73449   7333630.47346  22025940.7774   22025938.2974
     -3285.0344
   -509034.65647   -392220.14143  24666357.0124   24666357.8484
      -391.6614
  -2832501.96147  -2203088.80943  24500835.1054   24500834.4064
      1656.9684
  19606580.67645  15261417.16041  24837947.2544   24837945.1994
     -4921.1974
   1412293.06349   1097238.32046  21962627.1134   21962625.1054
      -812.9044
 04  9  9 22  6 30.0040000  0  8G19G 3G 8G13G10G28G23G27
  -2748906.98848  -2222822.68044  23740870.2774   23740866.9064
      -250.9964
   5677985.29348   4421117.08643  24315338.6994   24315339.0354
     -2718.9064
  -4366267.26249  -3395368.15246  22468166.0904   22468164.6764
       401.7524
   9470901.38349   7372115.89846  22035339.0904   22035336.6444
     -3292.6434
   -503020.12147   -387533.47743  24667501.3944   24667501.5784
      -400.9694
  -2857302.46147  -2222413.84443  24496115.6604   24496115.2544
      1653.3674
  19680444.07845  15318973.04741  24852003.0434   24852000.7694
     -4924.2274
   1424532.94549   1106775.88746  21964956.4964   21964954.4304
      -815.9924
 04  9  9 22  6 45.0040000  0  8G19G 3G 8G13G10G28G23G27
  -2745017.91448  -2219792.21944  23741610.4414   23741607.8124
      -259.2724
   5718903.45748   4453001.34443  24323125.3634   24323124.7854
     -2727.8784
  -4372245.07449  -3400026.17646  22467028.4024   22467027.4304
       398.5214
   9520403.61349   7410689.04746  22044758.9574   22044756.7694
     -3300.1494
   -496867.22347   -382739.00842  24668672.4414   24668671.8914
      -410.1934
  -2882050.29747  -2241697.81243  24491406.9494   24491405.8984
      1649.8564
  19754351.44946  15376563.17241  24866069.0904   24866065.3984
     -4927.1584
   1436817.77749   1116348.48846  21967294.3014   21967291.9024
      -818.9894
 04  9  9 22  7  0.0040000  0  8G19G 3G 8G13G10G28G23G27
  -2741001.47347  -2216662.53144  23742375.1444   23742371.7584
      -267.7634
   5759958.97348   4484992.66843  24330938.3634   24330937.6764
     -2737.0344
  -4378171.26249  -3404643.98446  22465901.0594   22465898.9454
       395.0794
   9570021.37549   7449352.20746  22054200.9494   22054198.8594
     -3307.8514
   -490572.96947   -377834.37142  24669869.9024   24669869.7814
      -419.6174
  -2906742.33647  -2260938.30143  24486708.0434   24486706.8204
      1646.1364
  19828305.52345  15434189.66441  24880139.8094   24880137.6994
     -4930.2724
   1449150.69549   1125958.57046  21969640.4104   21969638.5704
      -822.1954
 04  9  9 22  7 15.0040000  0  8G19G 3G 8G13G10G28G23G27
  -2736859.60948  -2213435.07444  23743162.6374   23743159.2544
      -276.1244
   5801149.68848   4517089.29743  24338776.6604   24338776.9224
     -2746.0484
  -4384047.78549  -3409223.07045  22464782.4654   22464780.8014
       391.7684
   9619752.45749   7488103.69546  22063664.4804   22063662.2544
     -3315.4054
   -484139.21147   -372821.05542  24671094.1764   24671093.8094
      -428.9174
  -2931380.41847  -2280136.75843  24482019.0194   24482018.3984
      1642.5394
  19902304.07845  15491850.85541  24894221.5904   24894218.8014
     -4933.2374
   1461529.57849   1135604.44946  21971996.5044   21971994.5274
      -825.2594
 04  9  9 22  7 30.0040000  0  8G19G 3G 8G13G10G28G23G27
  -2732590.85948  -2210108.74644  23743975.5984   23743971.4534
      -284.5834
   5842476.48847   4549292.00843  24346640.3244   24346640.0314
     -2755.1204
  -4389873.45749  -3413762.53545  22463673.8484   22463671.7934
       388.3784
   9669597.85949   7526944.24646  22073149.5434   22073147.5194
     -3323.0274
   -477564.82047   -367698.16442  24672345.8094   24672344.9804
      -438.2934
  -2955963.28947  -2299292.19943  24477341.2304   24477339.8914
      1638.8584
  19976347.98043  15549547.29741  24908310.1524   24908308.2814
     -4936.2604
   1473955.69549   1145287.14146  21974361.2464   21974358.9374
      -828.4084
 04  9  9 22  7 45.0040000  0  8G19G 3G 8G13G10G28G23G27
  -2728195.25848  -2206683.59844  23744812.0664   23744808.2344
      -293.0404
   5883939.09047   4581600.49643  24354530.7774   24354529.6174
     -2764.1734
  -4395648.33249  -3418262.43446  22462575.0124   22462573.5314
       384.9924
   9719557.29349   7565873.66846  22082656.9734   22082654.0944
     -3330.6294
   -470849.81247   -362465.66842  24673623.5434   24673623.1524
      -447.6674
  -2980490.90247  -2318404.57843  24472673.6524   24472673.0354
      1635.1744
  20050436.58243  15607278.68841  24922406.5664   24922406.7854
     -4939.2404
   1486428.77349   1155006.42246  21976734.9184   21976732.9614
      -831.5394
 04  9  9 22  8  0.0040000  0  8G19G 3G 8G13G10G28G23G27
  -2723675.43747  -2203161.64844  23745671.7544   23745668.5474
      -301.3214
   5925534.46947   4614012.48843  24362446.1914   24362445.4224
     -2773.0254
  -4401375.26649  -3422724.96945  22461485.1374   22461483.4184
       381.7964
   9769627.94149   7604889.74646  22092184.7464   22092182.4964
     -3338.0434
   -463996.94147   -357125.77742  24674927.2464   24674926.5784
      -456.8584
  -3004966.01647  -2337476.03943  24468015.8484   24468015.1954
      1631.6744
  20124567.020 2                  24936515.816
     -4942.029
   1498946.15249   1164760.23046  21979116.8164   21979114.4774
      -834.4924
 04  9  9 22  8 15.0040000  0  7G19G 3G 8G13G10G28G27
  -2719030.03148  -2199541.80544  23746555.6684   23746551.6874
      -309.6944
   5967263.65247   4646528.73043  24370386.7384   24370386.6414
     -2781.9464
  -4407052.99249  -3427149.16845  22460404.7624   22460402.9774
       378.5154
   9819810.72349   7643993.19146  22101734.2854   22101732.4374
     -3345.5194
   -457005.03147   -351677.50842  24676257.7694   24676257.4924
      -466.1274
  -3029387.25447  -2356505.51243  24463368.6684   24463367.8204
      1628.0834
   1511509.01249   1174549.46546  21981507.1134   21981505.4104
      -837.5244
 04  9  9 22  8 30.0040000  0  7G19G 3G 8G13G10G28G27
  -2714256.95748  -2195822.52044  23747463.6294   23747460.0314
      -318.2054
   6009128.37547   4679150.57043  24378352.8404   24378352.3834
     -2790.9824
  -4412679.50449  -3431533.43746  22459334.1134   22459332.4224
       375.1014
   9870107.21149   7683185.24646  22111305.4964   22111303.1294
     -3353.0994
   -449872.21147   -346119.44142  24677614.4654   24677614.2234
      -475.5214
  -3053752.64147  -2375491.46943  24458732.2544   24458731.4414
      1624.3594
   1524119.18849   1184375.58646  21983906.7624   21983904.6174
      -840.6784
 04  9  9 22  8 45.0040000  0  7G19G 3G 8G13G10G28G27
  -2709356.94948  -2192004.31244  23748396.3794   23748392.7464
      -326.6674
   6051127.51247   4711877.16843  24386345.2544   24386344.3914
     -2799.9424
  -4418255.86349  -3435878.64146  22458273.0824   22458271.0314
       371.7574
   9920516.50448   7722465.18846  22120897.7854   22120895.4374
     -3360.6204
   -442599.22747   -340452.19542  24678999.7544   24678998.2384
      -484.8664
  -3078063.02047  -2394434.57043  24454106.0904   24454105.2034
      1620.6924
   1536775.75849   1194237.85246  21986315.3484   21986312.9924
      -843.7714
 04  9  9 22  9  0.0040000  0  8G19G 3G 8G13G10G28G23G27
  -2704329.83648  -2188087.07044  23749353.3014   23749349.4884
      -335.1414
   6093260.80147   4744708.30543  24394363.3244   24394363.0314
     -2808.8864
  -4423782.18749  -3440184.86745  22457221.4024   22457219.2344
       368.4224
   9971038.41849   7761832.90246  22130512.1844   22130509.7234
     -3368.1284
   -435186.07447   -334675.70342  24680410.1914   24680409.0594
      -494.2104
  -3102318.19947  -2413334.65243  24449490.5664   24449489.9774
      1617.0124
     69349.42214                  24993026.668

   1549478.84449   1204136.36346  21988733.0194   21988730.3634
      -846.8724
 04  9  9 22  9 15.0040000  0  8G19G 3G 8G13G10G28G23G27
  -2699173.75047  -2184069.32844  23750334.2694   23750330.8244
      -343.7394
   6135529.78546   4777645.16443  24402406.5664   24402406.6174
     -2817.9324
  -4429256.36349  -3444450.44146  22456180.0664   22456177.5394
       364.9454
  10021674.50449   7801289.57046  22140147.7934   22140145.7074
     -3375.7394
   -427631.02347   -328788.64542  24681847.6054   24681846.8914
      -503.6704
  -3126516.34847  -2432190.29343  24444885.8164   24444885.0234
      1613.2104
    143697.547 4                  25007176.137
     -4956.542
   1562230.10549   1214072.41446  21991159.1444   21991157.0594
      -850.0844
 04  9  9 22  9 30.0040000  0  8G19G 3G 8G13G10G28G23G27
  -2693884.99248  -2179948.19944  23751340.3164   23751337.2694
      -352.5844
   6177937.78947   4810690.35942  24410476.6294   24410476.1484
     -2827.2004
  -4434674.98849  -3448672.73445  22455148.6214   22455146.5084
       361.2424
  10072428.16849   7840837.87146  22149806.0594   22149803.6564
     -3383.5784
   -419930.50847   -322788.25042  24683312.5744   24683312.0274
      -513.3684
  -3150653.87147  -2450998.68443  24440292.6444   24440291.5274
      1609.1684
    218093.340 4                  25021332.215
     -4959.720
   1575033.15649   1224048.82046  21993595.6134   21993593.3874
      -853.5374
 04  9  9 22  9 45.0040000  0  8G19G 3G 8G13G10G28G23G27
  -2688467.67248  -2175726.89144  23752371.4884   23752368.1724
      -361.1554
   6220480.32047   4843840.39842  24418572.6214   24418572.0864
     -2836.1694
  -4440042.35949  -3452855.09445  22454127.0194   22454125.1094
       357.8254
  10123294.95749   7880474.30946  22159485.5514   22159483.3914
     -3391.1194
   -412088.64147   -316677.67642  24684805.2304   24684804.8364
      -522.7914
  -3174734.73047  -2469762.94543  24435709.5824   24435708.3204
      1605.3914
    292532.164 3                  25035494.941
     -4962.588
   1587883.62149   1234062.17246  21996040.9494   21996038.8014
      -856.6984
 04  9  9 22 10  0.0040000  0  8G19G 3G 8G13G10G28G23G27
  -2682921.26648  -2171405.02344  23753427.5354   23753423.4264
      -369.7604
   6263157.64147   4877095.39842  24426693.6444   24426692.6644
     -2845.1554
  -4445358.03949  -3456997.16045  22453115.5274   22453114.0394
       354.3794
  10174275.02049   7920199.01646  22169186.6994   22169184.3014
     -3398.6714
   -404104.99247   -310456.66842  24686324.9964   24686323.9184
      -532.2434
  -3198758.65247  -2488482.83643  24431138.3244   24431137.2584
      1601.5954
    367014.16414                  25049669.965
     -4965.457
   1600782.03949   1244112.88346  21998495.4184   21998493.3244
      -859.8954
 04  9  9 22 10 15.0040000  0  8G19G 3G 8G13G10G28G23G27
  -2677244.52348  -2166981.57844  23754506.9414   23754503.4774
      -378.4494
   6305970.69147   4910456.23442  24434840.4344   24434840.0124
     -2854.2034
  -4450620.70349  -3461097.93446  22452114.1764   22452112.5624
       350.8444
  10225369.52749   7960012.90246  22178909.8404   22178907.2694
     -3406.3014
   -395978.50448   -304124.31242  24687871.4574   24687870.4104
      -541.7664
  -3222724.29747  -2507157.33643  24426577.9264   24426576.8124
      1597.7104
    441540.383 4                  25063850.613
     -4968.415
   1613729.52349   1254201.84046  22000959.2544   22000957.3204
      -863.1664
 04  9  9 22 10 30.0040000  0  8G19G 3G 8G13G10G28G23G27
  -2671438.63747  -2162457.48444  23755611.5594   23755609.4844
      -387.0594
   6348917.74247   4943921.46542  24443012.6914   24443013.0164
     -2863.1374
  -4455832.08249  -3465158.73046  22451122.4574   22451120.8834
       347.4254
  10276576.79749   7999914.66046  22188653.9414   22188652.1644
     -3413.8184
   -387710.48047   -297681.69942  24689444.8794   24689443.8794
      -551.2024
  -3246632.94547  -2525787.40243  24422028.3244   24422026.8554
      1593.9104
    516108.855 4                  25078041.879
     -4971.232
   1626724.54749   1264327.83646  22003432.3164   22003430.1524
      -866.3354
 04  9  9 22 10 45.0040000  0  8G19G 3G 8G13G10G28G23G27
  -2665501.84447  -2157831.38744  23756741.6524   23756738.2384
      -395.7864
   6392000.26647   4977492.23442  24451212.0744   24451210.6804
     -2872.1684
  -4460990.35249  -3469178.14546  22450140.6134   22450139.2114
       343.8854
  10327898.24649   8039905.37546  22198420.1994   22198418.0164
     -3421.4304
   -379299.33247   -291127.53142  24691044.6914   24691044.2384
      -560.7434
  -3270482.95347  -2544371.78143  24417488.9734   24417488.5434
      1590.0014
    590721.113 4                  25092240.980
     -4974.151
   1639768.90249   1274492.27346  22005914.3794   22005912.5984
      -869.6244
 04  9  9 22 11  0.0040000  0  8G19G 3G 8G13G10G28G23G27
  -2659433.41048  -2153102.71944  23757896.1374   23757892.8014
      -404.5624
   6435218.43847   5011168.72342  24459435.3094   24459433.8204
     -2881.2114
  -4466094.98049  -3473155.77045  22449169.6134   22449167.7194
       340.3094
  10379334.23849   8079985.35946  22208208.2074   22208205.7504
     -3429.0664
   -370744.46147   -284461.36342  24692672.3944   24692672.2154
      -570.3254
  -3294273.55147  -2562909.84843  24412961.9024   24412961.2584
      1586.0404
    665377.453 5                  25106446.754
     -4977.089
   1652863.07049   1284695.52746  22008405.8634   22008403.9614
      -872.9454
 04  9  9 22 11 15.0040000  0  8G19G 3G 8G13G10G28G23G27
  -2653232.67248  -2148270.96144  23759076.1374   23759072.3984
      -413.3834
   6478572.70746   5044951.28142  24467685.0904   24467684.7234
     -2890.2854
  -4471145.32449  -3477091.08245  22448208.1444   22448206.8324
       336.6904
  10430885.09849   8120154.85246  22218017.9884   22218015.8094
     -3436.7244
   -362045.29747   -277682.80542  24694328.2304   24694326.8674
      -579.9444
  -3318004.07447  -2581401.12543  24408446.4344   24408445.8834
      1582.0354
    740077.926 5                  25120661.996
     -4980.032
   1666007.60249   1294938.02746  22010907.4654   22010905.0594
      -876.3024
 04  9  9 22 11 30.0040000  0  8G19G 3G 8G13G10G28G23G27
  -2646901.15648  -2143337.28944  23760280.8634   23760276.8984
      -422.1014
   6522061.28146   5078838.47342  24475961.1214   24475960.6374
     -2899.2384
  -4476143.07049  -3480985.41846  22447257.1604   22447255.7194
       333.1834
  10482549.20749   8160412.58246  22227849.5904   22227847.3404
     -3444.2744
   -353203.53147   -270793.09442  24696009.8324   24696009.5434
      -589.4514
  -3341676.10947  -2599846.81243  24403941.4654   24403941.2344
      1578.1364
    814820.879 5                  25134884.848
     -4982.864
   1679200.85249   1305218.47346  22013418.1524   22013416.0394
      -879.5504
 04  9  9 22 11 45.0040000  0  8G19G 3G 8G13G10G28G23G27
  -2640440.57448  -2138303.04744  23761510.8324   23761506.8944
      -430.7054
   6565681.98047   5112828.60942  24484261.5744   24484261.2504
     -2908.0474
  -4481090.07449  -3484840.21146  22446315.7384   22446314.5904
       329.8004
  10534324.43449   8200756.88346  22237702.0274   22237699.1254
     -3451.6824
   -344220.91847   -263793.65242  24697720.2464   24697718.9574
      -598.8414
  -3365291.40648  -2618248.30143  24399448.4964   24399446.8444
      1574.3534
    889604.109 5                  25149115.707
     -4985.549
   1692441.00849   1315535.48446  22015937.4574   22015935.5594
      -882.6774
 04  9  9 22 12  0.0040000  0  8G19G 3G 8G13G10G28G23G27
  -2633847.65648  -2133165.69144  23762765.4494   23762761.5124
      -439.5284
   6609437.77046   5146924.04342  24492587.8944   24492588.3244
     -2917.0534
  -4485982.92649  -3488652.80946  22445384.9414   22445382.9494
       326.1904
  10586213.77349   8241190.12546  22247576.1294   22247573.8124
     -3459.2894
   -335094.35947   -256682.08242  24699456.1134   24699456.3204
      -608.4374
  -3388846.75447  -2636603.09043  24394965.5664   24394964.2774
      1570.3574
    964430.434 5                  25163355.449
     -4988.422
   1705731.08649   1325891.39546  22018466.6134   22018464.8754
      -886.0054
 04  9  9 22 12 15.0040000  0  8G19G 3G 8G13G10G28G23G27
  -2627123.46948  -2127926.05144  23764044.5434   23764041.5514
      -448.2794
   6653327.38747   5181123.66442  24500940.3714   24500939.5394
     -2925.9744
  -4490823.28149  -3492424.50845  22444463.7544   22444461.6604
       322.6904
  10638215.73449   8281711.10546  22257472.3944   22257469.5434
     -3466.7974
   -325824.96947   -249459.14542  24701221.1524   24701219.5474
      -617.9594
  -3412343.14548  -2654911.94143  24390494.2304   24390492.6524
      1566.4264
   1039298.426 4                  25177601.957
     -4991.199
   1719070.21149   1336285.51246  22021005.0194   22021003.0594
      -889.2754
 04  9  9 22 12 30.0040000  0  8G19G 3G 8G13G10G28G23G27
  -2620269.47348  -2122585.23444  23765348.4414   23765346.0594
      -456.9334
   6697348.65247   5215425.97742  24509317.3404   24509316.6724
     -2934.7514
  -4495612.68049  -3496156.50046  22443552.1444   22443550.3284
       319.2934
  10690328.56649   8322318.49246  22267388.8874   22267386.8284
     -3474.1894
   -316414.42246   -242126.24642  24703010.8404   24703010.6564
      -627.3704
  -3435782.19148  -2673176.09443  24386033.8634   24386033.0594
      1562.6034
   1114205.980 3                  25191856.004
     -4993.837
   1732456.38749   1346716.30146  22023552.0904   22023550.3124
      -892.4124
 04  9  9 22 12 45.0040000  0  8G19G 3G 8G13G10G28G23G27
  -2613285.80948  -2117143.40644  23766677.9264   23766674.6524
      -465.5784
   6741501.14146   5249830.49642  24517719.1604   24517718.7894
     -2943.4994
  -4500351.05149  -3499848.73046  22442650.5514   22442649.3124
       315.8914
  10742551.77349   8363011.87946  22277326.4734   22277324.6844
     -3481.5474
   -306863.03146   -234683.59042  24704828.7544   24704828.4734
      -636.7594
  -3459164.04347  -2691395.68043  24381584.4414   24381582.7814
      1558.7904
   1189152.875 3                  25206118.121
     -4996.460
   1745889.43849   1357183.61346  22026108.6374   22026106.1524
      -895.5374
 04  9  9 22 13  0.0040000  0  8G19G 3G 8G13G10G28G23G27
  -2606170.26248  -2111598.80944  23768031.8404   23768028.1374
      -474.3704
   6785786.66047   5284338.71542  24526146.7384   24526145.2424
     -2952.3684
  -4505036.48049  -3503499.69946  22441758.9414   22441757.7384
       312.3624
  10794887.35949   8403792.83246  22287285.5824   22287283.4144
     -3489.0394
   -297168.64146   -227129.51642  24706672.9104   24706672.7154
      -646.2934
  -3482486.60247  -2709569.06244  24377146.5664   24377145.2664
      1554.8374
                                  25220386.871
     -4999.082
   1759371.59049   1367689.19946  22028674.3324   22028671.8914
      -898.8104
 04  9  9 22 13 15.0040000  0  7G19G 3G 8G13G10G28G27
  -2598924.32047  -2105952.59844  23769410.5744   23769407.2384
      -483.0634
   6830203.50447   5318949.21542  24534598.8404   24534596.9534
     -2961.1234
  -4509670.58249  -3507110.67246  22440877.2234   22440876.1374
       308.9404
  10847333.34449   8444659.80546  22297265.6844   22297263.0664
     -3496.3994
   -287332.77346   -219465.18442  24708545.1764   24708544.5274
      -655.7244
  -3505751.19147  -2727697.27743  24372718.7854   24372717.9574
      1550.9734
   1772901.05149   1378231.63746  22031248.9414   22031246.4924
      -901.9644
 04  9  9 22 13 30.0040000  0  7G19G 3G 8G13G10G28G27
  -2591546.10948  -2100203.32844  23770814.7774   23770811.7934
      -491.8814
   6874753.22747   5353663.27042  24543076.5044   24543075.9804
     -2969.9824
  -4514251.69549  -3510680.35546  22440005.3014   22440003.8944
       305.4084
  10899891.40649   8485614.12546  22307267.4264   22307264.8794
     -3503.8714
   -277353.71947   -211689.28542  24710444.3164   24710443.4654
      -665.2704
  -3528956.12548  -2745779.00443  24368303.2464   24368302.3364
      1546.9964
   1786479.70349   1388812.40246  22033832.3484   22033830.5234
      -905.2434
 04  9  9 22 13 45.0040000  0  7G19G 3G 8G13G10G28G27
  -2584035.29348  -2094350.71544  23772243.6604   23772240.6214
      -500.7214
   6919435.58647   5388480.68842  24551579.4104   24551578.6374
     -2978.8244
  -4518779.38749  -3514208.42646  22439143.6214   22439142.7034
       301.8464
  10952561.52749   8526655.76646  22317290.1604   22317288.0314
     -3511.3414
   -267231.38346   -203801.71942  24712370.0124   24712370.1294
      -674.8224
  -3552101.02347  -2763813.94143  24363898.8634   24363897.6724
      1542.9934
   1800107.75049   1399431.65646  22036425.6684   22036423.7384
      -908.5364
 04  9  9 22 14  0.0040000  0  7G19G 3G 8G13G10G28G27
  -2576390.86348  -2088394.00044  23773698.7074   23773695.6294
      -509.6294
   6964251.34847   5423402.07042  24560106.4884   24560106.0594
     -2987.7174
  -4523252.65649  -3517694.06646  22438292.4734   22438291.0554
       298.2184
  11005344.59449   8567785.41446  22327334.0984   22327332.4884
     -3518.8714
   -256964.66047   -195801.67642  24714324.3944   24714323.4224
      -684.4484
  -3575184.77747  -2781801.23043  24359506.0124   24359504.6484
      1538.9174
   1813786.11349   1410090.12946  22039028.7624   22039026.3874
      -911.8914
 04  9  9 22 14 15.0040000  0  7G19G 3G 8G13G10G28G27
  -2568613.04347  -2082333.34444  23775178.6134   23775175.5664
      -518.5214
   7009199.93047   5458426.91442  24568660.7464   24568660.6874
     -2996.5724
  -4527671.90649  -3521137.63346  22437451.6134   22437449.4454
       294.6174
  11058239.87149   8609002.49246  22337399.7544   22337397.6604
     -3526.3524
   -246554.06646   -187689.51242  24716305.0594   24716303.6804
      -694.0404
  -3598207.92247  -2799741.30543  24355124.8484   24355123.4264
      1534.8764
   1827514.37549   1420787.47746  22041641.1764   22041638.9654
      -915.2174
 04  9  9 22 14 30.0040000  0  8G19G 3G 8G13G10G28G23G27
  -2560702.97748  -2076169.64544  23776684.3874   23776680.7734
      -527.3384
   7054279.71547   5493554.02742  24577238.6994   24577238.6804
     -3005.3194
  -4532038.65649  -3524540.28946  22436620.4264   22436618.7774
       291.1174
  11111245.81649   8650305.80546  22347486.4804   22347484.4924
     -3533.7304
   -236001.00847   -179466.35942  24718313.4654   24718312.5044
      -703.5374
  -3621171.57047  -2817635.03943  24350755.3714   24350753.6444
      1530.9104
                                  25306166.949

   1841291.22349   1431522.68846  22044262.9414   22044260.8484
      -918.4574
 04  9  9 22 14 45.0040000  0  7G19G 3G 8G13G10G28G27
  -2552656.73048  -2069899.83244  23778215.3094   23778211.6294
      -536.4164
   7099494.35547   5528786.19542  24585842.3794   24585842.0274
     -3014.3094
  -4536349.02349  -3527899.01646  22435800.7544   22435798.4964
       287.3584
  11164366.02749   8691698.16046  22357594.9344   22357593.1954
     -3541.3474
   -225301.49646   -171129.02042  24720349.4104   24720348.9964
      -713.3014
  -3644071.80148  -2835479.34443  24346397.1994   24346396.0784
      1526.6824
   1855120.54749   1442298.78947  22046894.5124   22046892.0164
      -921.9554
 04  9  9 22 15  0.0040000  0  8G19G 3G 8G13G10G28G23G27
  -2544473.28948  -2063523.10244  23779772.1214   23779769.1564
      -545.5634
   7144844.44148   5564123.91842  24594472.6444   24594471.8794
     -3023.3394
  -4540602.11749  -3531213.10246  22434990.5824   22434989.2734
       283.5404
  11217601.39149   8733180.25046  22367725.4884   22367723.5514
     -3549.0244
   -214454.76646   -162677.02042  24722413.3244   24722412.9804
      -723.1154
  -3666907.54348  -2853273.39143  24342052.2774   24342050.1764
      1522.3834
     55231.61714                  25334824.598

   1869003.22349   1453116.46547  22049536.0434   22049534.2274
      -925.5124
 04  9  9 22 15 15.0040000  0  8G19G 3G 8G13G10G28G23G27
  -2536153.00048  -2057039.72744  23781355.6604   23781352.1524
      -554.6864
   7190329.44147   5599566.76242  24603128.7934   24603128.7854
     -3032.3334
  -4544798.28949  -3534482.83646  22434192.6684   22434190.7734
       279.7454
  11270951.25849   8774751.55946  22377877.5124   22377875.2234
     -3556.6584
   -203461.19947   -154110.59842  24724505.6054   24724504.6214
      -732.9044
  -3689679.01648  -2871017.37543  24337718.7384   24337717.3554
      1518.0984
    130586.89514                  25349161.230

   1882938.75849   1463975.32846  22052187.9104   22052185.7544
      -929.0364
 04  9  9 22 15 30.0040000  0  8G19G 3G 8G13G10G28G23G27
  -2527694.45348  -2050448.62944  23782965.1994   23782961.2384
      -563.9034
   7235950.17247   5635115.39142  24611810.2934   24611809.4804
     -3041.3824
  -4548936.24249  -3537707.19945  22433405.2234   22433403.3404
       275.8644
  11324416.68849   8816412.92245  22388051.6374   22388049.3754
     -3564.3624
   -192319.57447   -145428.78542  24726625.6294   24726624.4024
      -742.7754
  -3712385.15648  -2888710.44543  24333397.7464   24333396.7234
      1513.7434
    205985.480 4                  25363510.262
     -5026.572
   1896928.63349   1474876.53146  22054850.0664   22054848.1724
      -932.6584
 04  9  9 22 15 45.0040000  0  8G19G 3G 8G13G10G28G23G27
  -2519100.35948  -2043751.93744  23784600.5824   23784597.1024
      -572.9404
   7281703.66047   5670767.44942  24620516.1444   24620515.5664
     -3050.2334
  -4553018.53549  -3540888.19946  22432628.2854   22432626.6134
       272.1534
  11377994.64549   8858161.95746  22398247.2774   22398244.9414
     -3571.8644
   -181032.60547   -136633.76642  24728774.2774   24728772.4574
      -752.4654
  -3735028.62548  -2906354.66843  24329088.7544   24329087.1024
      1509.5654
    281424.051 3                  25377864.152
     -5029.238
   1910969.81349   1485817.72346  22057522.2624   22057520.1564
      -936.0794
 04  9  9 22 16  0.0040000  0  8G19G 3G 8G13G10G28G23G27
  -2510369.59448  -2036948.72344  23786261.7774   23786258.5164
      -582.0514
   7327590.74247   5706523.58242  24629249.1764   24629248.3754
     -3059.1394
  -4557044.37149  -3544025.20746  22431862.2854   22431860.6564
       268.3894
  11431685.97749   8899999.34446  22408464.5664   22408462.6524
     -3579.4224
   -169599.31247   -127724.71542  24730949.0274   24730947.9104
      -762.2204
  -3757608.19947  -2923949.09443  24324792.1914   24324790.5864
      1505.3054
                                  25392228.309
     -5031.904
   1925063.39149   1496799.73446  22060204.3714   22060201.9734
      -939.5724
 04  9  9 22 16 15.0040000  0  8G19G 3G 8G13G10G28G23G27
  -2501502.18448  -2030039.02744  23787948.9414   23787945.3634
      -591.1614
   7373610.93847   5742383.50442  24638006.1524   24638005.1874
     -3068.0134
  -4561013.94149  -3547118.36746  22431106.6604   22431104.9844
       264.6384
  11485490.13749   8941924.65246  22418702.9574   22418701.0904
     -3586.9444
   -158019.98447   -118701.81242  24733152.0744   24733152.3714
      -771.9554
  -3780123.95348  -2941493.78543  24320507.0664   24320506.8124
      1501.0504
    432423.55112                  25406596.941
     -5034.569
   1939209.31649   1507822.53146  22062895.9024   22062893.8124
      -943.0624
 04  9  9 22 16 30.0040000  0  7G19G 3G 8G13G10G28G27
  -2492497.19148  -2023022.12144  23789662.9574   23789659.2774
      -600.3334
   7419764.85948   5778347.56642  24646788.4184   24646788.8674
     -3076.9284
  -4564926.32849  -3550166.96946  22430361.8944   22430360.1804
       260.8264
  11539407.79349   8983938.38346  22428962.9964   22428961.0944
     -3594.5104
   -146293.73046   -109564.49242  24735384.4104   24735383.9694
      -781.7504
  -3802575.00448  -2958988.06643  24316234.4104   24316233.7234
      1496.7374
   1953408.27049   1518886.65646  22065597.8874   22065595.8054
      -946.5974
 04  9  9 22 16 45.0050000  0  7G19G 3G 8G13G10G28G27
  -2483356.28148  -2015899.31644  23791402.5564   23791398.6104
      -609.3944
   7466052.95747   5814416.19142  24655597.0094   24655596.5794
     -3085.8734
  -4568784.15649  -3553173.05946  22429628.1654   22429626.4074
       257.1894
  11593440.24249   9026041.57445  22439245.3684   22439242.9274
     -3602.1634
   -134422.12547   -100313.86742  24737643.1964   24737642.5484
      -791.4404
  -3824965.12948  -2976434.87943  24311974.4784   24311973.6064
      1492.6754
   1967658.94149   1529991.08646  22068309.6264   22068307.2824
      -950.0454
 04  9  9 22 17  0.0050000  0  7G19G 3G 8G13G10G28G27
  -2474081.90248  -2008672.52344  23793167.4154   23793163.6454
      -618.2924
   7512467.30547   5850583.24242  24664429.8604   24664429.0324
     -3094.2904
  -4572588.32449  -3556137.33246  22428903.9934   22428902.6884
       253.6114
  11647578.51249   9068227.21946  22449547.3454   22449544.9384
     -3609.2184
   -122408.09447    -90952.28542  24739929.6814   24739928.2824
      -800.9354
  -3847292.66848  -2993832.93743  24307725.6574   24307724.2744
      1488.5034
   1981957.96549   1541133.18446  22071030.8294   22071028.4894
      -953.2684
 04  9  9 22 17 15.0050000  0  7G19G 3G 8G13G10G28G27
  -2464672.77048  -2001340.71144  23794957.4704   23794953.7554
      -627.2764
   7559011.62547   5886851.53142  24673285.9384   24673285.9544
     -3102.9554
  -4576338.27049  -3559059.34846  22428190.0954   22428188.7514
       249.9964
  11701826.78149   9110498.59046  22459870.5404   22459868.3414
     -3616.5514
   -110250.41446    -81478.73442  24742242.6964   24742242.1854
      -810.5124
  -3869558.27348  -3011182.71143  24303488.5324   24303487.6964
      1484.3744
   1996306.98449   1552314.23446  22073761.3374   22073759.2474
      -956.6014
 04  9  9 22 17 30.0050000  0  7G19G 3G 8G13G10G28G27
  -2455130.27348  -1993904.98044  23796773.5244   23796769.8994
      -636.1664
   7605683.97748   5923219.58642  24682167.9154   24682166.9314
     -3111.4904
  -4580035.61749  -3561940.39546  22427486.7984   22427485.1694
       246.4904
  11756183.16049   9152854.19546  22470214.3684   22470212.5524
     -3623.7594
    -97950.47747    -71894.38342  24744582.8994   24744583.0914
      -819.9964
  -3891763.35248  -3028485.34443  24299262.8294   24299262.0754
      1480.3394
   2010704.48849   1563533.08246  22076501.0714   22076499.2314
      -959.8344
 04  9  9 22 17 45.0050000  0  7G19G 3G 8G13G10G28G27
  -2445454.65648  -1986365.52344  23798614.7674   23798611.5834
      -645.0414
   7652483.80548   5959686.96142  24691074.2354   24691073.4154
     -3119.9894
  -4583680.66849  -3564780.68446  22426793.1494   22426791.7284
       243.0034
  11810647.08649   9195293.59845  22480578.4544   22480576.5564
     -3630.9284
    -85508.66047    -62199.44542  24746949.9784   24746950.7044
      -829.4544
  -3913908.27348  -3045741.07843  24295048.8604   24295047.6884
      1476.3284
   2025150.18049   1574789.46546  22079249.8064   22079247.8564
      -963.0464
 04  9  9 22 18  0.0050000  0  7G19G 3G 8G13G10G28G27
  -2435646.11748  -1978722.48044  23800480.6734   23800477.7784
      -653.9034
   7699410.46147   5996253.19542  24700003.9314   24700003.0834
     -3128.4444
  -4587273.96149  -3567580.63746  22426109.6344   22426108.0524
       239.5534
  11865218.11349   9237816.46145  22490962.9544   22490960.9784
     -3638.0684
    -72925.43747    -52394.33242  24749345.7674   24749345.1264
      -838.8824
  -3935993.23448  -3062950.10543  24290846.4464   24290844.6304
      1472.3314
   2039643.56649   1586083.02346  22082007.9384   22082005.7704
      -966.2264
 04  9  9 22 18 15.0050000  0  7G19G 3G 8G13G10G28G27
  -2425702.47748  -1970974.17644  23802373.2124   23802369.9744
      -662.9094
   7746465.84447   6032919.71142  24708957.9934   24708956.9424
     -3137.0264
  -4590812.98849  -3570338.31646  22425436.2674   22425434.3374
       235.9354
  11919898.12949   9280424.25445  22501368.1574   22501366.3924
     -3645.3344
    -60198.59847    -42477.31242  24751767.5564   24751766.7904
      -848.4564
  -3958016.14148  -3080110.78143  24286655.4154   24286654.4384
      1468.1944
   2054186.93449   1597415.51646  22084775.4934   22084772.8564
      -969.5584
 04  9  9 22 18 30.0050000  0  7G19G 3G 8G13G10G28G27
  -2415625.17248  -1963121.71944  23804291.2354   23804287.5134
      -671.8204
   7793647.94147   6069684.96542  24717936.1104   24717935.0324
     -3145.4734
  -4594299.65649  -3573055.18746  22424772.4234   22424770.8844
       232.4454
  11974685.27749   9323115.52046  22511793.8764   22511791.7594
     -3652.4774
    -47329.80947    -32449.66442  24754215.3924   24754215.0794
      -857.9194
  -3979978.53548  -3097224.30143  24282476.3214   24282474.5714
      1464.1604
   2068778.57049   1608785.63346  22087552.3604   22087550.1224
      -972.7764
 04  9  9 22 18 45.0050000  0  7G19G 3G 8G13G10G28G27
  -2405415.72348  -1955166.29344  23806233.7674   23806230.3414
      -680.6304
   7840955.05947   6106547.64842  24726938.2904   24726938.3804
     -3153.8084
  -4597735.37949  -3575732.36746  22424118.6264   22424117.1304
       229.0484
  12029577.81349   9365888.91045  22522239.5174   22522237.5014
     -3659.5024
    -34320.68447    -22312.66442  24756691.5564   24756689.9544
      -867.2754
  -4001881.80548  -3114291.73043  24278307.8844   24278306.7084
      1460.2184
   2083417.01249   1620192.21946  22090337.5404   22090335.7314
      -975.8964
 04  9  9 22 19  0.0050000  0  7G19G 3G 8G13G10G28G27
  -2395078.68047  -1947111.42244  23808200.5014   23808197.4744
      -689.1364
   7888382.32047   6143503.94942  24735963.0014   24735963.5714
     -3161.8174
  -4601124.72349  -3578373.39146  22423473.9624   22423472.2674
       225.9564
  12084570.87949   9408740.64145  22532704.3454   22532701.9114
     -3666.2044
    -21175.83247    -12069.92642  24759193.1034   24759191.4704
      -876.3234
  -4023730.30948  -3131316.51243  24274150.1654   24274149.5014
      1456.5674
   2098097.62549   1631631.66846  22093131.3374   22093129.4784
      -978.7084
 04  9  9 22 19 15.0050000  0  7G19G 3G 8G13G10G28G27
  -2384612.32848  -1938955.80944  23810192.4234   23810189.6184
      -697.7574
   7935931.03947   6180554.86742  24745012.1814   24745010.4274
     -3169.9154
  -4604466.10949  -3580977.05946  22422837.8294   22422836.0604
       222.7594
  12139665.92649   9451671.85545  22543188.6814   22543186.6104
     -3673.0034
     -7893.69547     -1720.21142  24761721.2904   24761720.1854
      -885.4764
  -4045522.46548  -3148297.37544  24270003.6264   24270002.5954
      1452.8104
   2112822.02049   1643105.21546  22095933.3844   22095931.2634
      -981.6264
 04  9  9 22 19 30.0050000  0  7G19G 3G 8G13G10G28G27
  -2374015.99248  -1930698.91844  23812209.4784   23812205.5284
      -706.4224
   7983601.52747   6217700.70742  24754083.3294   24754081.7904
     -3178.0334
  -4607758.90649  -3583542.86346  22422211.5634   22422209.3024
       219.5204
  12194863.25049   9494682.73045  22553692.3374   22553690.0834
     -3679.8224
      5526.31347      8736.94542  24764274.4314   24764273.5484
      -894.6674
  -4067257.67248  -3165233.86343  24265867.3134   24265866.5174
      1449.0144
   2127590.80949   1654613.36746  22098743.8684   22098741.8884
      -984.5864
 04  9  9 22 19 45.0050000  0  7G19G 3G 8G13G10G28G27
  -2363292.91448  -1922343.26244  23814249.5714   23814246.1654
      -714.8724
   8031390.05147   6254938.53542  24763176.3924   24763176.0604
     -3185.9024
  -4611006.53149  -3586073.46946  22421593.3214   22421591.5604
       216.5084
  12250159.29349   9537770.54345  22564214.8134   22564212.6384
     -3686.4034
     19080.64847     19298.79342  24766853.4624   24766852.0324
      -903.6224
  -4088939.24248  -3182128.53943  24261740.8684   24261740.6924
      1445.4384
   2142400.61749   1666153.48046  22101562.0014   22101559.6814
      -987.3214
 04  9  9 22 20  0.0050000  0  7G19G 3G 8G13G10G28G27
  -2352443.09447  -1913888.82444  23816314.3214   23816310.2244
      -723.3214
   8079296.51647   6292268.21142  24772293.4854   24772292.7514
     -3193.7644
  -4614208.86749  -3588568.78146  22420983.8764   22420982.3134
       213.4894
  12305553.80549   9580935.09045  22574756.4314   22574754.1454
     -3692.9674
     32769.29747     29965.29342  24769458.5714   24769457.9384
      -912.5774
  -4110567.04348  -3198981.33643  24257625.9544   24257624.5244
      1441.8534
   2157251.43049   1677725.54746  22104388.0484   22104385.5604
      -990.0544
 04  9  9 22 20 15.0050000  0  7G19G 3G 8G13G10G28G27
  -2341466.03147  -1905335.26644  23818402.7744   23818399.4894
      -731.8044
   8127320.91047   6329689.79342  24781432.7594   24781431.6304
     -3201.6264
  -4617365.58649  -3591028.54746  22420383.2674   22420381.9034
       210.4484
  12361046.89849   9624176.45746  22585316.2284   22585313.9314
     -3699.5404
     46592.62947     40736.69542  24772088.9854   24772089.3644
      -921.5554
  -4132140.71148  -3215791.94943  24253519.9704   24253518.5324
      1438.2454
   2172143.57049   1689329.81646  22107222.0244   22107220.0444
      -992.8094
 04  9  9 22 20 30.0050000  0  7G19G 3G 8G13G10G28G27
  -2330365.37147  -1896685.37944  23820514.9704   23820512.2514
      -740.0444
   8175459.19947   6367200.16442  24790592.1104   24790592.0794
     -3209.2194
  -4620480.31649  -3593455.60546  22419790.2744   22419788.6734
       207.6494
  12416634.81349   9667491.70346  22595893.7434   22595892.1694
     -3705.8614
     60546.80547     51610.08242  24774744.1964   24774744.2824
      -930.2784
  -4153663.85948  -3232563.21143  24249424.2824   24249422.3994
      1434.8774
   2187073.40649   1700963.45346  22110062.5954   22110061.0054
      -995.3224
 04  9  9 22 20 45.0050000  0  7G19G 3G 8G13G10G28G27
  -2319141.70747  -1887939.66044  23822651.0324   23822648.2084
      -748.2444
   8223710.42247   6404798.50042  24799774.2674   24799774.2744
     -3216.7484
  -4623553.96149  -3595850.64146  22419205.6104   22419204.0284
       204.9104
  12472316.52749   9710880.02746  22606490.0244   22606488.0284
     -3712.1144
     74631.02347     62584.80542  24777424.2674   24777424.2864
      -938.9484
  -4175137.11348  -3249295.58643  24245338.3294   24245336.8604
      1431.5504
   2202040.13749   1712625.84846  22112910.6964   22112908.5874
      -997.7824
 04  9  9 22 21  0.0050000  0  7G19G 3G 8G13G10G28G27
  -2307795.86347  -1879098.73444  23824810.0634   23824806.4664
      -756.3904
   8272073.43847   6442483.93442  24808977.1264   24808977.4854
     -3224.2014
  -4626587.26249  -3598214.24246  22418628.6654   22418626.3954
       202.2204
  12528090.89549   9754340.56645  22617103.9464   22617101.5244
     -3718.2914
     88844.53147     73660.29342  24780129.3294   24780128.4194
      -947.5674
  -4196561.09448  -3265989.54743  24241261.6494   24241260.1964
      1428.2654
   2217042.98049   1724316.37546  22115766.0874   22115763.7314
     -1000.1904
 04  9  9 22 21 15.0050000  0  7G19G 3G 8G13G10G28G27
  -2296330.63347  -1870164.76244  23826991.4784   23826988.9894
      -764.3494
   8320544.94147   6480253.95342  24818201.2594   24818200.6774
     -3231.4344
  -4629583.10549  -3600548.64546  22418058.3844   22418056.7164
       199.7234
  12583954.70349   9797870.79346  22627734.2354   22627732.0094
     -3724.2544
    103184.37146     84834.19942  24782857.7354   24782856.6654
      -955.9894
  -4217938.89148  -3282647.53144  24237193.4154   24237192.6144
      1425.1864
   2232078.94549   1736032.71146  22118627.3454   22118625.1654
     -1002.3984
 04  9  9 22 21 30.0050000  0  7G19G 3G 8G13G10G28G27
  -2284744.71547  -1861136.75044  23829195.9154   23829193.2164
      -772.3954
   8369126.02748   6518109.33242  24827446.3374   24827444.9894
     -3238.7394
  -4632540.13349  -3602852.81246  22417495.8844   22417494.0404
       197.1354
  12639909.13749   9841471.64545  22638381.6344   22638379.5794
     -3730.2964
    117651.59045     96107.34442  24785611.1264   24785610.3844
      -964.4814
  -4239269.01248  -3299268.37944  24233134.6964   24233133.5524
      1422.0084
   2247149.42649   1747775.94546  22121495.0094   22121492.9194
     -1004.6994
 04  9  9 22 21 45.0050000  0  7G19G 3G 8G13G10G28G27
  -2273037.07447  -1852013.92244  23831424.2594   23831420.8994
      -780.5094
   8417817.34447   6556050.60542  24836711.5324   24836711.7084
     -3246.0884
  -4635457.55149  -3605126.12146  22416940.5484   22416938.6494
       194.4954
  12695954.82049   9885143.60245  22649047.0244   22649044.8024
     -3736.3794
    132247.09446    107480.49643  24788388.2124   24788388.4314
      -973.0344
  -4260550.51248  -3315851.34043  24229084.5634   24229083.0634
      1418.7674
   2262255.28949   1759546.74246  22124369.7514   22124367.4114
     -1007.0584
 04  9  9 22 22  0.0050000  0  7G19G 3G 8G13G10G28G27
  -2261209.36747  -1842797.51644  23833674.5564   23833672.4504
      -788.5144
   8466616.90247   6594076.24242  24845997.6654   24845997.2434
     -3253.3044
  -4638336.89149  -3607369.75446  22416392.7744   22416390.8994
       191.9564
  12752089.93448   9928885.22345  22659729.0564   22659727.1814
     -3742.3414
    146969.30546    118952.34443  24791190.1184   24791189.5994
      -981.4814
  -4281784.95748  -3332397.60943  24225044.0014   24225042.5014
      1415.6304
   2277394.82049   1771343.79346  22127250.8134   22127248.2314
     -1009.3024
 04  9  9 22 22 15.0050000  0  7G19G 3G 8G13G10G28G27
  -2249265.86347  -1833490.86744  23835947.4234   23835944.9704
      -796.2344
   8515520.13347   6632182.68042  24855304.0954   24855303.4784
     -3260.2154
  -4641182.32049  -3609586.95746  22415851.2984   22415849.3214
       189.6954
  12808309.94548   9972693.00845  22670427.7124   22670425.8954
     -3748.0014
    161813.69147    130519.42642  24794014.3844   24794013.9974
      -989.6264
  -4302976.56648  -3348910.52343  24221010.9934   24221009.3604
      1412.7744
   2292563.82449   1783163.79746  22130136.8604   22130134.5484
     -1011.2674
 04  9  9 22 22 30.0050000  0  7G19G 3G 8G13G10G28G27
  -2237205.21947  -1824092.94544  23838243.0244   23838239.5094
      -804.0434
   8564527.86347   6670370.48842  24864629.5404   24864629.3994
     -3267.1824
  -4643993.01649  -3611777.09446  22415316.0794   22415314.6384
       187.3804
  12864615.79349  10016567.67246  22681142.6734   22681140.5404
     -3753.7234
    176781.37547    142182.54742  24796862.4384   24796862.4274
      -997.8464
  -4324124.20748  -3365389.16443  24216986.7824   24216985.4194
      1409.8434
   2307763.29749   1795007.54346  22133029.1574   22133027.1534
     -1013.2984
 04  9  9 22 22 45.0050000  0  7G19G 3G 8G13G10G28G27
  -2225026.53948  -1814603.06244  23840560.8454   23840557.1494
      -811.9124
   8613640.80948   6708640.30942  24873976.3214   24873975.6384
     -3274.1964
  -4646767.87549  -3613939.32046  22414787.9314   22414786.3954
       184.9914
  12921008.01649  10060509.65245  22691873.4464   22691871.5364
     -3759.4824
    191873.22347    153942.46142  24799734.8924   24799733.8214
     -1006.1234
  -4345226.84048  -3381832.74244  24212971.1964   24212970.4354
      1406.8424
   2322994.32049   1806875.87146  22135927.7124   22135925.6264
     -1015.4024
 04  9  9 22 23  0.0050000  0  7G19G 3G 8G13G10G28G27
  -2212729.83647  -1805021.18744  23842900.1964   23842897.5834
      -819.7804
   8662858.55948   6746991.78542  24883341.5484   24883341.4664
     -3281.1834
  -4649507.20749  -3616073.84846  22414266.8214   22414265.2784
       182.6224
  12977486.39848  10104518.77345  22702620.3454   22702618.5674
     -3765.2264
    207089.19147    165799.07843  24802630.7984   24802630.0994
     -1014.3984
  -4366284.42648  -3398241.21544  24208964.2744   24208962.8174
      1403.8394
   2338256.72749   1818768.66046  22138832.1184   22138830.2084
     -1017.4944
 04  9  9 22 23 15.0050000  0  7G19G 3G 8G13G10G28G27
  -2200317.90247  -1795349.54344  23845262.3684   23845259.4074
      -827.4624
   8712177.94948   6785422.47342  24892727.1494   24892726.4624
     -3287.9594
  -4652213.62149  -3618182.73446  22413752.0404   22413750.1494
       180.4284
  13034047.74248  10148592.52745  22713383.9854   22713381.6224
     -3770.7564
    222426.29347    177750.04343  24805549.4544   24805548.3884
     -1022.4734
  -4387299.89548  -3414616.88743  24204965.0484   24204962.8414
      1401.0314
   2353547.67649   1830683.68446  22141741.7284   22141739.5634
     -1019.3974
 04  9  9 22 23 30.0050000  0  7G19G 3G 8G13G10G28G27
  -2187789.77048  -1785587.33244  23847646.6734   23847643.4234
      -835.2094
   8761599.75048   6823932.98842  24902131.7044   24902131.8294
     -3294.7874
  -4654886.21949  -3620265.27746  22413243.2984   22413241.0524
       178.1734
  13090692.91848  10192731.59845  22724163.5324   22724161.1144
     -3776.3454
    237885.47748    189796.16043  24808490.9784   24808490.0794
     -1030.6124
  -4408272.09448  -3430958.82043  24200974.1574   24200971.8954
      1398.1474
   2368868.16449   1842621.73446  22144656.9384   22144654.6574
     -1021.3664
 04  9  9 22 23 45.0050000  0  7G19G 3G 8G13G10G28G27
  -2175147.34447  -1775736.09844  23850052.3214   23850048.4744
      -842.8284
   8811121.47347   6862521.31342  24911555.3604   24911555.1654
     -3301.4484
  -4657526.98048  -3622322.99646  22412740.4934   22412738.6264
       176.0514
  13147419.51248  10236934.12145  22734958.3684   22734956.1424
     -3781.7734
    253464.50847    201935.66042  24811455.8294   24811454.3414
     -1038.6024
  -4429203.08248  -3447268.64143  24196990.6654   24196989.0014
      1395.3994
   2384216.14149   1854581.19546  22147577.8294   22147575.4274
     -1023.1984
 04  9  9 22 24  0.0050000  0  7G19G 3G 8G13G10G28G27
  -2162390.00448  -1765795.30544  23852479.8134   23852476.2284
      -850.4894
   8860743.26648   6901187.66842  24920998.3374   24920997.3024
     -3308.1204
  -4660135.23848  -3624355.39846  22412244.2284   22412242.3684
       173.8844
  13204227.89548  10281200.38345  22745768.1574   22745765.7784
     -3787.2264
    269163.84047    214168.92643  24814443.3294   24814442.4234
     -1046.6224
  -4450092.21948  -3463545.85243  24193015.7904   24193014.3534
      1392.6094
   2399592.07849   1866562.45346  22150503.8374   22150501.9464
     -1025.0624
 04  9  9 22 24 15.0050000  0  7G19G 3G 8G13G10G28G27
  -2149518.22747  -1755765.32444  23854929.8294   23854926.4584
      -858.1184
   8910464.43448   6939931.39842  24930459.6654   24930458.4814
     -3314.7454
  -4662711.67248  -3626363.00046  22411753.9624   22411751.8804
       171.7624
  13261117.31648  10325529.77745  22756594.2354   22756591.9074
     -3792.6284
    284982.93046    226495.48843  24817453.1184   24817452.4384
     -1054.6064
  -4470939.90248  -3479790.76643  24189048.5714   24189046.4894
      1389.8464
   2414995.51649   1878565.12946  22153434.9464   22153433.1104
     -1026.8964
 04  9  9 22 24 30.0050000  0  7G19G 3G 8G13G10G28G27
  -2136532.12148  -1745646.26644  23857400.5634   23857397.8844
      -865.7404
   8960284.57447   6978752.27042  24939939.6964   24939939.1454
     -3321.3434
  -4665256.35549  -3628345.85546  22411269.5244   22411267.8644
       169.6464
  13318087.46548  10369922.08645  22767434.8374   22767432.9974
     -3798.0104
    300921.47746    238915.14542  24820486.3134   24820485.9934
     -1062.5704
  -4491746.27348  -3496003.48043  24185089.8134   24185087.9234
      1387.0914
   2430426.32048   1890589.13746  22156371.4154   22156369.1614
     -1028.7204
 04  9  9 22 24 45.0050000  0  7G19G 3G 8G13G10G28G27
  -2123430.64847  -1735437.30944  23859893.2434   23859890.5564
      -873.4324
   9010204.32448   7017650.77743  24949439.8064   24949439.1344
     -3327.9834
  -4667768.35548  -3630303.25046  22410791.7204   22410790.0094
       167.4674
  13375138.87148  10414377.70345  22778291.3844   22778289.5634
     -3803.4274
    316980.43846    251428.61342  24823542.2674   24823541.0244
     -1070.5974
  -4512510.24248  -3512183.16844  24181138.0954   24181137.1774
      1384.2654
   2445885.34049   1902635.13346  22159313.0484   22159310.7284
     -1030.6014
 04  9  9 22 25  0.0050000  0  7G19G 3G 8G13G10G28G27
  -2110214.50847  -1725139.00044  23862408.3064   23862404.7474
      -881.0764
   9060222.74247   7056626.12142  24958957.6574   24958957.3454
     -3334.5614
  -4670248.24248  -3632235.62146  22410320.0634   22410318.4664
       165.3264
  13432270.64548  10458895.94145  22789163.3844   22789161.4274
     -3808.7854
    333159.00047    264035.31342  24826621.0404   24826620.1184
     -1078.5714
  -4533232.58248  -3528330.39543  24177194.8294   24177193.4274
      1381.4894
   2461371.95349   1914702.62146  22162260.1344   22162258.0564
     -1032.4414
 04  9  9 22 25 15.0050000  0  7G19G 3G 8G13G10G28G27
  -2096882.23448  -1714750.21144  23864945.8534   23864942.0364
      -888.8184
   9110340.73047   7095679.08642  24968495.0794   24968494.5404
     -3341.1994
  -4672694.70749  -3634141.94946  22409854.2904   22409852.6924
       163.0984
  13489484.02348  10503477.77745  22800050.5954   22800048.8954
     -3814.2254
    349458.55147    276736.26243  24829722.5324   24829722.2594
     -1086.6374
  -4553911.73448  -3544444.00843  24173259.1574   24173258.0484
      1378.6104
   2476887.67249   1926792.80547  22165212.5634   22165210.4424
     -1034.3814
 04  9  9 22 25 30.0050000  0  7G19G 3G 8G13G10G28G27
  -2083434.00048  -1704271.05544  23867504.4154   23867501.4424
      -896.5494
   9160557.85547   7134809.33242  24978049.9784   24978050.5484
     -3347.8084
  -4675107.90249  -3636022.35946  22409395.1424   22409393.3174
       160.8804
  13546778.49649  10548122.80545  22810953.4854   22810951.6774
     -3819.6324
    365878.73448    289531.20342  24832847.5794   24832846.3804
     -1094.6794
  -4574547.80148  -3560524.02743  24169332.2674   24169330.7634
      1375.7384
   2492432.21949   1938905.43846  22168170.7514   22168168.7594
     -1036.3034
 04  9  9 22 25 45.0050000  0  7G19G 3G 8G13G10G28G27
  -2069869.75848  -1693701.51244  23870085.8844   23870082.2044
      -904.2834
   9210873.84047   7174016.55542  24987625.7044   24987625.6264
     -3354.3994
  -4677487.82849  -3637876.82446  22408942.1344   22408940.6064
       158.6624
  13604153.79349  10592830.80145  22821871.6104   22821869.8414
     -3825.0204
    382419.42248    302420.05543  24835994.8604   24835994.0994
     -1102.7124
  -4595140.86348  -3576570.53543  24165413.6964   24165412.0444
      1372.8714
   2508005.50449   1951040.46546  22171134.2594   22171131.9274
     -1038.2194
 04  9  9 22 26  0.0050000  0  7G19G 3G 8G13G10G28G27
  -2056187.99648  -1683040.39144  23872689.6884   23872685.5204
      -912.1174
   9261289.98047   7213301.87542  24997219.4074   24997219.0244
     -3361.0764
  -4679833.28949  -3639704.44546  22408495.5324   22408494.5244
       156.3644
  13661611.13349  10637602.73845  22832805.4314   22832803.4624
     -3830.4894
    399082.03948    315403.92642  24839165.0954   24839165.1854
     -1110.8414
  -4615689.38348  -3592582.34443  24161503.2594   24161502.1924
      1369.9014
   2523609.01649   1963199.05546  22174103.4624   22174101.5754
     -1040.2344
 04  9  9 22 26 15.0050000  0  7G19G 3G 8G13G10G28G27
  -2042387.03548  -1672286.37944  23875315.8214   23875312.5914
      -920.0644
   9311807.54747   7252666.16842  25006832.2514   25006832.2514
     -3367.8384
  -4682142.07449  -3641503.49246  22408056.1964   22408054.8104
       153.9194
  13719151.98049  10682439.73845  22843755.5324   22843753.1884
     -3836.0574
    415868.10547    328483.98042  24842359.4154   24842358.9974
     -1119.0714
  -4636191.59448  -3608558.07043  24157602.0324   24157601.0954
      1366.8144
   2539244.41049   1975382.48046  22177078.8454   22177076.7554
     -1042.3604
 04  9  9 22 26 30.0050000  0  7G19G 3G 8G13G10G28G27
  -2028465.08248  -1661438.10944  23877964.6424   23877961.5954
      -928.1304
   9362427.91047   7292110.59442  25016465.0404   25016464.8924
     -3374.6914
  -4684412.69149  -3643272.80146  22407624.6034   22407622.5484
       151.3744
  13776777.98849  10727343.10945  22854720.8604   22854718.9384
     -3841.7344
    432779.33247    341661.57442  24845578.0954   24845576.6344
     -1127.4154
  -4656645.68448  -3624496.25843  24153709.3924   24153709.1104
      1363.6064
   2554913.48449   1987592.16046  22180060.2824   22180058.4034
     -1044.6054
 04  9  9 22 26 45.0050000  0  7G19G 3G 8G13G10G28G27
  -2014423.64148  -1650496.70744  23880636.3844   23880633.5714
      -936.0964
   9413149.25046   7331633.67242  25026116.5174   25026117.0014
     -3381.4234
  -4686646.88749  -3645013.71946  22407199.2594   22407197.3254
       148.9464
  13834487.05549  10772311.18445  22865702.7354   22865700.9704
     -3847.2714
    449814.13347    354935.46142  24848819.5174   24848818.7354
     -1135.6534
  -4677053.05948  -3640398.07843  24149825.9074   24149825.2744
      1360.4924
   2570614.72349   1999826.88346  22183048.4384   22183046.2984
     -1046.7494
 04  9  9 22 27  0.0050000  0  7G19G 3G 8G13G10G28G27
  -2000260.37948  -1639460.39144  23883332.0094   23883328.5094
      -944.2174
   9463973.34446   7371236.85542  25035788.0324   25035788.8334
     -3388.2734
  -4688842.33649  -3646724.44146  22406781.5954   22406779.6104
       146.3634
  13892281.10249  10817345.48445  22876700.6884   22876698.5914
     -3852.9364
    466974.42248    368307.12142  24852085.0014   24852084.6964
     -1144.0194
  -4697411.61748  -3656261.85243  24145952.0094   24145950.9894
      1357.2374
   2586350.27049   2012088.36346  22186042.5874   22186040.7244
     -1049.0364
 04  9  9 22 27 15.0050000  0  7G19G 3G 8G13G10G28G27
  -1985974.67648  -1628328.67644  23886050.4544   23886047.2474
      -952.3804
   9514900.60946   7410920.43042  25045479.3604   25045480.6224
     -3395.1514
  -4690998.25849  -3648404.37546  22406370.9384   22406369.6774
       143.7284
  13950160.71149  10862446.46145  22887714.6104   22887712.8494
     -3858.6414
    484260.98048    381777.14842  24855374.2204   24855373.9034
     -1152.4374
  -4717720.47348  -3672086.90644  24142087.6264   24142086.7394
      1353.9244
   2602120.85549   2024377.13746  22189043.7984   22189041.6614
     -1051.3724
 04  9  9 22 27 30.0050000  0  7G19G 3G 8G13G10G28G27
  -1971564.20748  -1617099.73844  23888792.9624   23888789.5174
      -960.6984
   9565933.11346   7450685.96542  25055190.8064   25055191.3644
     -3402.1674
  -4693112.20749  -3650051.60546  22405968.9624   22405967.4894
       140.9304
  14008128.02049  10907615.76245  22898745.6654   22898743.7164
     -3864.4874
    501675.98848    395347.28143  24858688.6654   24858688.2864
     -1161.0014
  -4737977.31648  -3687871.42643  24138232.7514   24138231.0444
      1350.4564
   2617928.78549   2036695.00046  22192052.0174   22192050.1694
     -1053.8624
 04  9  9 22 27 45.0050000  0  7G19G 3G 8G13G10G28G27
  -1957029.88748  -1605774.27344  23891558.6184   23891555.4934
      -968.9554
   9617069.58646   7490532.53942  25064922.2744   25064921.7904
     -3409.0984
  -4695185.12949  -3651666.85546  22405574.4854   22405572.9354
       138.1954
  14066181.89549  10952852.52345  22909793.1344   22909790.9424
     -3870.2584
    519218.44148    409016.73443  24862026.7904   24862026.1854
     -1169.4974
  -4758183.04348  -3703616.11344  24134387.5874   24134385.9154
      1347.0484
   2633773.18049   2049041.28546  22195066.8604   22195065.0054
     -1056.2934
 04  9  9 22 28  0.0050000  0  7G19G 3G 8G13G10G28G27
  -1942369.81248  -1594350.83644  23894348.0014   23894345.2474
      -977.3384
   9668311.43046   7530461.21542  25074672.8064   25074673.3214
     -3416.1234
  -4697215.45749  -3653248.91446  22405188.2434   22405186.5914
       135.3554
  14124323.77749  10998157.86745  22920856.7514   22920855.2554
     -3876.1264
    536889.99648    422786.78143  24865389.4464   24865389.0094
     -1178.1044
  -4778335.84848  -3719319.57844  24130552.5094   24130550.8684
      1343.5204
   2649655.73049   2061417.30146  22198089.2044   22198087.3214
     -1058.8374
 04  9  9 22 28 15.0050000  0  7G19G 3G 8G13G10G28G27
  -1927585.05948  -1582830.23844  23897161.8064   23897157.9934
      -985.6504
   9719657.39147   7570471.01642  25084443.9934   25084444.4854
     -3423.0644
  -4699204.15649  -3654798.53146  22404809.1574   22404808.0364
       132.5804
  14182552.33649  11043530.74645  22931937.6104   22931935.5524
     -3881.9044
    554689.32847    436656.39143  24868776.2904   24868776.5524
     -1186.6224
  -4798436.72748  -3734982.56244  24126727.9704   24126726.7514
      1340.0594
   2665575.39849   2073822.24246  22201118.7284   22201116.9274
     -1061.3114
 04  9  9 22 28 30.0050000  0  7G19G 3G 8G13G10G28G27
  -1912673.30548  -1571210.69544  23899999.3294   23899995.6814
      -994.1174
   9771109.43447   7610563.49642  25094235.0174   25094235.4384
     -3430.1364
  -4701148.93749  -3656313.94146  22404439.7124   22404437.5604
       129.6524
  14240869.46949  11088972.64845  22943034.8374   22943032.8294
     -3887.8094
    572618.74247    450627.37543  24872187.9624   24872187.4274
     -1195.2944
  -4818483.27748  -3750603.21143  24122913.1104   24122911.4664
      1336.4374
   2681534.50849   2086257.91846  22204155.8214   22204153.7394
     -1063.9414
 04  9  9 22 28 45.0050000  0  7G19G 3G 8G13G10G28G27
  -1897635.59448  -1559492.98445  23902861.0794   23902858.1614
     -1002.5144
   9822666.07846   7650737.47342  25104046.1734   25104046.3844
     -3437.1104
  -4703050.81649  -3657795.91846  22404077.6814   22404075.9504
       126.7924
  14299273.99249  11134482.64845  22954148.9384   22954146.5324
     -3893.6354
    590677.10947    464698.80943  24875625.2284   24875623.8134
     -1203.8914
  -4838476.48848  -3766182.29744  24119108.1734   24119107.2904
      1332.8814
   2697532.00849   2098723.50446  22207199.9154   22207197.9664
     -1066.5004
 04  9  9 22 29  0.0050000  0  7G19G 3G 8G13G10G28G27
  -1882469.79348  -1547675.45344  23905746.9464   23905743.6884
     -1011.0534
   9874329.17247   7690994.39842  25113877.4384   25113877.2284
     -3444.2064
  -4704907.52349  -3659242.68746  22403724.1424   22403722.9154
       123.7804
  14357767.73048  11180062.16045  22965280.1884   22965277.8294
     -3899.5834
    608866.37548    478872.27343  24879086.0634   24879085.4934
     -1212.6184
  -4858414.22748  -3781718.15244  24115314.4784   24115312.3724
      1329.1834
   2713569.99249   2111220.64146  22210251.9544   22210249.8174
     -1069.1994
 04  9  9 22 29 15.0050000  0  7G19G 3G 8G13G10G28G27
  -1867174.98048  -1535757.43044  23908657.5714   23908653.7434
     -1019.6544
   9926099.14847   7731334.63742  25123728.3134   25123728.6424
     -3451.3324
  -4706718.28148  -3660653.65646  22403379.7514   22403378.0134
       120.7174
  14416351.20749  11225711.60245  22976427.9464   22976425.8494
     -3905.5654
    627187.31647    493148.35943  24882572.1184   24882571.5794
     -1221.3964
  -4878295.66848  -3797210.17244  24111530.9154   24111529.1224
      1325.4294
   2729649.33649   2123749.99646  22213311.3994   22213309.6734
     -1071.9564
 04  9  9 22 29 30.0050000  0  7G19G 3G 8G13G10G28G27
  -1851750.44148  -1523738.29744  23911592.7204   23911589.1614
     -1028.3034
   9977976.56347   7771758.57042  25133600.5794   25133600.8334
     -3458.4944
  -4708482.37548  -3662028.25446  22403044.1264   22403042.3334
       117.6064
  14475024.98449  11271431.40645  22987593.3294   22987591.4974
     -3911.5854
    645640.49647    507527.44542  24886084.0874   24886082.5674
     -1230.2124
  -4898120.05548  -3812657.70744  24107758.6104   24107757.5754
      1321.6264
   2745770.75849   2136312.15246  22216379.5404   22216377.0364
     -1074.7614
 04  9  9 22 29 45.0050000  0  7G19G 3G 8G13G10G28G27
  -1836198.20748  -1511619.66044  23914551.7984   23914548.6494
     -1036.8164
  10029959.09047   7812264.39542  25143492.5874   25143492.1774
     -3465.5024
  -4710201.85948  -3663368.10946  22402716.7984   22402714.8414
       114.6324
  14533786.78148  11317219.79345  22998775.3134   22998773.4314
     -3917.4534
    664223.84047    522007.97742  24889620.0794   24889619.3684
     -1238.8904
  -4917889.21948  -3828062.20744  24103996.5484   24103995.2204
      1317.9444
   2761932.29749   2148905.56346  22219454.7674   22219452.7634
     -1077.4364
 04  9  9 22 30  0.0050000  0  7G19G 3G 8G13G10G28G27
  -1820518.83248  -1499401.94544  23917535.8374   23917532.0564
     -1045.2924
  10082045.66447   7852851.35942  25153404.2904   25153403.8294
     -3472.4384
  -4711877.22748  -3664673.57846  22402398.1104   22402395.9114
       111.6914
  14592635.90648  11363076.22745  23009973.6344   23009971.7434
     -3923.2754
    682936.67648    536589.40242  24893181.3924   24893181.0914
     -1247.5224
  -4937603.65648  -3843424.06244  24100244.7824   24100243.7124
      1314.2964
   2778133.32049   2161529.73846  22222537.9704   22222535.7674
     -1080.0684
 04  9  9 22 30 15.0050000  0  7G19G 3G 8G13G10G28G27
  -1804710.08648  -1487083.43744  23920544.0714   23920540.7474
     -1053.9164
  10134238.26247   7893520.89142  25163336.2354   25163336.9464
     -3479.5074
  -4713506.31649  -3665942.98046  22402087.9384   22402086.0324
       108.6064
  14651574.09848  11409002.04745  23021189.5174   23021187.6304
     -3929.2134
    701781.07048    551273.34842  24896766.9544   24896766.5604
     -1256.2934
  -4957261.27048  -3858741.64844  24096504.1964   24096502.1494
      1310.5084
   2794376.02049   2174186.39146  22225628.5484   22225626.2514
     -1082.8474
 04  9  9 22 30 30.0050000  0  7G19G 3G 8G13G10G28G27
  -1788773.97748  -1474665.67644  23923576.2044   23923573.2864
     -1062.4074
  10186534.59448   7934271.23042  25173288.1184   25173289.0754
     -3486.4224
  -4715091.29348  -3667178.01246  22401786.3134   22401785.3134
       105.6654
  14710599.00848  11454995.46145  23032422.0324   23032419.5174
     -3934.9944
    720754.91047    566058.15643  24900377.9624   24900376.8334
     -1264.9234
  -4976863.93448  -3874016.43044  24092773.5564   24092771.7314
      1306.8444
   2810658.49249   2186874.03546  22228727.1494   22228724.8764
     -1085.4984
 04  9  9 22 30 45.0050000  0  7G19G 3G 8G13G10G28G27
  -1772708.40247  -1462147.05144  23926633.6344   23926630.2744
     -1071.0384
  10238936.20348   7975103.64542  25183260.7044   25183259.3644
     -3493.4414
  -4716629.93449  -3668376.94946  22401493.1344   22401491.7204
       102.5764
  14769712.41448  11501057.84045  23043670.9314   23043668.0204
     -3940.8944
    739860.10247    580945.31342  24904013.0634   24904012.7434
     -1273.6794
  -4996409.64548  -3889246.79744  24089053.8684   24089052.2284
      1303.0474
   2826982.67249   2199594.18046  22231833.1964   22231831.1264
     -1088.2794
 04  9  9 22 31  0.0050000  0  7G19G 3G 8G13G10G28G27
  -1756512.76247  -1449527.06644  23929716.0324   23929711.4704
     -1079.7094
  10291443.44547   8016018.37542  25193250.6264   25193250.8764
     -3500.4834
  -4718121.34449  -3669539.07846  22401209.6034   22401208.3724
        99.4274
  14828914.91449  11547189.64545  23054936.2434   23054933.7394
     -3946.8334
    759097.12147    595935.19543  24907674.3924   24907674.0634
     -1282.4684
  -5015897.62948  -3904432.20344  24085346.0324   24085344.0604
      1299.1994
   2843349.20348   2212347.32446  22234947.6494   22234945.8604
     -1091.1024
 04  9  9 22 31 15.0050000  0  7G19G 3G 8G13G10G28G27
  -1740184.39147  -1436803.64144  23932822.5954   23932818.7434
     -1088.5584
  10344058.70748   8057017.24242  25203263.8844   25203263.9664
     -3507.6844
  -4719563.22749  -3670662.60946  22400935.5014   22400933.8134
        96.1264
  14888208.75848  11593392.62945  23066219.7514   23066218.0874
     -3952.9234
    778468.46147    611029.76642  24911359.9934   24911359.5564
     -1291.4234
  -5035325.16048  -3919570.51643  24081648.5874   24081646.8294
      1295.1694
   2859760.71149   2225135.50846  22238071.1034   22238068.2824
     -1094.1014
 04  9  9 22 31 30.0050000  0  7G19G 3G 8G13G10G28G27
  -1723724.24247  -1423977.53945  23935954.9934   23935951.9544
     -1097.3434
  10396780.76248   8098099.35542  25213296.5954   25213295.4784
     -3514.8044
  -4720956.34049  -3671748.14846  22400670.1104   22400668.5484
        92.8744
  14947592.81648  11639665.89145  23077519.9704   23077518.4424
     -3958.9374
    797973.06647    626228.16843  24915071.5954   24915071.2984
     -1300.3074
  -5054693.33248  -3934662.57044  24077963.2744   24077961.4854
      1291.2114
   2876216.37949   2237958.12146  22241202.3294   22241199.9034
     -1097.0454
 04  9  9 22 31 45.0050000  0  7G19G 3G 8G13G10G28G27
  -1707133.28147  -1411049.50444  23939112.4074   23939108.3994
     -1106.0644
  10449608.13348   8139263.54742  25223349.4384   25223349.6224
     -3521.8254
  -4722301.62549  -3672796.41046  22400414.1654   22400412.6854
        89.6864
  15007065.62948  11686008.30945  23088837.1884   23088835.8684
     -3964.8544
    817609.82847    641529.52042  24918808.4704   24918808.1264
     -1309.1174
  -5074003.00848  -3949709.03944  24074288.7744   24074287.1614
      1287.3124
   2892715.05949   2250814.23046  22244341.6494   22244339.6924
     -1099.9124
 04  9  9 22 32  0.0050000  0  7G19G 3G 8G13G10G28G27
  -1690413.36347  -1398021.00844  23942293.9784   23942289.9194
     -1114.6614
  10502538.73848   8180508.14142  25233421.5174   25233421.6034
     -3528.7074
  -4723601.15649  -3673809.01246  22400167.0404   22400165.1424
        86.6354
  15066625.10948  11732418.25845  23100171.2904   23100169.5674
     -3970.6324
    837376.81347    656932.36742  24922569.8764   24922570.4074
     -1317.7994
  -5093255.88348  -3964711.22744  24070624.5794   24070623.3684
      1283.5254
   2909255.02048   2263702.52046  22247489.2044   22247487.3374
     -1102.6644
 04  9  9 22 32 15.0050000  0  7G19G 3G 8G13G10G28G27
  -1673558.02748  -1384886.95744  23945501.1574   23945497.7244
     -1123.6894
  10555578.74648   8221838.00042  25243515.5094   25243514.0564
     -3536.0014
  -4724848.15649  -3674780.68746  22399929.4854   22399927.8924
        83.1334
  15126277.56348  11778900.66845  23111522.7674   23111520.9504
     -3976.8304
    857280.34848    672441.59442  24926357.7674   24926356.3174
     -1326.9024
  -5112445.51648  -3979664.16044  24066973.0634   24066971.1534
      1279.3094
   2925842.73449   2276628.01646  22250645.9934   22250643.6614
     -1105.8484
 04  9  9 22 32 30.0050000  0  7G19G 3G 8G13G10G28G27
  -1656568.73848  -1371648.54745  23948734.6734   23948731.4704
     -1132.6194
  10608726.11748   8263251.56342  25253628.9384   25253628.1454
     -3543.1584
  -4726044.42249  -3675712.84046  22399701.8604   22399699.8454
        79.7514
  15186021.07849  11825454.02745  23122891.5174   23122889.9664
     -3982.9014
    877318.61747    688055.84442  24930170.5324   24930169.9504
     -1335.8854
  -5131573.50048  -3994569.03943  24063333.4854   24063331.2554
      1275.1994
   2942476.58249   2289589.46546  22253811.2284   22253808.8804
     -1108.9234
 04  9  9 22 32 45.0050000  0  7G19G 3G 8G13G10G28G27
  -1639447.69948  -1358307.46544  23951992.2594   23951988.8564
     -1141.4034
  10661978.59447   8304747.00042  25263762.1034   25263761.5754
     -3550.1654
  -4727191.84049  -3676606.92646  22399483.4704   22399481.5954
        76.4954
  15245853.45749  11872076.63745  23134277.3604   23134275.1144
     -3988.8254
    897489.62547    703773.49243  24934009.0244   24934009.0834
     -1344.7344
  -5150641.83248  -4009427.44144  24059704.0564   24059702.8994
      1271.2224
   2959154.54749   2302585.27346  22256984.5794   22256982.7244
     -1111.8644
 04  9  9 22 33  0.0050000  0  7G19G 3G 8G13G10G28G27
  -1622195.07448  -1344863.85544  23955275.5404   23955271.3994
     -1150.1754
  10715335.51248   8346323.83642  25273915.6814   25273914.7354
     -3557.1284
  -4728290.71149  -3677463.18046  22399274.4154   22399272.7124
        73.2584
  15305774.20748  11918768.11345  23145679.4784   23145677.6774
     -3994.7174
    917792.85547    719594.18843  24937872.9384   24937872.7204
     -1353.5494
  -5169650.50448  -4024239.36344  24056087.4464   24056085.3374
      1267.2454
   2975876.50449   2315615.37546  22260167.0014   22260164.7904
     -1114.7974
 04  9  9 22 33 15.0050000  0  7G19G 3G 8G13G10G28G27
  -1604808.96148  -1331316.22744  23958583.8924   23958579.7864
     -1159.0744
  10768798.56348   8387983.32442  25284089.3994   25284088.4934
     -3564.2034
  -4729338.99249  -3678280.00446  22399074.8844   22399073.3724
        69.8854
  15365784.87549  11965529.65645  23157099.6494   23157097.2984
     -4000.7114
    938230.14848    735519.36743  24941761.8214   24941761.2434
     -1362.4864
  -5188597.65648  -4039003.35243  24052482.0244   24052479.3174
      1263.1434
   2992644.23849   2328681.15246  22263357.7984   22263355.6734
     -1117.8494
 04  9  9 22 33 30.0050000  0  7G19G 3G 8G13G10G28G27
  -1587288.41848  -1317663.84444  23961918.0404   23961914.3884
     -1168.0364
  10822368.38348   8429726.06642  25294283.8604   25294280.6344
     -3571.3214
  -4730335.70349  -3679056.65246  22398885.2284   22398883.8494
        66.4474
  15425885.93049  12012361.62145  23168536.2044   23168535.0204
     -4006.7374
    958802.25448    751549.58643  24945676.2824   24945675.9664
     -1371.4744
  -5207482.36748  -4053718.68744  24048888.1184   24048886.2864
      1258.9814
   3009458.77349   2341783.38746  22266557.4934   22266555.2594
     -1120.9694
 04  9  9 22 33 45.0050000  0  7G19G 3G 8G13G10G28G27
  -1569634.17648  -1303907.30144  23965277.4934   23965273.9894
     -1176.9494
  10876043.68447   8471550.96142  25304497.4154   25304495.6534
     -3578.3534
  -4731281.70749  -3679793.80146  22398705.4784   22398703.7944
        63.0674
  15486076.50049  12059263.32445  23179990.2354   23179988.8214
     -4012.7054
    979508.37947    767684.23843  24949616.3374   24949616.3064
     -1380.4084
  -5226305.42248  -4068385.96544  24045305.7674   24045304.1574
      1254.8704
   3026319.29749   2354921.45746  22269766.0714   22269764.0094
     -1124.0354
 04  9  9 22 34  0.0050000  0  7G19G 3G 8G13G10G28G27
  -1551846.52348  -1290046.78144  23968662.1494   23968659.1264
     -1185.8434
  10929823.90647   8513457.61742  25314730.9934   25314730.6454
     -3585.3484
  -4732177.22349  -3680491.58646  22398534.8374   22398533.1694
        59.7014
  15546356.13749  12106234.44545  23191461.2514   23191459.9154
     -4018.6424
   1000348.05547    783922.91443  24953582.5244   24953582.2204
     -1389.3124
  -5245066.91049  -4083005.27044  24041735.8994   24041734.2394
      1250.7664
   3043225.53149   2368095.14846  22272983.1184   22272981.1144
     -1127.0824
 04  9  9 22 34 15.0050000  0  7G19G 3G 8G13G10G28G27
  -1533926.01248  -1276082.72744  23972072.8534   23972069.1614
     -1194.7014
  10983708.26247   8555445.40242  25324984.7124   25324984.9624
     -3592.2904
  -4733022.67649  -3681150.36746  22398374.0714   22398371.8494
        56.3644
  15606724.06649  12153274.36345  23202948.8684   23202946.8884
     -4024.5294
   1021320.63347    800265.18842  24957573.2744   24957572.7744
     -1398.1724
  -5263767.35949  -4097577.01644  24038177.5634   24038175.8604
      1246.6974
   3060177.02049   2381304.10246  22276208.8764   22276206.7594
     -1130.0994
 04  9  9 22 34 30.0050000  0  7G19G 3G 8G13G10G28G27
  -1515871.78149  -1262014.48844  23975508.2674   23975504.1184
     -1203.6154
  11037697.19548   8597514.69142  25335260.1424   25335258.2514
     -3599.2624
  -4733817.11749  -3681769.40246  22398222.7284   22398220.9034
        52.9634
  15667180.77349  12200383.46545  23214453.4464   23214451.4814
     -4030.4474
   1042426.86347    816711.59843  24961590.0094   24961589.6144
     -1407.0824
  -5282405.92648  -4112100.53544  24034630.8134   24034629.0094
      1242.5714
   3077174.59049   2394548.96946  22279443.3374   22279441.1454
     -1133.1714
 04  9  9 22 34 45.0050000  0  7G19G 3G 8G13G10G28G27
  -1497684.34448  -1247842.44944  23978969.0094   23978965.4854
     -1212.4964
  11091789.93447   8639664.86742  25345552.8374   25345551.2514
     -3606.1834
  -4734561.18449  -3682349.19146  22398081.5564   22398079.1534
        49.6044
  15727725.66049  12247561.27345  23225974.6884   23225972.7044
     -4036.3264
   1063666.13748    833261.68842  24965631.3844   24965631.2164
     -1415.9524
  -5300982.91848  -4126576.08244  24031095.7594   24031093.9704
      1238.4664
   3094217.89849   2407829.47346  22282686.6034   22282684.2244
     -1136.2214
 04  9  9 22 35  0.0050000  0  7G19G 3G 8G13G10G28G27
  -1479363.91848  -1233566.77744  23982454.6884   23982452.0284
     -1221.3624
  11145985.98047   8681895.55542  25355865.6264   25355865.6884
     -3613.0704
  -4735254.98049  -3682889.80146  22397949.0634   22397947.3454
        46.2534
  15788357.98849  12294807.22745  23237512.7044   23237510.8104
     -4042.1554
   1085038.00048    849915.08642  24969698.5634   24969697.6574
     -1424.7914
  -5319498.61748  -4141003.86344  24027572.6884   24027569.8374
      1234.3804
   3111306.66449   2421145.40246  22285938.3064   22285936.5134
     -1139.2514
 04  9  9 22 35 15.0050000  0  7G19G 3G 8G13G10G28G27
  -1460909.50448  -1219186.71944  23985966.8294   23985963.6344
     -1230.2944
  11200285.94546   8724207.18442  25366197.6814   25366198.8254
     -3619.9984
  -4735897.71149  -3683390.62546  22397826.7984   22397825.0874
        42.8494
  15849078.49649  12342121.89545  23249067.3454   23249065.4314
     -4048.0344
   1106543.31347    866672.46143  24973791.3374   24973789.9934
     -1433.6874
  -5337951.97748  -4155383.07044  24024060.3374   24024057.7594
      1230.2244
   3128441.84049   2434497.48046  22289199.0324   22289197.2204
     -1142.3454
 04  9  9 22 35 30.0050000  0  7G19G 3G 8G13G10G28G27
  -1442320.44548  -1204701.71944  23989504.3294   23989500.7904
     -1239.2714
  11254690.16447   8766600.02742  25376551.3994   25376550.6184
     -3626.9484
  -4736488.55149  -3683851.01246  22397714.3534   22397712.6734
        39.3894
  15909887.80549  12389505.75045  23260639.1264   23260637.3414
     -4053.9544
   1128182.56647    883534.23042  24977908.1264   24977907.7674
     -1442.6174
  -5356342.36748  -4169713.22744  24020560.8764   24020558.2124
      1226.0264
   3145624.19949   2447886.33246  22292469.0794   22292466.9854
     -1145.4914
 04  9  9 22 35 45.0060000  0  7G19G 3G 8G13G10G28G27
  -1423594.35549  -1190109.95344  23993068.5924   23993063.9434
     -1248.4064
  11309203.01247   8809077.56642  25386924.6004   25386924.3894
     -3634.1904
  -4737026.26249  -3684269.99646  22397611.9674   22397610.0254
        35.8474
  15970790.71949  12436962.53545  23272228.1704   23272227.0254
     -4060.1944
   1149958.28147    900502.29743  24982052.4984   24982051.9864
     -1451.7144
  -5374669.66048  -4183994.19144  24017072.8114   24017071.5764
      1221.8204
   3162855.96549   2461313.68846  22295748.0064   22295745.7714
     -1148.7844
 04  9  9 22 36  0.0060000  0  7G19G 3G 8G13G10G28G27
  -1404736.81648  -1175415.75844  23996656.3264   23996653.5334
     -1257.1694
  11363813.94147   8851631.51642  25397317.1784   25397317.3614
     -3640.7294
  -4737513.73449  -3684649.84846  22397519.5924   22397517.5804
        32.4984
  16031775.74649  12484483.28145  23283833.7174   23283832.0964
     -4065.6684
   1171864.32847    917571.94142  24986220.9594   24986220.1434
     -1460.4034
  -5392934.46549  -4198226.48844  24013598.0454   24013596.1274
      1217.6544
   3180131.74249   2474775.33646  22299035.1464   22299033.2604
     -1151.7184
 04  9  9 22 36 15.0060000  0  7G19G 3G 8G13G10G28G27
  -1385743.82848  -1160616.01244  24000270.5534   24000268.0494
     -1266.1994
  11418528.92247   8894266.50442  25407729.5144   25407728.0104
     -3647.6654
  -4737948.46549  -3684988.57846  22397437.0294   22397435.1824
        28.9824
  16092849.40649  12532073.11345  23295455.6154   23295453.9164
     -4071.5774
   1193904.69547    934746.25042  24990414.9364   24990414.6934
     -1469.3584
  -5411135.22349  -4212408.86744  24010134.3344   24010132.8964
      1213.3844
   3197455.60549   2488274.44946  22302332.2954   22302329.7254
     -1154.9244
 04  9  9 22 36 30.0060000  0  7G19G 3G 8G13G10G28G27
  -1366612.94948  -1145708.83244  24003910.6704   24003906.7754
     -1275.3924
  11473350.09847   8936984.27342  25418162.0214   25418160.9864
     -3654.7454
  -4738327.91849  -3685284.24646  22397364.3264   22397362.7324
        25.2974
  16154013.85549  12579733.70345  23307094.9514   23307093.4474
     -4077.6304
   1216081.74647    952027.07843  24994635.2484   24994635.2094
     -1478.4704
  -5429269.44149  -4226539.41444  24006683.4364   24006681.4674
      1208.9484
   3214829.94949   2501812.89546  22305638.1784   22305636.0924
     -1158.2904
 04  9  9 22 36 45.0060000  0  7G19G 3G 8G13G10G28G27
  -1347346.93448  -1130696.34044  24007576.8894   24007572.8384
     -1284.4014
  11528274.41846   8979782.42242  25428611.9984   25428612.4674
     -3661.6214
  -4738654.76649  -3685538.93046  22397301.9594   22397300.0414
        21.7904
  16215266.25849  12627462.83245  23318750.4594   23318749.1074
     -4083.4934
   1238392.70347    969412.24242  24998880.6544   24998880.5144
     -1487.3974
  -5447339.77748  -4240620.14544  24003244.4044   24003242.4164
      1204.6894
   3232252.19149   2515388.66446  22308953.6704   22308951.5254
     -1161.4834
 04  9  9 22 37  0.0060000  0  7G19G 3G 8G13G10G28G27
  -1327945.62548  -1115578.43444  24011268.7874   24011265.7174
     -1293.4214
  11583301.69547   9022660.79342  25439083.7174   25439084.2364
     -3668.4854
  -4738928.88349  -3685752.51646  22397249.7874   22397248.2564
        18.2744
  16276606.36749  12675260.28545  23330423.3654   23330421.8534
     -4089.3414
   1260837.63347    986901.78142  25003152.1234   25003152.0294
     -1496.3294
  -5465346.13748  -4254651.04744  23999818.1784   23999816.0414
      1200.4244
   3249722.34849   2529001.78546  22312277.8734   22312275.9514
     -1164.6774
 04  9  9 22 37 15.0060000  0  7G19G 3G 8G13G10G28G27
  -1308408.19148  -1100354.45344  24014987.0844   24014983.1584
     -1302.4964
  11638432.50446   9065619.80542  25449575.2874   25449575.2014
     -3675.3874
  -4739149.43049  -3685924.35946  22397208.3114   22397206.3854
        14.7034
  16338034.87149  12723126.62544  23342113.1544   23342110.9204
     -4095.2344
   1283417.11348   1004496.17242  25007449.0374   25007448.3654
     -1505.2994
  -5483287.46548  -4268631.27044  23996404.3894   23996402.1504
      1196.0894
   3267241.23449   2542652.86746  22315612.0374   22315609.6114
     -1167.9264
 04  9  9 22 37 30.0060000  0  7G19G 3G 8G13G10G28G27
  -1288732.62948  -1085022.82444  24018730.9514   24018727.9514
     -1311.7044
  11693668.40246   9108660.74642  25460086.8504   25460086.5104
     -3682.3934
  -4739314.16049  -3686052.71146  22397176.4434   22397174.8534
        10.9824
  16399553.34848  12771063.07845  23353819.5764   23353817.8654
     -4101.2324
   1306132.91448   1022196.82443  25011771.7564   25011771.1864
     -1514.3874
  -5501161.86349  -4282559.34844  23993002.8034   23993000.6584
      1191.6274
   3284810.99249   2556343.59046  22318955.0214   22318953.3224
     -1171.3174
 04  9  9 22 37 45.0060000  0  7G19G 3G 8G13G10G28G27
  -1268920.56248  -1069584.84444  24022500.9434   24022498.4944
     -1320.8044
  11749007.47747   9151782.09442  25470616.8344   25470616.9824
     -3689.2724
  -4739424.72349  -3686138.86346  22397155.7644   22397153.8734
         7.3714
  16461160.01649  12819068.25845  23365542.8424   23365541.5724
     -4107.1114
   1328983.35947   1040002.37143  25016119.7254   25016119.3654
     -1523.3634
  -5518970.84848  -4296436.45344  23989613.4674   23989611.6934
      1187.2664
   3302430.03149   2570072.71546  22322307.8344   22322305.7834
     -1174.6034
 04  9  9 22 38  0.0060000  0  7G19G 3G 8G13G10G28G27
  -1248971.88348  -1054040.40644  24026297.2954   24026293.6894
     -1329.9124
  11804449.73847   9194983.80142  25481167.6544   25481167.7174
     -3696.1514
  -4739480.91849  -3686182.64146  22397145.0534   22397143.1504
         3.7464
  16522854.89849  12867142.16444  23377282.7324   23377281.2754
     -4112.9924
   1351968.62547   1057912.94542  25020493.7564   25020493.4364
     -1532.3514
  -5536714.10949  -4310262.34044  23986237.0844   23986235.3964
      1182.8844
   3320098.62149   2583840.44146  22325670.2954   22325668.0414
     -1177.9064
 04  9  9 22 38 15.0060000  0  7G19G 3G 8G13G10G28G27
  -1228886.89148  -1038389.76644  24030119.2174   24030115.3464
     -1338.9994
  11859994.24646   9238265.21542  25491737.4124   25491736.9864
     -3702.9674
  -4739482.96149  -3686184.22746  22397144.7564   22397142.8694
         0.1364
  16584637.29748  12915284.25044  23389039.8264   23389038.5374
     -4118.8274
   1375087.98447   1075928.04342  25024893.3424   25024892.7484
     -1541.2914
  -5554392.00448  -4324037.29744  23982872.6234   23982871.2444
      1178.5264
   3337816.38349   2597646.49646  22329041.7954   22329039.6544
     -1181.1844
 04  9  9 22 38 30.0060000  0  7G19G 3G 8G13G10G28G27
  -1208664.00448  -1022631.65644  24033967.6314   24033963.9244
     -1348.1924
  11915642.42647   9281627.43442  25502326.9434   25502326.7834
     -3709.8794
  -4739429.13349  -3686142.27746  22397154.5064   22397152.9984
        -3.5894
  16646508.47348  12963495.51644  23400813.3894   23400811.2134
     -4124.7454
   1398342.99647   1094048.82442  25029318.5144   25029317.7794
     -1550.3344
  -5572002.74648  -4337759.91844  23979522.0844   23979520.0764
      1174.0494
   3355585.03149   2611492.20346  22332422.9984   22332421.0534
     -1184.5774
 04  9  9 22 38 45.0060000  0  7G19G 3G 8G13G10G28G27
  -1188303.79348  -1006766.54345  24037842.1934   24037838.5144
     -1357.3474
  11971393.30947   9325069.65242  25512936.3654   25512935.4944
     -3716.7264
  -4739320.21949  -3686057.40246  22397175.7174   22397173.3934
        -7.2614
  16708467.52748  13011775.28145  23412604.5684   23412602.1004
     -4130.6044
   1421732.93848   1112274.73042  25033769.7174   25033768.6894
     -1559.3294
  -5589546.94148  -4351430.69944  23976183.5764   23976181.5184
      1169.6134
   3373403.95349   2625377.07046  22335813.7404   22335812.0104
     -1187.9284
 04  9  9 22 39  0.0060000  0  7G19G 3G 8G13G10G28G27
  -1167806.57448   -990794.67644  24041742.7794   24041739.2094
     -1366.4814
  12027246.31647   9368591.43042  25523565.0614   25523564.0254
     -3723.5344
  -4739156.43449  -3685929.77346  22397206.5844   22397204.2174
       -10.9194
  16770513.93448  13060123.09845  23424411.2564   23424409.3224
     -4136.4274
   1445257.23447   1130605.37542  25038245.9284   25038245.1934
     -1568.2864
  -5607024.87149  -4365049.82044  23972857.2014   23972855.2284
      1165.1954
   3391272.94949   2639300.96946  22339214.0534   22339212.0964
     -1191.2664
 04  9  9 22 39 15.0060000  0  7G19G 3G 8G13G10G28G27
  -1147171.46148   -974715.35544  24045669.4364   24045665.5144
     -1375.6744
  12083201.84447   9412193.11742  25534212.3184   25534211.9944
     -3730.3684
  -4738936.66849  -3685758.52046  22397248.7484   22397246.8894
       -14.6514
  16832648.35548  13108539.50445  23436235.3114   23436233.2834
     -4142.2954
   1468916.78947   1149041.36342  25042748.5294   25042747.9594
     -1577.3044
  -5624435.60549  -4378616.61744  23969543.9594   23969542.1114
      1160.7164
   3409192.82049   2653264.49646  22342624.3424   22342622.3184
     -1194.6584
 04  9  9 22 39 30.0060000  0  7G19G 3G 8G13G10G28G27
  -1126398.03148   -958528.24645  24049622.2404   24049619.1974
     -1384.8954
  12139260.22347   9455874.94542  25544880.2644   25544880.0254
     -3737.2254
  -4738660.59849  -3685543.38346  22397301.1864   22397299.2364
       -18.4054
  16894871.05148  13157024.69145  23448075.9284   23448074.1704
     -4148.1804
   1492711.88347   1167582.98443  25047276.2324   25047275.8034
     -1586.3404
  -5641778.63348  -4392130.64544  23966244.0294   23966242.1234
      1156.2024
   3427164.16049   2667268.14146  22346043.9044   22346042.0184
     -1198.0894
 04  9  9 22 39 45.0060000  0  7G19G 3G 8G13G10G28G27
  -1105486.67248   -942233.68445  24053601.8264   24053598.4824
     -1394.0914
  12195420.64547   9499636.28542  25555567.2404   25555567.4784
     -3744.0284
  -4738328.34449  -3685284.48046  22397364.4204   22397362.3694
       -22.1504
  16957181.20348  13205578.02744  23459932.8964   23459931.2834
     -4154.0104
   1516641.98847   1186229.84843  25051829.5214   25051829.6464
     -1595.3404
  -5659054.30948  -4405592.16444  23962956.5764   23962954.9044
      1151.7124
   3445186.57049   2681311.58646  22349473.5534   22349471.5644
     -1201.4944
 04  9  9 22 40  0.0060000  0  7G19G 3G 8G13G10G28G27
  -1084439.57448   -925833.33645  24057606.7874   24057603.4324
     -1403.1404
  12251680.58647   9543475.18842  25566272.6864   25566272.6504
     -3750.6634
  -4737942.11749  -3684983.51646  22397437.8734   22397435.7684
       -25.7484
  17019576.64849  13254197.82044  23471806.3504   23471804.7994
     -4159.6964
   1540704.79347   1204980.07843  25056408.7014   25056408.3814
     -1604.1874
  -5676264.64548  -4419002.79344  23959681.4824   23959679.6974
      1147.3564
   3463257.99249   2695393.20746  22352912.4904   22352910.1974
     -1204.7614
 04  9  9 22 40 15.0060000  0  7G19G 3G 8G13G10G28G27
  -1063252.86348   -909324.19544  24061638.2324   24061634.4824
     -1412.4474
  12308043.72347   9587394.49642  25576998.7324   25576997.8264
     -3757.5424
  -4737497.97749  -3684637.42646  22397522.2564   22397520.4204
       -29.6094
  17082060.92648  13302886.83644  23483696.3344   23483695.0764
     -4165.6184
   1564903.96548   1223836.56343  25061014.3344   25061014.2874
     -1613.2784
  -5693405.82849  -4432359.52744  23956419.3344   23956417.9204
      1142.7464
   3481382.31649   2709516.05946  22356361.8504   22356359.3894
     -1208.2884
 04  9  9 22 40 30.0060000  0  7G19G 3G 8G13G10G28G27
  -1041930.23049   -892709.14544  24065696.2094   24065691.9754
     -1421.5094
  12364506.12947   9631391.14142  25587743.5764   25587742.9044
     -3764.1604
  -4736999.64149  -3684249.10246  22397616.9754   22397615.2714
       -33.2224
  17144630.00848  13351641.93844  23495603.0924   23495601.3964
     -4171.2724
   1589235.81647   1242796.43842  25065644.1234   25065643.6074
     -1622.1234
  -5710481.22748  -4445665.00444  23953169.9204   23953167.9864
      1138.3604
   3499555.87549   2723677.27346  22359819.7954   22359817.6074
     -1211.5714
 04  9  9 22 40 45.0060000  0  7G19G 3G 8G13G10G28G27
  -1020469.35248   -875986.39544  24069780.0614   24069776.2994
     -1430.7254
  12421069.72747   9675466.69142  25598506.7794   25598506.0104
     -3770.9074
  -4736444.82049  -3683816.75846  22397722.7714   22397720.9204
       -36.9884
  17207285.98848  13400464.73445  23507526.4434   23507524.3074
     -4177.0654
   1613702.39847   1261861.31642  25070300.1074   25070298.5104
     -1631.1054
  -5727488.70348  -4458917.56244  23949933.4904   23949931.1934
      1133.8324
   3517781.10249   2737878.75046  22363288.0374   22363285.7794
     -1215.0154
 04  9  9 22 41  0.0060000  0  7G19G 3G 8G13G10G28G27
   -998868.34048   -859154.41844  24073890.0454   24073887.2364
     -1440.0674
  12477736.07047   9719622.26242  25609289.1004   25609289.4714
     -3777.7564
  -4735831.18049  -3683338.59446  22397839.6624   22397837.5104
       -40.9094
  17270030.72349  13449356.71545  23519466.7094   23519464.7054
     -4182.9824
   1638305.54747   1281032.59842  25074980.8424   25074980.3424
     -1640.2104
  -5744426.07448  -4472115.48044  23946710.4904   23946708.0494
      1129.1584
   3536060.04749   2752122.08646  22366766.3814   22366764.2324
     -1218.5964
 04  9  9 22 41 15.0060000  0  7G19G 3G 8G13G10G28G27
   -977130.09049   -842215.50444  24078026.9124   24078023.7094
     -1449.2174
  12534501.95747   9763855.39542  25620091.7954   25620091.9244
     -3784.3924
  -4735161.64549  -3682816.86746  22397966.8184   22397965.2214
       -44.6364
  17332860.82849  13498315.21145  23531422.7874   23531421.4434
     -4188.6744
   1663042.30547   1300307.98842  25079689.0614   25079688.1434
     -1649.1174
  -5761296.24249  -4485261.02744  23943500.0454   23943497.8264
      1124.6784
   3554389.80149   2766405.01646  22370254.2644   22370252.2644
     -1221.9844
 04  9  9 22 41 30.0060000  0  7G19G 3G 8G13G10G28G27
   -955253.85548   -825169.08644  24082189.4984   24082186.6624
     -1458.4164
  12591367.83247   9808166.40242  25630913.6864   25630914.0144
     -3791.0584
  -4734435.59449  -3682251.10547  22398105.0144   22398103.1744
       -48.4034
  17395776.75448  13547340.59044  23543395.0534   23543393.4284
     -4194.3954
   1687913.15247   1319687.87942  25084421.9514   25084421.3034
     -1658.0574
  -5778098.43049  -4498353.62944  23940303.1234   23940300.6704
      1120.1464
   3572771.15249   2780728.14546  22373752.2714   22373750.0884
     -1225.4234
 04  9  9 22 41 45.0060000  0  7G19G 3G 8G13G10G28G27
   -933239.45348   -808014.99644  24086378.7794   24086375.3384
     -1467.6274
  12648333.51647   9852555.26242  25641753.9284   25641753.0414
     -3797.7124
  -4733652.50449  -3681640.90246  22398253.8504   22398252.0294
       -52.2064
  17458778.55548  13596432.87144  23555383.4754   23555381.7444
     -4200.1204
   1712918.16848   1339172.28542  25089179.8504   25089179.7684
     -1667.0014
  -5794832.41448  -4511393.08644  23937118.9434   23937116.4044
      1115.5994
   3591204.33649   2795091.66846  22377259.7174   22377257.7564
     -1228.8794
 04  9  9 22 42  0.0060000  0  7G19G 3G 8G13G10G28G27
   -911086.91848   -790753.28144  24090594.0684   24090590.6934
     -1476.8364
  12705398.70347   9897021.62142  25652612.4594   25652612.1434
     -3804.3464
  -4732812.59849  -3680986.41446  22398413.6154   22398412.2994
       -55.9944
  17521865.98048  13645591.86344  23567388.8034   23567386.7644
     -4205.8284
   1738057.16047   1358761.10242  25093963.8344   25093963.8424
     -1675.9334
  -5811498.22348  -4524379.39844  23933947.0924   23933945.0724
      1111.0544
   3609689.37149   2809495.59446  22380777.3964   22380775.3114
     -1232.3364
 04  9  9 22 42 15.0060000  0  7G19G 3G 8G13G10G28G27
   -888796.75048   -773384.31644  24094836.0374   24094832.5214
     -1486.0114
  12762562.70746   9941564.93842  25663490.2174   25663489.7994
     -3810.9344
  -4731916.26649  -3680287.96546  22398584.2644   22398582.7174
       -59.7554
  17585038.27348  13694816.99644  23579409.9824   23579408.2214
     -4211.4864
   1763329.52747   1378453.86342  25098772.3894   25098772.6074
     -1684.8244
  -5828096.07848  -4537312.77344  23930788.7874   23930787.0764
      1106.5244
   3628225.92249   2823939.66046  22384304.6544   22384302.8894
     -1235.7704
 04  9  9 22 42 30.0060000  0  7G19G 3G 8G13G10G28G27
   -866368.25849   -755907.56244  24099104.4364   24099100.7094
     -1495.2334
  12819825.80947   9986185.57442  25674389.0374   25674387.5144
     -3817.5404
  -4730962.49249  -3679544.76246  22398766.1154   22398764.4514
       -63.5854
  17648295.93448  13744108.66045  23591448.0844   23591446.4514
     -4217.1774
   1788735.89847   1398251.03542  25103607.8814   25103606.6504
     -1693.7584
  -5844625.20348  -4550192.55544  23927642.9124   23927641.3224
      1101.9424
   3646814.70749   2838424.43446  22387842.3654   22387840.2604
     -1239.2524
 04  9  9 22 42 45.0060000  0  7G19G 3G 8G13G10G28G27
   -843801.09049   -738322.75444  24103398.8814   24103395.3184
     -1504.4784
  12877188.07447  10030883.44142  25685303.3424   25685303.1544
     -3824.1514
  -4729950.91449  -3678756.50446  22398958.4364   22398956.4634
       -67.4394
  17711638.94148  13793466.81644  23603501.4904   23603500.0614
     -4222.8674
   1814276.46947   1418152.78543  25108467.5534   25108467.1434
     -1702.7054
  -5861085.26648  -4563018.55544  23924510.6464   23924508.9554
      1097.3384
   3665456.12149   2852950.21146  22391389.4984   22391387.5454
     -1242.7614
 04  9  9 22 43  0.0060000  0  7G19G 3G 8G13G10G28G27
   -821095.73048   -720630.25044  24107718.8964   24107715.7444
     -1513.6914
  12934648.69946  10075657.96942  25696237.3114   25696238.1394
     -3830.7084
  -4728881.89849  -3677923.49247  22399161.6544   22399160.0374
       -71.2684
  17775066.60948  13842890.93444  23615571.2484   23615570.0644
     -4228.5114
   1839950.59047   1438158.59842  25113353.0684   25113353.1894
     -1711.6084
  -5877476.57049  -4575790.97344  23921391.3504   23921389.0764
      1092.7544
   3684149.77349   2867516.70346  22394946.8114   22394944.4784
     -1246.2434
 04  9  9 22 43 15.0060000  0  7G19G 3G 8G13G10G28G27
   -798252.64848   -702830.41844  24112066.1154   24112062.8894
     -1522.8724
  12992207.05946  10120508.57842  25707189.6544   25707191.1074
     -3837.2244
  -4727755.97349  -3677046.13346  22399376.1154   22399374.2134
       -75.0624
  17838578.29348  13892380.51644  23627657.0764   23627655.4754
     -4234.1124
   1865757.67647   1458267.99242  25118264.2174   25118264.4474
     -1720.4724
  -5893799.53148  -4588510.14144  23918285.5214   23918282.7324
      1088.1974
   3702895.35549   2882123.64846  22398514.0064   22398511.9944
     -1249.7054
 04  9  9 22 43 30.0060000  0  7G19G 3G 8G13G10G28G27
   -775271.26648   -684922.85544  24116439.3344   24116436.0334
     -1532.0924
  13049863.28146  10165435.50442  25718161.6784   25718161.7684
     -3843.7484
  -4726572.43049  -3676123.89146  22399601.2644   22399599.2914
       -78.9034
  17902174.18048  13941935.72744  23639759.5374   23639757.2954
     -4239.7264
   1891698.06647   1478481.27742  25123200.9364   25123200.4674
     -1729.3594
  -5910053.64149  -4601175.67644  23915193.1704   23915190.0214
      1083.6074
   3721693.34849   2896771.43046  22402091.1314   22402089.0254
     -1253.1994
 04  9  9 22 43 45.0060000  0  7G19G 3G 8G13G10G28G27
   -752151.73048   -666907.64144  24120838.7404   24120835.6824
     -1541.3024
  13107616.86746  10210438.30542  25729152.8114   25729151.7994
     -3850.2394
  -4725331.41049  -3675156.84446  22399837.3424   22399835.8464
       -82.7354
  17965854.03148  13991556.37144  23651876.9594   23651875.8224
     -4245.3234
   1917771.47347   1498798.21142  25128162.4044   25128161.0804
     -1738.2274
  -5926238.83248  -4613787.49644  23912112.4754   23912110.2094
      1079.0134
   3740543.74649   2911460.06346  22405678.2174   22405676.0574
     -1256.6934
 04  9  9 22 44  0.0060000  0  7G19G 3G 8G13G10G28G27
   -728893.43048   -648784.27044  24125265.0454   24125261.7174
     -1550.5534
  13165468.16447  10255517.21142  25740161.4674   25740160.9984
     -3856.7534
  -4724032.23449  -3674144.49246  22400084.7324   22400082.9714
       -86.6124
  18029618.19149  14041242.69944  23664011.3184   23664009.8344
     -4250.9444
   1943978.38747   1519219.18842  25133149.0374   25133149.2954
     -1747.1284
  -5942354.58248  -4626345.19944  23909045.7254   23909043.9164
      1074.3834
   3759447.32449   2926190.12546  22409275.3654   22409273.2644
     -1260.2394
 04  9  9 22 44 15.0060000  0  7G19G 3G 8G13G10G28G27
   -705495.78948   -630552.33644  24129717.2324   24129713.7684
     -1559.8434
  13223417.51247  10300672.53142  25751189.0924   25751187.9474
     -3863.2904
  -4722674.12549  -3673086.21147  22400342.9754   22400341.4284
       -90.5414
  18093467.05549  14090995.02344  23676161.4984   23676159.9554
     -4256.5914
   1970319.41447   1539744.65243  25138162.0764   25138162.2324
     -1756.0684
  -5958400.00048  -4638848.08244  23905992.4284   23905991.1974
      1069.6954
   3778404.74249   2940962.14546  22412883.1624   22412880.6504
     -1263.8284
 04  9  9 22 44 30.0060000  0  7G19G 3G 8G13G10G28G27
   -681960.60948   -612213.23444  24134196.0614   24134191.8534
     -1569.0124
  13281462.83646  10345902.63742  25762234.2174   25762232.6864
     -3869.6884
  -4721258.57049  -3671983.16847  22400612.2254   22400610.4634
       -94.3704
  18157398.61749  14140811.78944  23688327.2014   23688325.9554
     -4262.1044
   1996792.58647   1560373.08642  25143199.6074   25143199.2254
     -1764.8784
  -5974376.67248  -4651297.39544  23902952.4594   23902950.5254
      1065.1114
   3797414.29749   2955774.77746  22416500.7254   22416498.0294
     -1267.3044
 04  9  9 22 44 45.0060000  0  7G19G 3G 8G13G10G28G27
   -658286.06648   -593765.52344  24138700.9284   24138697.2954
     -1578.3034
  13339605.62547  10391208.67642  25773298.4434   25773297.1504
     -3876.1864
  -4719783.74649  -3670833.94546  22400892.3814   22400890.8224
       -98.3224
  18221414.37949  14190694.18044  23700508.9514   23700507.0764
     -4267.7174
   2023399.56647   1581105.79342  25148262.9594   25148262.2914
     -1773.7994
  -5990282.87549  -4663691.80944  23899925.2254   23899923.0644
      1060.4144
   3816477.90249   2970629.53946  22420127.8654   22420126.1074
     -1270.9074
 04  9  9 22 45  0.0060000  0  7G19G 3G 8G13G10G28G27
   -634472.44148   -575209.46944  24143232.4674   24143229.4244
     -1587.5754
  13397845.23446  10436590.18042  25784380.4754   25784380.5414
     -3882.6414
  -4718250.03949  -3669638.84046  22401184.9754   22401182.8344
      -102.2474
  18285513.80149  14240641.75844  23712706.3034   23712704.5924
     -4273.2954
   2050139.83647   1601942.34042  25153351.4824   25153350.8534
     -1782.6854
  -6006118.79348  -4676031.48444  23896911.6004   23896909.6354
      1055.7284
   3835595.28949   2985526.20746  22423766.1074   22423764.1314
     -1274.4924
 04  9  9 22 45 15.0060000  0  7G19G 3G 8G13G10G28G27
   -610519.55948   -556544.85944  24147790.4904   24147787.7754
     -1596.8594
  13456181.79745  10482047.19942  25795482.0534   25795482.1784
     -3889.1044
  -4716657.01249  -3668397.50846  22401487.7714   22401486.3654
      -106.2024
  18349696.92248  14290654.52744  23724920.2874   23724918.7714
     -4278.8754
   2077013.47347   1622882.83243  25158465.1784   25158465.0574
     -1791.5764
  -6021884.16448  -4688316.16044  23893911.3424   23893909.0684
      1051.0254
   3854766.84449   3000465.07846  22427414.3574   22427412.0724
     -1278.1044
 04  9  9 22 45 30.0060000  0  7G19G 3G 8G13G10G28G27
   -586426.52348   -537771.05544  24152375.2094   24152371.6074
     -1606.2024
  13514615.55147  10527580.00442  25806602.1234   25806601.8344
     -3895.5844
  -4715003.81249  -3667109.28546  22401802.5064   22401800.9474
      -110.2134
  18413964.33649  14340733.00044  23737150.1624   23737148.2254
     -4284.4944
   2104021.26247   1643927.86343  25163604.7714   25163604.4784
     -1800.5194
  -6037578.06248  -4700545.15244  23890925.4364   23890923.1114
      1046.2604
   3873993.34049   3015446.77746  22431072.5614   22431070.5844
     -1281.7664
 04  9  9 22 45 45.0060000  0  7G19G 3G 8G13G10G28G27
   -562194.70348   -518889.11744  24156986.2254   24156982.8654
     -1615.4554
  13573145.07046  10573187.41442  25817738.8654   25817740.4554
     -3901.9684
  -4713291.57449  -3665775.07046  22402128.2174   22402126.3384
      -114.1494
  18478314.48848  14390875.94544  23749395.5374   23749393.8224
     -4290.0104
   2131161.66048   1665076.21542  25168769.3344   25168768.6274
     -1809.3604
  -6053201.69949  -4712719.37944  23887952.7324   23887950.8114
      1041.5764
   3893273.59849   3030470.34846  22434742.0844   22434739.8034
     -1285.3514
 04  9  9 22 46  0.0060000  0  7G19G 3G 8G13G10G28G27
   -537821.85548   -499897.30544  24161624.2714   24161620.9754
     -1624.8574
  13631772.20346  10618870.90642  25828895.0844   25828896.6314
     -3908.4764
  -4711518.23449  -3664393.23446  22402465.8504   22402464.0144
      -118.2234
  18542749.39848  14441084.93844  23761657.1394   23761655.5144
     -4295.6614
   2158436.83247   1686329.59842  25173958.9284   25173959.1034
     -1818.3454
  -6068752.74249  -4724837.05544  23884993.3114   23884991.3464
      1036.7364
   3912609.98849   3045537.66446  22438421.5844   22438419.5254
     -1289.0934
 04  9  9 22 46 15.0060000  0  7G19G 3G 8G13G10G28G27
   -513309.73448   -480796.93444  24166288.2564   24166285.8224
     -1634.1414
  13690494.96547  10664628.84042  25840070.4984   25840070.8854
     -3914.8514
  -4709685.03149  -3662964.75046  22402814.7484   22402813.0844
      -122.2144
  18607267.05948  14491358.40244  23773934.0534   23773932.8734
     -4301.1774
   2185844.93447   1707686.55542  25179174.6704   25179174.9554
     -1827.2074
  -6084232.77748  -4736899.38744  23882047.2644   23882045.3934
      1032.0024
   3932000.96549   3060647.51646  22442111.3814   22442109.4904
     -1292.7324
 04  9  9 22 46 30.0060000  0  7G19G 3G 8G13G10G28G27
   -488656.61748   -461586.70344  24170980.1704   24170976.0884
     -1643.5414
  13749314.83647  10710462.46542  25851263.5764   25851263.5884
     -3921.3254
  -4707790.07049  -3661488.15246  22403175.2794   22403173.2874
      -126.3314
  18671868.93049  14541697.48044  23786227.9284   23786226.3504
     -4306.7914
   2213387.56647   1729148.32042  25184416.5214   25184416.1194
     -1836.1764
  -6099640.09448  -4748905.05544  23879114.9674   23879113.0684
      1027.1544
   3951448.20349   3075801.21546  22445812.2404   22445810.0964
     -1296.4834
 04  9  9 22 46 45.0060000  0  7G19G 3G 8G13G10G28G27
   -463862.91448   -442266.93444  24175698.0144   24175694.3264
     -1652.9144
  13808231.03546  10756371.18042  25862475.1074   25862474.8694
     -3927.7474
  -4705833.90649  -3659963.85946  22403547.5454   22403545.5844
      -130.4114
  18736554.49248  14592101.78144  23798536.2714   23798535.3574
     -4312.3714
   2241064.07047   1750714.44142  25189683.0374   25189682.9944
     -1845.1004
  -6114974.95749  -4760854.27744  23876197.1074   23876194.2284
      1022.3244
   3970951.37549   3090998.49246  22449523.3504   22449521.2094
     -1300.2114
 04  9  9 22 47  0.0060000  0  7G19G 3G 8G13G10G28G27
   -438929.79748   -422838.53944  24180442.6544   24180439.5414
     -1662.2084
  13867242.12547  10802353.83642  25873704.6784   25873704.4204
     -3934.0734
  -4703817.59049  -3658392.69546  22403931.4754   22403929.5964
      -134.4214
  18801322.33249  14642570.18444  23810861.7874   23810860.3814
     -4317.8564
   2268873.25847   1772383.92242  25194975.1934   25194974.8614
     -1853.9464
  -6130238.48849  -4772747.91844  23873292.4434   23873289.9324
      1017.5694
   3990509.59449   3106238.66446  22453245.3264   22453243.4554
     -1303.8814
 04  9  9 22 47 15.0060000  0  7G19G 3G 8G13G10G28G27
   -413855.59448   -403300.18444  24185214.3034   24185210.7404
     -1671.6144
  13926349.59047  10848411.56642  25884952.2014   25884952.2364
     -3940.4984
  -4701739.24649  -3656773.20746  22404326.5064   22404325.0024
      -138.5564
  18866173.82448  14693103.80144  23823202.6624   23823200.6544
     -4323.4334
   2296816.67647   1794158.00843  25200292.0454   25200292.2564
     -1862.8954
  -6145428.80549  -4784584.50044  23870402.0844   23870399.4904
      1012.6884
   4010124.51649   3121523.02346  22456977.5294   22456975.9784
     -1307.6614
 04  9  9 22 47 30.0060000  0  7G19G 3G 8G13G10G28G27
   -388638.93748   -383650.84044  24190013.2954   24190009.3384
     -1681.1104
  13985554.31646  10894545.10242  25896219.0454   25896218.5254
     -3946.9824
  -4699597.43049  -3655104.24646  22404734.2644   22404732.3114
      -142.7884
  18931109.97348  14743703.36344  23835559.7404   23835558.1034
     -4329.0774
   2324895.44147   1816037.53942  25205635.2954   25205634.6234
     -1871.9184
  -6160544.57049  -4796363.00044  23867525.4824   23867523.1114
      1007.7184
   4029797.59449   3136852.68846  22460721.5294   22460719.4324
     -1311.5394
 04  9  9 22 47 45.0060000  0  7G19G 3G 8G13G10G28G27
   -363282.46148   -363892.54344  24194838.1074   24194834.0334
     -1690.4324
  14044853.53946  10940752.27042  25907502.7564   25907502.7714
     -3953.2824
  -4697394.64149  -3653387.77346  22405153.5454   22405151.5254
      -146.8534
  18996128.00048  14794366.74244  23847932.2014   23847930.7524
     -4334.5354
   2353106.82047   1838020.44942  25211003.6314   25211003.3654
     -1880.7594
  -6175588.20349  -4808085.28944  23864662.7484   23864660.6934
      1002.9094
   4049526.37549   3152225.77046  22464475.8034   22464473.7954
     -1315.2524
 04  9  9 22 48  0.0060000  0  7G19G 3G 8G13G10G28G27
   -337786.64148   -344025.68045  24199689.5534   24199686.0414
     -1699.7214
  14104246.23046  10987032.25842  25918805.1544   25918804.7054
     -3959.5134
  -4695131.28549  -3651624.12546  22405584.1074   22405582.0294
      -150.8904
  19061227.21948  14845093.36744  23860319.3734   23860318.4784
     -4339.9484
   2381450.09047   1860106.08642  25216397.1934   25216396.9394
     -1889.5514
  -6190560.28549  -4819751.80544  23861813.4904   23861811.7404
       998.1394
   4069310.29349   3167641.82046  22468240.3504   22468238.4124
     -1318.9284
 04  9  9 22 48 15.0060000  0  7G19G 3G 8G13G10G28G27
   -312150.39148   -324049.36344  24204567.8344   24204565.0574
     -1709.0834
  14163733.46147  11033385.89842  25930125.0214   25930124.4434
     -3965.8154
  -4692806.00049  -3649812.20746  22406026.3734   22406024.8114
      -155.0194
  19126408.66048  14895884.06644  23872723.5214   23872722.2834
     -4345.4294
   2409926.43047   1882295.42243  25221816.6234   25221816.4004
     -1898.4234
  -6205459.29748  -4831361.40244  23858977.7714   23858976.2834
       993.2674
   4089150.75449   3183101.91446  22472015.9204   22472013.9594
     -1322.6974
 04  9  9 22 48 30.0060000  0  7G19G 3G 8G13G10G28G27
   -286371.64848   -303962.03544  24209473.9434   24209470.5214
     -1718.5834
  14223317.04746  11079814.66042  25941462.7874   25941463.2914
     -3972.2394
  -4690416.72749  -3647950.43446  22406481.2644   22406479.1114
      -159.2854
  19191674.12148  14946740.24244  23885143.5064   23885141.5614
     -4351.0314
   2438537.65647   1904589.89543  25227260.5764   25227260.7324
     -1907.4154
  -6220283.26649  -4842912.51644  23856157.6624   23856155.5804
       988.2654
   4109049.98849   3198607.81646  22475802.8734   22475800.6784
     -1326.6164
 04  9  9 22 48 45.0060000  0  6G19G 8G13G10G28G27
   -260451.88748   -283764.79744  24214405.8734   24214402.2754
     -1727.9844
  -4687964.75449  -3646039.78546  22406947.7874   22406945.8384
      -163.4654
  19257021.95748  14997660.59844  23897578.9124   23897577.4474
     -4356.5224
   2467282.23447   1926988.25042  25232731.3034   25232730.9084
     -1916.3054
  -6235033.44948  -4854406.14544  23853350.5614   23853347.8774
       983.3464
   4129006.57449   3214158.40247  22479600.2484   22479598.1194
     -1330.4394
 04  9  9 22 49  0.0060000  0  6G19G 8G13G10G28G27
   -234390.92249   -263457.56644  24219365.3114   24219361.3734
     -1737.3984
  -4685449.94549  -3644080.19947  22407426.3964   22407424.7754
      -167.6544
  19322451.93048  15048644.95744  23910029.5614   23910028.9394
     -4361.9984
   2496160.13747   1949490.49243  25238226.2714   25238226.7444
     -1925.1934
  -6249709.77748  -4865842.22744  23850557.5064   23850555.4244
       978.4224
   4149020.66049   3229753.79346  22483409.0294   22483407.0414
     -1334.2724
 04  9  9 22 49 15.0060000  0  6G19G 8G13G10G28G27
   -208188.47348   -243040.07445  24224351.6154   24224348.1394
     -1746.8304
  -4682871.69149  -3642071.16446  22407916.6934   22407915.3654
      -171.8844
  19387964.32048  15099693.54344  23922496.9514   23922494.6354
     -4367.4934
   2525171.58647   1972096.82043  25243746.5764   25243746.8614
     -1934.0974
  -6264311.65248  -4877220.26644  23847778.8814   23847777.0064
       973.4584
   4169092.84448   3245394.46146  22487228.3894   22487226.4514
     -1338.1464
 04  9  9 22 49 30.0060000  0  6G19G 8G13G10G28G27
   -181843.37548   -222511.43045  24229365.3034   24229361.4714
     -1756.3404
  -4680228.65249  -3640011.64546  22408419.9824   22408418.1234
      -176.2034
  19453560.05948  15150807.07044  23934978.7014   23934977.2484
     -4373.0494
   2554317.59047   1994807.97342  25249293.1154   25249293.1744
     -1943.0674
  -6278837.77348  -4888539.29344  23845014.5454   23845012.9394
       968.4084
   4189224.35249   3261081.34846  22491059.2954   22491057.2644
     -1342.1014
 04  9  9 22 49 45.0060000  0  6G19G 8G13G10G28G27
   -155356.39849   -201872.20745  24234405.5144   24234402.0144
     -1765.7984
  -4677521.54749  -3637902.20346  22408935.1704   22408933.2794
      -180.4744
  19519238.10948  15201984.74644  23947476.8504   23947474.7564
     -4378.5374
   2583597.32447   2017623.32442  25254864.9044   25254864.6974
     -1951.9824
  -6293288.84448  -4899799.83645  23842265.0924   23842263.0494
       963.4054
   4209414.59449   3276814.00846  22494900.9904   22494899.2174
     -1346.0164
 04  9  9 22 50  0.0060000  0  6G19G 8G13G10G28G27
   -128725.73048   -181121.04344  24239472.7794   24239468.8734
     -1775.3784
  -4674748.67649  -3635741.52746  22409462.5614   22409460.8464
      -184.8584
  19584999.86748  15253227.66444  23959991.0214   23959989.2874
     -4384.1174
   2613012.18847   2040543.99642  25260462.6704   25260462.6894
     -1960.9914
  -6307663.18048  -4911000.59845  23839529.5614   23839527.2284
       958.2894
   4229665.28149   3292593.77046  22498754.7254   22498752.7324
     -1350.0464
 04  9  9 22 50 15.0060000  0  6G19G 8G13G10G28G27
   -101953.03948   -160259.21944  24244567.7874   24244563.7014
     -1784.8464
  -4671911.33649  -3633530.60546  22410002.6394   22410000.5064
      -189.1564
  19650843.59448  15304534.44944  23972520.6314   23972519.4244
     -4389.5824
   2642560.62146   2063568.74642  25266085.0534   25266085.8534
     -1969.8964
  -6321962.18048  -4922142.65244  23836808.2014   23836805.9824
       953.2674
   4249974.94949   3308419.48046  22502619.6154   22502617.7714
     -1353.9784
 04  9  9 22 50 30.0060000  0  6G19G 8G13G10G28G27
    -75038.73048   -139287.02044  24249689.3734   24249685.2444
     -1794.2874
  -4669009.80149  -3631269.66046  22410554.8344   22410552.8614
      -193.4364
  19716768.70748  15355904.63344  23985065.5614   23985064.4824
     -4395.0084
   2672242.05947   2086697.12142  25271733.2404   25271732.6894
     -1978.7624
  -6336186.11348  -4933226.20344  23834101.7174   23834099.2014
       948.2624
   4270343.40649   3324291.00446  22506495.7564   22506493.7954
     -1357.8974
